Wetterdaten: Mittwoch, 26.10.2016
Datum Zeit Temp. A. Temp. A. max Feuchte A. Luftdruck Regen Wind Richtung Richtung Sonnenschein ET UV Solar Taupunkt Windböen
26.10.2016 00:00 9,6 °C 9,6 °C 96 % 1023,4 hPa 0,0 mm 0,0 km/h (0 Bft) NO 41 ° 0 min 0,000 mm 0,0 UV-I 0 W/m² 9,0 °C 0,0 km/h (0 Bft)
26.10.2016 00:01 9,6 °C 9,6 °C 96 % 1023,4 hPa 0,0 mm 1,1 km/h (1 Bft) O 96 ° 0 min 0,000 mm 0,0 UV-I 0 W/m² 9,0 °C 3,2 km/h (1 Bft)
26.10.2016 00:02 9,6 °C 9,6 °C 96 % 1023,4 hPa 0,0 mm 2,7 km/h (1 Bft) O 88 ° 0 min 0,000 mm 0,0 UV-I 0 W/m² 9,0 °C 4,8 km/h (1 Bft)
26.10.2016 00:03 9,6 °C 9,6 °C 96 % 1023,4 hPa 0,0 mm 2,7 km/h (1 Bft) NO 55 ° 0 min 0,000 mm 0,0 UV-I 0 W/m² 9,0 °C 4,8 km/h (1 Bft)
26.10.2016 00:04 9,6 °C 9,6 °C 96 % 1023,4 hPa 0,0 mm 2,8 km/h (1 Bft) NO 55 ° 0 min 0,000 mm 0,0 UV-I 0 W/m² 9,0 °C 4,8 km/h (1 Bft)
26.10.2016 00:05 9,6 °C 9,6 °C 96 % 1023,4 hPa 0,0 mm 2,3 km/h (1 Bft) O-NO 61 ° 0 min 0,000 mm 0,0 UV-I 0 W/m² 9,0 °C 4,8 km/h (1 Bft)
26.10.2016 00:06 9,6 °C 9,6 °C 96 % 1023,4 hPa 0,0 mm 3,7 km/h (1 Bft) O-NO 75 ° 0 min 0,000 mm 0,0 UV-I 0 W/m² 9,0 °C 4,8 km/h (1 Bft)
26.10.2016 00:07 9,6 °C 9,6 °C 96 % 1023,3 hPa 0,0 mm 0,7 km/h (0 Bft) O-NO 75 ° 0 min 0,000 mm 0,0 UV-I 0 W/m² 9,0 °C 1,6 km/h (1 Bft)
26.10.2016 00:08 9,6 °C 9,6 °C 96 % 1023,4 hPa 0,0 mm 3,4 km/h (1 Bft) NO 49 ° 0 min 0,000 mm 0,0 UV-I 0 W/m² 9,0 °C 4,8 km/h (1 Bft)
26.10.2016 00:09 9,6 °C 9,6 °C 96 % 1023,4 hPa 0,0 mm 4,5 km/h (1 Bft) NO 54 ° 0 min 0,000 mm 0,0 UV-I 0 W/m² 9,0 °C 6,4 km/h (2 Bft)
26.10.2016 00:10 9,6 °C 9,6 °C 96 % 1023,4 hPa 0,2 mm 2,9 km/h (1 Bft) O-NO 66 ° 0 min 0,000 mm 0,0 UV-I 0 W/m² 9,0 °C 4,8 km/h (1 Bft)
26.10.2016 00:11 9,6 °C 9,6 °C 96 % 1023,3 hPa 0,0 mm 3,5 km/h (1 Bft) O-NO 66 ° 0 min 0,000 mm 0,0 UV-I 0 W/m² 9,0 °C 4,8 km/h (1 Bft)
26.10.2016 00:12 9,6 °C 9,6 °C 96 % 1023,3 hPa 0,0 mm 2,5 km/h (1 Bft) O-NO 66 ° 0 min 0,000 mm 0,0 UV-I 0 W/m² 9,0 °C 3,2 km/h (1 Bft)
26.10.2016 00:13 9,6 °C 9,6 °C 96 % 1023,3 hPa 0,0 mm 2,4 km/h (1 Bft) O-NO 66 ° 0 min 0,000 mm 0,0 UV-I 0 W/m² 9,0 °C 3,2 km/h (1 Bft)
26.10.2016 00:14 9,6 °C 9,6 °C 96 % 1023,4 hPa 0,0 mm 2,2 km/h (1 Bft) O-NO 66 ° 0 min 0,000 mm 0,0 UV-I 0 W/m² 9,0 °C 3,2 km/h (1 Bft)
26.10.2016 00:15 9,6 °C 9,6 °C 96 % 1023,4 hPa 0,0 mm 2,1 km/h (1 Bft) O-NO 66 ° 0 min 0,000 mm 0,0 UV-I 0 W/m² 9,0 °C 3,2 km/h (1 Bft)
26.10.2016 00:16 9,6 °C 9,6 °C 96 % 1023,4 hPa 0,2 mm 1,6 km/h (1 Bft) O-NO 66 ° 0 min 0,000 mm 0,0 UV-I 0 W/m² 9,0 °C 3,2 km/h (1 Bft)
26.10.2016 00:17 9,6 °C 9,6 °C 96 % 1023,4 hPa 0,0 mm 0,3 km/h (0 Bft) O-NO 66 ° 0 min 0,000 mm 0,0 UV-I 0 W/m² 9,0 °C 1,6 km/h (1 Bft)
26.10.2016 00:18 9,5 °C 9,6 °C 96 % 1023,4 hPa 0,0 mm 0,8 km/h (0 Bft) O-NO 66 ° 0 min 0,000 mm 0,0 UV-I 0 W/m² 8,9 °C 3,2 km/h (1 Bft)
26.10.2016 00:19 9,6 °C 9,6 °C 96 % 1023,5 hPa 0,0 mm 2,2 km/h (1 Bft) O-NO 66 ° 0 min 0,000 mm 0,0 UV-I 0 W/m² 9,0 °C 3,2 km/h (1 Bft)
26.10.2016 00:20 9,6 °C 9,6 °C 96 % 1023,5 hPa 0,0 mm 0,4 km/h (0 Bft) O-NO 66 ° 0 min 0,000 mm 0,0 UV-I 0 W/m² 9,0 °C 1,6 km/h (1 Bft)
26.10.2016 00:21 9,6 °C 9,6 °C 96 % 1023,5 hPa 0,0 mm 1,5 km/h (1 Bft) O-NO 66 ° 0 min 0,000 mm 0,0 UV-I 0 W/m² 9,0 °C 3,2 km/h (1 Bft)
26.10.2016 00:22 9,6 °C 9,6 °C 96 % 1023,5 hPa 0,0 mm 1,5 km/h (1 Bft) O-NO 66 ° 0 min 0,000 mm 0,0 UV-I 0 W/m² 9,0 °C 3,2 km/h (1 Bft)
26.10.2016 00:23 9,6 °C 9,6 °C 96 % 1023,5 hPa 0,0 mm 1,5 km/h (1 Bft) O-NO 66 ° 0 min 0,000 mm 0,0 UV-I 0 W/m² 9,0 °C 3,2 km/h (1 Bft)
26.10.2016 00:24 9,6 °C 9,6 °C 96 % 1023,5 hPa 0,0 mm 2,2 km/h (1 Bft) NO 53 ° 0 min 0,000 mm 0,0 UV-I 0 W/m² 9,0 °C 3,2 km/h (1 Bft)
26.10.2016 00:25 9,6 °C 9,6 °C 96 % 1023,5 hPa 0,0 mm 2,2 km/h (1 Bft) NO 53 ° 0 min 0,000 mm 0,0 UV-I 0 W/m² 9,0 °C 3,2 km/h (1 Bft)
26.10.2016 00:26 9,6 °C 9,6 °C 96 % 1023,5 hPa 0,0 mm 3,3 km/h (1 Bft) NO 53 ° 0 min 0,000 mm 0,0 UV-I 0 W/m² 9,0 °C 4,8 km/h (1 Bft)
26.10.2016 00:27 9,6 °C 9,6 °C 96 % 1023,5 hPa 0,0 mm 2,2 km/h (1 Bft) NO 53 ° 0 min 0,000 mm 0,0 UV-I 0 W/m² 9,0 °C 4,8 km/h (1 Bft)
26.10.2016 00:28 9,6 °C 9,6 °C 96 % 1023,5 hPa 0,2 mm 2,4 km/h (1 Bft) NO 53 ° 0 min 0,000 mm 0,0 UV-I 0 W/m² 9,0 °C 3,2 km/h (1 Bft)
26.10.2016 00:29 9,5 °C 9,6 °C 96 % 1023,5 hPa 0,0 mm 1,5 km/h (1 Bft) NO 53 ° 0 min 0,000 mm 0,0 UV-I 0 W/m² 8,9 °C 3,2 km/h (1 Bft)
26.10.2016 00:30 9,5 °C 9,6 °C 96 % 1023,5 hPa 0,0 mm 2,6 km/h (1 Bft) O-NO 77 ° 0 min 0,000 mm 0,0 UV-I 0 W/m² 8,9 °C 6,4 km/h (2 Bft)
26.10.2016 00:31 9,5 °C 9,5 °C 96 % 1023,5 hPa 0,0 mm 3,2 km/h (1 Bft) O-NO 77 ° 0 min 0,000 mm 0,0 UV-I 0 W/m² 8,9 °C 4,8 km/h (1 Bft)
26.10.2016 00:32 9,5 °C 9,5 °C 96 % 1023,5 hPa 0,0 mm 2,9 km/h (1 Bft) O-NO 78 ° 0 min 0,000 mm 0,0 UV-I 0 W/m² 8,9 °C 6,4 km/h (2 Bft)
26.10.2016 00:33 9,5 °C 9,5 °C 96 % 1023,5 hPa 0,0 mm 0,4 km/h (0 Bft) O-NO 78 ° 0 min 0,000 mm 0,0 UV-I 0 W/m² 8,9 °C 1,6 km/h (1 Bft)
26.10.2016 00:34 9,4 °C 9,5 °C 96 % 1023,5 hPa 0,0 mm 0,5 km/h (0 Bft) O-NO 78 ° 0 min 0,000 mm 0,0 UV-I 0 W/m² 8,8 °C 1,6 km/h (1 Bft)
26.10.2016 00:35 9,5 °C 9,5 °C 96 % 1023,5 hPa 0,0 mm 2,8 km/h (1 Bft) O-NO 61 ° 0 min 0,000 mm 0,0 UV-I 0 W/m² 8,9 °C 4,8 km/h (1 Bft)
26.10.2016 00:36 9,4 °C 9,5 °C 96 % 1023,5 hPa 0,0 mm 3,1 km/h (1 Bft) O-NO 76 ° 0 min 0,000 mm 0,0 UV-I 0 W/m² 8,8 °C 4,8 km/h (1 Bft)
26.10.2016 00:37 9,4 °C 9,4 °C 96 % 1023,5 hPa 0,0 mm 4,3 km/h (1 Bft) NO 37 ° 0 min 0,000 mm 0,0 UV-I 0 W/m² 8,8 °C 6,4 km/h (2 Bft)
26.10.2016 00:38 9,5 °C 9,5 °C 96 % 1023,5 hPa 0,0 mm 2,5 km/h (1 Bft) NO 38 ° 0 min 0,000 mm 0,0 UV-I 0 W/m² 8,9 °C 4,8 km/h (1 Bft)
26.10.2016 00:39 9,4 °C 9,5 °C 96 % 1023,5 hPa 0,0 mm 2,7 km/h (1 Bft) NO 38 ° 0 min 0,000 mm 0,0 UV-I 0 W/m² 8,8 °C 4,8 km/h (1 Bft)
26.10.2016 00:40 9,4 °C 9,4 °C 96 % 1023,6 hPa 0,2 mm 2,2 km/h (1 Bft) NO 38 ° 0 min 0,000 mm 0,0 UV-I 0 W/m² 8,8 °C 4,8 km/h (1 Bft)
26.10.2016 00:41 9,4 °C 9,4 °C 96 % 1023,6 hPa 0,0 mm 2,3 km/h (1 Bft) NO 40 ° 0 min 0,000 mm 0,0 UV-I 0 W/m² 8,8 °C 4,8 km/h (1 Bft)
26.10.2016 00:42 9,4 °C 9,4 °C 96 % 1023,6 hPa 0,0 mm 1,3 km/h (1 Bft) NO 40 ° 0 min 0,000 mm 0,0 UV-I 0 W/m² 8,8 °C 3,2 km/h (1 Bft)
26.10.2016 00:43 9,4 °C 9,4 °C 96 % 1023,5 hPa 0,0 mm 1,6 km/h (1 Bft) NO 40 ° 0 min 0,000 mm 0,0 UV-I 0 W/m² 8,8 °C 3,2 km/h (1 Bft)
26.10.2016 00:44 9,4 °C 9,4 °C 96 % 1023,5 hPa 0,0 mm 1,4 km/h (1 Bft) NO 40 ° 0 min 0,000 mm 0,0 UV-I 0 W/m² 8,8 °C 1,6 km/h (1 Bft)
26.10.2016 00:45 9,4 °C 9,4 °C 96 % 1023,6 hPa 0,0 mm 0,1 km/h (0 Bft) NO 40 ° 0 min 0,000 mm 0,0 UV-I 0 W/m² 8,8 °C 1,6 km/h (1 Bft)
26.10.2016 00:46 9,4 °C 9,4 °C 96 % 1023,6 hPa 0,0 mm 0,1 km/h (0 Bft) NO 40 ° 0 min 0,000 mm 0,0 UV-I 0 W/m² 8,8 °C 1,6 km/h (1 Bft)
26.10.2016 00:47 9,4 °C 9,4 °C 96 % 1023,6 hPa 0,0 mm 0,4 km/h (0 Bft) NO 40 ° 0 min 0,000 mm 0,0 UV-I 0 W/m² 8,8 °C 1,6 km/h (1 Bft)
26.10.2016 00:48 9,4 °C 9,4 °C 96 % 1023,6 hPa 0,0 mm 1,3 km/h (1 Bft) NO 40 ° 0 min 0,000 mm 0,0 UV-I 0 W/m² 8,8 °C 3,2 km/h (1 Bft)
26.10.2016 00:49 9,4 °C 9,4 °C 96 % 1023,6 hPa 0,0 mm 1,5 km/h (1 Bft) NO 40 ° 0 min 0,000 mm 0,0 UV-I 0 W/m² 8,8 °C 3,2 km/h (1 Bft)
26.10.2016 00:50 9,4 °C 9,4 °C 96 % 1023,6 hPa 0,0 mm 1,2 km/h (1 Bft) NO 40 ° 0 min 0,000 mm 0,0 UV-I 0 W/m² 8,8 °C 3,2 km/h (1 Bft)
26.10.2016 00:51 9,4 °C 9,4 °C 96 % 1023,5 hPa 0,0 mm 0,0 km/h (0 Bft) NO 40 ° 0 min 0,000 mm 0,0 UV-I 0 W/m² 8,8 °C 0,0 km/h (0 Bft)
26.10.2016 00:52 9,4 °C 9,4 °C 96 % 1023,6 hPa 0,0 mm 0,0 km/h (0 Bft) NO 40 ° 0 min 0,000 mm 0,0 UV-I 0 W/m² 8,8 °C 0,0 km/h (0 Bft)
26.10.2016 00:53 9,4 °C 9,4 °C 96 % 1023,5 hPa 0,0 mm 0,0 km/h (0 Bft) NO 40 ° 0 min 0,000 mm 0,0 UV-I 0 W/m² 8,8 °C 0,0 km/h (0 Bft)
26.10.2016 00:54 9,4 °C 9,4 °C 96 % 1023,6 hPa 0,0 mm 0,0 km/h (0 Bft) NO 40 ° 0 min 0,000 mm 0,0 UV-I 0 W/m² 8,8 °C 0,0 km/h (0 Bft)
26.10.2016 00:55 9,4 °C 9,4 °C 96 % 1023,6 hPa 0,0 mm 0,0 km/h (0 Bft) NO 40 ° 0 min 0,000 mm 0,0 UV-I 0 W/m² 8,8 °C 0,0 km/h (0 Bft)
26.10.2016 00:56 9,4 °C 9,4 °C 96 % 1023,5 hPa 0,0 mm 0,0 km/h (0 Bft) NO 40 ° 0 min 0,000 mm 0,0 UV-I 0 W/m² 8,8 °C 0,0 km/h (0 Bft)
26.10.2016 00:57 9,4 °C 9,4 °C 96 % 1023,6 hPa 0,0 mm 0,0 km/h (0 Bft) NO 40 ° 0 min 0,000 mm 0,0 UV-I 0 W/m² 8,8 °C 0,0 km/h (0 Bft)
26.10.2016 00:58 9,4 °C 9,4 °C 96 % 1023,6 hPa 0,0 mm 0,0 km/h (0 Bft) NO 40 ° 0 min 0,000 mm 0,0 UV-I 0 W/m² 8,8 °C 0,0 km/h (0 Bft)
26.10.2016 00:59 9,4 °C 9,4 °C 96 % 1023,6 hPa 0,0 mm 0,0 km/h (0 Bft) NO 40 ° 0 min 0,000 mm 0,0 UV-I 0 W/m² 8,8 °C 0,0 km/h (0 Bft)
26.10.2016 01:00 9,4 °C 9,4 °C 96 % 1023,5 hPa 0,0 mm 0,0 km/h (0 Bft) NO 40 ° 0 min 0,000 mm 0,0 UV-I 0 W/m² 8,8 °C 0,0 km/h (0 Bft)
26.10.2016 01:01 9,4 °C 9,4 °C 96 % 1023,5 hPa 0,0 mm 0,0 km/h (0 Bft) NO 40 ° 0 min 0,000 mm 0,0 UV-I 0 W/m² 8,8 °C 0,0 km/h (0 Bft)
26.10.2016 01:02 9,4 °C 9,4 °C 96 % 1023,5 hPa 0,2 mm 0,0 km/h (0 Bft) NO 40 ° 0 min 0,000 mm 0,0 UV-I 0 W/m² 8,8 °C 0,0 km/h (0 Bft)
26.10.2016 01:03 9,4 °C 9,4 °C 96 % 1023,5 hPa 0,0 mm 0,0 km/h (0 Bft) NO 40 ° 0 min 0,000 mm 0,0 UV-I 0 W/m² 8,8 °C 0,0 km/h (0 Bft)
26.10.2016 01:04 9,4 °C 9,4 °C 96 % 1023,5 hPa 0,0 mm 0,0 km/h (0 Bft) NO 40 ° 0 min 0,000 mm 0,0 UV-I 0 W/m² 8,8 °C 0,0 km/h (0 Bft)
26.10.2016 01:05 9,4 °C 9,4 °C 96 % 1023,5 hPa 0,0 mm 0,0 km/h (0 Bft) NO 40 ° 0 min 0,000 mm 0,0 UV-I 0 W/m² 8,8 °C 0,0 km/h (0 Bft)
26.10.2016 01:06 9,4 °C 9,4 °C 96 % 1023,5 hPa 0,0 mm 0,0 km/h (0 Bft) NO 40 ° 0 min 0,000 mm 0,0 UV-I 0 W/m² 8,8 °C 0,0 km/h (0 Bft)
26.10.2016 01:07 9,4 °C 9,4 °C 96 % 1023,5 hPa 0,0 mm 0,0 km/h (0 Bft) NO 40 ° 0 min 0,000 mm 0,0 UV-I 0 W/m² 8,8 °C 0,0 km/h (0 Bft)
26.10.2016 01:08 9,4 °C 9,4 °C 96 % 1023,5 hPa 0,0 mm 0,0 km/h (0 Bft) NO 40 ° 0 min 0,000 mm 0,0 UV-I 0 W/m² 8,8 °C 0,0 km/h (0 Bft)
26.10.2016 01:09 9,4 °C 9,4 °C 96 % 1023,5 hPa 0,0 mm 0,0 km/h (0 Bft) NO 40 ° 0 min 0,000 mm 0,0 UV-I 0 W/m² 8,8 °C 0,0 km/h (0 Bft)
26.10.2016 01:10 9,4 °C 9,4 °C 96 % 1023,5 hPa 0,0 mm 0,0 km/h (0 Bft) NO 40 ° 0 min 0,000 mm 0,0 UV-I 0 W/m² 8,8 °C 0,0 km/h (0 Bft)
26.10.2016 01:11 9,4 °C 9,4 °C 96 % 1023,5 hPa 0,0 mm 0,1 km/h (0 Bft) NO 40 ° 0 min 0,000 mm 0,0 UV-I 0 W/m² 8,8 °C 1,6 km/h (1 Bft)
26.10.2016 01:12 9,4 °C 9,4 °C 96 % 1023,5 hPa 0,0 mm 1,0 km/h (0 Bft) NO 40 ° 0 min 0,000 mm 0,0 UV-I 0 W/m² 8,8 °C 1,6 km/h (1 Bft)
26.10.2016 01:13 9,4 °C 9,4 °C 96 % 1023,6 hPa 0,0 mm 0,0 km/h (0 Bft) NO 40 ° 0 min 0,000 mm 0,0 UV-I 0 W/m² 8,8 °C 0,0 km/h (0 Bft)
26.10.2016 01:14 9,4 °C 9,4 °C 96 % 1023,6 hPa 0,0 mm 0,0 km/h (0 Bft) NO 40 ° 0 min 0,000 mm 0,0 UV-I 0 W/m² 8,8 °C 0,0 km/h (0 Bft)
26.10.2016 01:15 9,4 °C 9,4 °C 96 % 1023,5 hPa 0,0 mm 0,0 km/h (0 Bft) NO 40 ° 0 min 0,000 mm 0,0 UV-I 0 W/m² 8,8 °C 0,0 km/h (0 Bft)
26.10.2016 01:16 9,4 °C 9,4 °C 96 % 1023,5 hPa 0,0 mm 0,0 km/h (0 Bft) NO 40 ° 0 min 0,000 mm 0,0 UV-I 0 W/m² 8,8 °C 0,0 km/h (0 Bft)
26.10.2016 01:17 9,4 °C 9,4 °C 96 % 1023,5 hPa 0,0 mm 0,0 km/h (0 Bft) NO 40 ° 0 min 0,000 mm 0,0 UV-I 0 W/m² 8,8 °C 0,0 km/h (0 Bft)
26.10.2016 01:18 9,4 °C 9,4 °C 96 % 1023,5 hPa 0,0 mm 0,0 km/h (0 Bft) NO 40 ° 0 min 0,000 mm 0,0 UV-I 0 W/m² 8,8 °C 0,0 km/h (0 Bft)
26.10.2016 01:19 9,4 °C 9,4 °C 96 % 1023,5 hPa 0,0 mm 0,0 km/h (0 Bft) NO 40 ° 0 min 0,000 mm 0,0 UV-I 0 W/m² 8,8 °C 0,0 km/h (0 Bft)
26.10.2016 01:20 9,4 °C 9,4 °C 96 % 1023,5 hPa 0,0 mm 0,0 km/h (0 Bft) NO 40 ° 0 min 0,000 mm 0,0 UV-I 0 W/m² 8,8 °C 0,0 km/h (0 Bft)
26.10.2016 01:21 9,4 °C 9,4 °C 96 % 1023,5 hPa 0,0 mm 0,0 km/h (0 Bft) NO 40 ° 0 min 0,000 mm 0,0 UV-I 0 W/m² 8,8 °C 0,0 km/h (0 Bft)
26.10.2016 01:22 9,4 °C 9,4 °C 96 % 1023,5 hPa 0,0 mm 0,0 km/h (0 Bft) NO 40 ° 0 min 0,000 mm 0,0 UV-I 0 W/m² 8,8 °C 0,0 km/h (0 Bft)
26.10.2016 01:23 9,4 °C 9,4 °C 96 % 1023,5 hPa 0,0 mm 0,0 km/h (0 Bft) NO 40 ° 0 min 0,000 mm 0,0 UV-I 0 W/m² 8,8 °C 0,0 km/h (0 Bft)
26.10.2016 01:24 9,4 °C 9,4 °C 96 % 1023,5 hPa 0,0 mm 0,0 km/h (0 Bft) NO 40 ° 0 min 0,000 mm 0,0 UV-I 0 W/m² 8,8 °C 0,0 km/h (0 Bft)
26.10.2016 01:25 9,4 °C 9,4 °C 96 % 1023,4 hPa 0,2 mm 0,0 km/h (0 Bft) NO 40 ° 0 min 0,000 mm 0,0 UV-I 0 W/m² 8,8 °C 0,0 km/h (0 Bft)
26.10.2016 01:26 9,4 °C 9,4 °C 96 % 1023,5 hPa 0,0 mm 0,0 km/h (0 Bft) NO 40 ° 0 min 0,000 mm 0,0 UV-I 0 W/m² 8,8 °C 0,0 km/h (0 Bft)
26.10.2016 01:27 9,4 °C 9,4 °C 96 % 1023,5 hPa 0,0 mm 0,0 km/h (0 Bft) NO 40 ° 0 min 0,000 mm 0,0 UV-I 0 W/m² 8,8 °C 0,0 km/h (0 Bft)
26.10.2016 01:28 9,4 °C 9,4 °C 96 % 1023,5 hPa 0,0 mm 0,0 km/h (0 Bft) NO 40 ° 0 min 0,000 mm 0,0 UV-I 0 W/m² 8,8 °C 0,0 km/h (0 Bft)
26.10.2016 01:29 9,4 °C 9,4 °C 96 % 1023,5 hPa 0,2 mm 0,0 km/h (0 Bft) NO 40 ° 0 min 0,000 mm 0,0 UV-I 0 W/m² 8,8 °C 0,0 km/h (0 Bft)
26.10.2016 01:30 9,4 °C 9,4 °C 96 % 1023,5 hPa 0,0 mm 0,0 km/h (0 Bft) NO 40 ° 0 min 0,000 mm 0,0 UV-I 0 W/m² 8,8 °C 0,0 km/h (0 Bft)
26.10.2016 01:31 9,4 °C 9,4 °C 96 % 1023,4 hPa 0,0 mm 0,0 km/h (0 Bft) NO 52 ° 0 min 0,000 mm 0,0 UV-I 0 W/m² 8,8 °C 0,0 km/h (0 Bft)
26.10.2016 01:32 9,4 °C 9,4 °C 96 % 1023,4 hPa 0,0 mm 0,0 km/h (0 Bft) NO 52 ° 0 min 0,000 mm 0,0 UV-I 0 W/m² 8,8 °C 0,0 km/h (0 Bft)
26.10.2016 01:33 9,4 °C 9,4 °C 96 % 1023,4 hPa 0,0 mm 1,8 km/h (1 Bft) NO 52 ° 0 min 0,000 mm 0,0 UV-I 0 W/m² 8,8 °C 3,2 km/h (1 Bft)
26.10.2016 01:34 9,4 °C 9,4 °C 96 % 1023,4 hPa 0,0 mm 0,8 km/h (0 Bft) NO 52 ° 0 min 0,000 mm 0,0 UV-I 0 W/m² 8,8 °C 3,2 km/h (1 Bft)
26.10.2016 01:35 9,4 °C 9,4 °C 96 % 1023,4 hPa 0,0 mm 2,1 km/h (1 Bft) NO 52 ° 0 min 0,000 mm 0,0 UV-I 0 W/m² 8,8 °C 3,2 km/h (1 Bft)
26.10.2016 01:36 9,4 °C 9,4 °C 96 % 1023,3 hPa 0,0 mm 1,1 km/h (1 Bft) NO 52 ° 0 min 0,000 mm 0,0 UV-I 0 W/m² 8,8 °C 1,6 km/h (1 Bft)
26.10.2016 01:37 9,4 °C 9,4 °C 96 % 1023,3 hPa 0,0 mm 2,7 km/h (1 Bft) NO 52 ° 0 min 0,000 mm 0,0 UV-I 0 W/m² 8,8 °C 4,8 km/h (1 Bft)
26.10.2016 01:38 9,4 °C 9,4 °C 96 % 1023,3 hPa 0,0 mm 2,0 km/h (1 Bft) NO 52 ° 0 min 0,000 mm 0,0 UV-I 0 W/m² 8,8 °C 3,2 km/h (1 Bft)
26.10.2016 01:39 9,3 °C 9,4 °C 96 % 1023,3 hPa 0,0 mm 2,0 km/h (1 Bft) NO 52 ° 0 min 0,000 mm 0,0 UV-I 0 W/m² 8,7 °C 3,2 km/h (1 Bft)
26.10.2016 01:40 9,3 °C 9,4 °C 96 % 1023,3 hPa 0,0 mm 1,4 km/h (1 Bft) NO 52 ° 0 min 0,000 mm 0,0 UV-I 0 W/m² 8,7 °C 3,2 km/h (1 Bft)
26.10.2016 01:41 9,3 °C 9,3 °C 96 % 1023,3 hPa 0,0 mm 0,0 km/h (0 Bft) NO 52 ° 0 min 0,000 mm 0,0 UV-I 0 W/m² 8,7 °C 0,0 km/h (0 Bft)
26.10.2016 01:42 9,4 °C 9,4 °C 96 % 1023,3 hPa 0,0 mm 1,3 km/h (1 Bft) NO 52 ° 0 min 0,000 mm 0,0 UV-I 0 W/m² 8,8 °C 3,2 km/h (1 Bft)
26.10.2016 01:43 9,3 °C 9,4 °C 96 % 1023,3 hPa 0,0 mm 0,4 km/h (0 Bft) NO 52 ° 0 min 0,000 mm 0,0 UV-I 0 W/m² 8,7 °C 1,6 km/h (1 Bft)
26.10.2016 01:44 9,3 °C 9,4 °C 96 % 1023,3 hPa 0,0 mm 0,6 km/h (0 Bft) NO 52 ° 0 min 0,000 mm 0,0 UV-I 0 W/m² 8,7 °C 1,6 km/h (1 Bft)
26.10.2016 01:45 9,3 °C 9,3 °C 96 % 1023,3 hPa 0,0 mm 0,1 km/h (0 Bft) NO 52 ° 0 min 0,000 mm 0,0 UV-I 0 W/m² 8,7 °C 1,6 km/h (1 Bft)
26.10.2016 01:46 9,3 °C 9,4 °C 96 % 1023,3 hPa 0,0 mm 0,0 km/h (0 Bft) NO 52 ° 0 min 0,000 mm 0,0 UV-I 0 W/m² 8,7 °C 0,0 km/h (0 Bft)
26.10.2016 01:47 9,4 °C 9,4 °C 96 % 1023,3 hPa 0,0 mm 0,0 km/h (0 Bft) NO 52 ° 0 min 0,000 mm 0,0 UV-I 0 W/m² 8,8 °C 0,0 km/h (0 Bft)
26.10.2016 01:48 9,3 °C 9,4 °C 96 % 1023,3 hPa 0,0 mm 0,0 km/h (0 Bft) NO 52 ° 0 min 0,000 mm 0,0 UV-I 0 W/m² 8,7 °C 0,0 km/h (0 Bft)
26.10.2016 01:49 9,3 °C 9,4 °C 96 % 1023,3 hPa 0,0 mm 0,0 km/h (0 Bft) NO 52 ° 0 min 0,000 mm 0,0 UV-I 0 W/m² 8,7 °C 0,0 km/h (0 Bft)
26.10.2016 01:50 9,4 °C 9,4 °C 96 % 1023,3 hPa 0,0 mm 0,0 km/h (0 Bft) NO 52 ° 0 min 0,000 mm 0,0 UV-I 0 W/m² 8,8 °C 0,0 km/h (0 Bft)
26.10.2016 01:51 9,3 °C 9,4 °C 96 % 1023,3 hPa 0,0 mm 0,0 km/h (0 Bft) NO 52 ° 0 min 0,000 mm 0,0 UV-I 0 W/m² 8,7 °C 0,0 km/h (0 Bft)
26.10.2016 01:52 9,3 °C 9,3 °C 96 % 1023,3 hPa 0,2 mm 0,0 km/h (0 Bft) NO 52 ° 0 min 0,000 mm 0,0 UV-I 0 W/m² 8,7 °C 0,0 km/h (0 Bft)
26.10.2016 01:53 9,3 °C 9,4 °C 96 % 1023,3 hPa 0,0 mm 0,1 km/h (0 Bft) NO 52 ° 0 min 0,000 mm 0,0 UV-I 0 W/m² 8,7 °C 1,6 km/h (1 Bft)
26.10.2016 01:54 9,3 °C 9,3 °C 96 % 1023,3 hPa 0,0 mm 1,1 km/h (1 Bft) NO 52 ° 0 min 0,000 mm 0,0 UV-I 0 W/m² 8,7 °C 1,6 km/h (1 Bft)
26.10.2016 01:55 9,3 °C 9,3 °C 96 % 1023,3 hPa 0,0 mm 0,8 km/h (0 Bft) NO 52 ° 0 min 0,000 mm 0,0 UV-I 0 W/m² 8,7 °C 1,6 km/h (1 Bft)
26.10.2016 01:56 9,3 °C 9,3 °C 96 % 1023,3 hPa 0,2 mm 0,4 km/h (0 Bft) NO 52 ° 0 min 0,000 mm 0,0 UV-I 0 W/m² 8,7 °C 1,6 km/h (1 Bft)
26.10.2016 01:57 9,3 °C 9,3 °C 96 % 1023,2 hPa 0,0 mm 0,6 km/h (0 Bft) NO 52 ° 0 min 0,000 mm 0,0 UV-I 0 W/m² 8,7 °C 1,6 km/h (1 Bft)
26.10.2016 01:58 9,3 °C 9,3 °C 96 % 1023,3 hPa 0,0 mm 0,7 km/h (0 Bft) NO 52 ° 0 min 0,000 mm 0,0 UV-I 0 W/m² 8,7 °C 1,6 km/h (1 Bft)
26.10.2016 01:59 9,3 °C 9,3 °C 96 % 1023,3 hPa 0,2 mm 0,1 km/h (0 Bft) NO 52 ° 0 min 0,000 mm 0,0 UV-I 0 W/m² 8,7 °C 1,6 km/h (1 Bft)
26.10.2016 02:00 9,3 °C 9,3 °C 96 % 1023,3 hPa 0,0 mm 0,0 km/h (0 Bft) NO 52 ° 0 min 0,000 mm 0,0 UV-I 0 W/m² 8,7 °C 0,0 km/h (0 Bft)
26.10.2016 02:01 9,3 °C 9,3 °C 96 % 1023,3 hPa 0,0 mm 0,0 km/h (0 Bft) NO 52 ° 0 min 0,000 mm 0,0 UV-I 0 W/m² 8,7 °C 0,0 km/h (0 Bft)
26.10.2016 02:02 9,3 °C 9,3 °C 96 % 1023,3 hPa 0,0 mm 0,0 km/h (0 Bft) NO 52 ° 0 min 0,000 mm 0,0 UV-I 0 W/m² 8,7 °C 0,0 km/h (0 Bft)
26.10.2016 02:03 9,3 °C 9,3 °C 96 % 1023,3 hPa 0,0 mm 0,0 km/h (0 Bft) NO 52 ° 0 min 0,000 mm 0,0 UV-I 0 W/m² 8,7 °C 0,0 km/h (0 Bft)
26.10.2016 02:04 9,3 °C 9,3 °C 96 % 1023,2 hPa 0,0 mm 0,0 km/h (0 Bft) NO 52 ° 0 min 0,000 mm 0,0 UV-I 0 W/m² 8,7 °C 0,0 km/h (0 Bft)
26.10.2016 02:05 9,3 °C 9,3 °C 96 % 1023,2 hPa 0,0 mm 0,0 km/h (0 Bft) NO 52 ° 0 min 0,000 mm 0,0 UV-I 0 W/m² 8,7 °C 0,0 km/h (0 Bft)
26.10.2016 02:06 9,3 °C 9,3 °C 96 % 1023,2 hPa 0,0 mm 0,0 km/h (0 Bft) NO 52 ° 0 min 0,000 mm 0,0 UV-I 0 W/m² 8,7 °C 0,0 km/h (0 Bft)
26.10.2016 02:07 9,3 °C 9,3 °C 96 % 1023,2 hPa 0,2 mm 0,2 km/h (0 Bft) NO 52 ° 0 min 0,000 mm 0,0 UV-I 0 W/m² 8,7 °C 1,6 km/h (1 Bft)
26.10.2016 02:08 9,3 °C 9,3 °C 96 % 1023,2 hPa 0,0 mm 0,0 km/h (0 Bft) NO 52 ° 0 min 0,000 mm 0,0 UV-I 0 W/m² 8,7 °C 0,0 km/h (0 Bft)
26.10.2016 02:09 9,3 °C 9,3 °C 96 % 1023,2 hPa 0,0 mm 0,2 km/h (0 Bft) NO 52 ° 0 min 0,000 mm 0,0 UV-I 0 W/m² 8,7 °C 1,6 km/h (1 Bft)
26.10.2016 02:10 9,3 °C 9,3 °C 96 % 1023,2 hPa 0,2 mm 0,0 km/h (0 Bft) NO 52 ° 0 min 0,000 mm 0,0 UV-I 0 W/m² 8,7 °C 0,0 km/h (0 Bft)
26.10.2016 02:11 9,3 °C 9,3 °C 96 % 1023,2 hPa 0,0 mm 0,2 km/h (0 Bft) NO 52 ° 0 min 0,000 mm 0,0 UV-I 0 W/m² 8,7 °C 1,6 km/h (1 Bft)
26.10.2016 02:12 9,3 °C 9,3 °C 96 % 1023,3 hPa 0,0 mm 0,0 km/h (0 Bft) NO 52 ° 0 min 0,000 mm 0,0 UV-I 0 W/m² 8,7 °C 0,0 km/h (0 Bft)
26.10.2016 02:13 9,3 °C 9,3 °C 96 % 1023,3 hPa 0,0 mm 0,0 km/h (0 Bft) NO 52 ° 0 min 0,000 mm 0,0 UV-I 0 W/m² 8,7 °C 0,0 km/h (0 Bft)
26.10.2016 02:14 9,3 °C 9,3 °C 96 % 1023,2 hPa 0,0 mm 0,0 km/h (0 Bft) NO 52 ° 0 min 0,000 mm 0,0 UV-I 0 W/m² 8,7 °C 0,0 km/h (0 Bft)
26.10.2016 02:15 9,3 °C 9,3 °C 96 % 1023,2 hPa 0,0 mm 0,0 km/h (0 Bft) NO 52 ° 0 min 0,000 mm 0,0 UV-I 0 W/m² 8,7 °C 0,0 km/h (0 Bft)
26.10.2016 02:16 9,3 °C 9,3 °C 96 % 1023,3 hPa 0,0 mm 0,0 km/h (0 Bft) NO 52 ° 0 min 0,000 mm 0,0 UV-I 0 W/m² 8,7 °C 0,0 km/h (0 Bft)
26.10.2016 02:17 9,3 °C 9,3 °C 96 % 1023,3 hPa 0,0 mm 0,0 km/h (0 Bft) NO 52 ° 0 min 0,000 mm 0,0 UV-I 0 W/m² 8,7 °C 0,0 km/h (0 Bft)
26.10.2016 02:18 9,2 °C 9,3 °C 96 % 1023,3 hPa 0,0 mm 0,0 km/h (0 Bft) NO 52 ° 0 min 0,000 mm 0,0 UV-I 0 W/m² 8,6 °C 0,0 km/h (0 Bft)
26.10.2016 02:19 9,2 °C 9,3 °C 96 % 1023,2 hPa 0,0 mm 0,0 km/h (0 Bft) NO 52 ° 0 min 0,000 mm 0,0 UV-I 0 W/m² 8,6 °C 0,0 km/h (0 Bft)
26.10.2016 02:20 9,3 °C 9,3 °C 96 % 1023,2 hPa 0,0 mm 0,0 km/h (0 Bft) NO 52 ° 0 min 0,000 mm 0,0 UV-I 0 W/m² 8,7 °C 0,0 km/h (0 Bft)
26.10.2016 02:21 9,2 °C 9,3 °C 96 % 1023,2 hPa 0,2 mm 0,0 km/h (0 Bft) NO 52 ° 0 min 0,000 mm 0,0 UV-I 0 W/m² 8,6 °C 0,0 km/h (0 Bft)
26.10.2016 02:22 9,2 °C 9,2 °C 96 % 1023,2 hPa 0,0 mm 0,0 km/h (0 Bft) NO 52 ° 0 min 0,000 mm 0,0 UV-I 0 W/m² 8,6 °C 0,0 km/h (0 Bft)
26.10.2016 02:23 9,2 °C 9,2 °C 96 % 1023,2 hPa 0,0 mm 0,0 km/h (0 Bft) NO 52 ° 0 min 0,000 mm 0,0 UV-I 0 W/m² 8,6 °C 0,0 km/h (0 Bft)
26.10.2016 02:24 9,2 °C 9,2 °C 96 % 1023,2 hPa 0,0 mm 0,0 km/h (0 Bft) NO 52 ° 0 min 0,000 mm 0,0 UV-I 0 W/m² 8,6 °C 0,0 km/h (0 Bft)
26.10.2016 02:25 9,2 °C 9,2 °C 96 % 1023,2 hPa 0,0 mm 0,0 km/h (0 Bft) NO 52 ° 0 min 0,000 mm 0,0 UV-I 0 W/m² 8,6 °C 0,0 km/h (0 Bft)
26.10.2016 02:26 9,2 °C 9,2 °C 96 % 1023,2 hPa 0,0 mm 0,0 km/h (0 Bft) NO 52 ° 0 min 0,000 mm 0,0 UV-I 0 W/m² 8,6 °C 0,0 km/h (0 Bft)
26.10.2016 02:27 9,2 °C 9,2 °C 96 % 1023,2 hPa 0,0 mm 0,0 km/h (0 Bft) NO 52 ° 0 min 0,000 mm 0,0 UV-I 0 W/m² 8,6 °C 0,0 km/h (0 Bft)
26.10.2016 02:28 9,2 °C 9,2 °C 96 % 1023,1 hPa 0,0 mm 0,0 km/h (0 Bft) NO 52 ° 0 min 0,000 mm 0,0 UV-I 0 W/m² 8,6 °C 0,0 km/h (0 Bft)
26.10.2016 02:29 9,2 °C 9,2 °C 96 % 1023,2 hPa 0,0 mm 0,0 km/h (0 Bft) NO 52 ° 0 min 0,000 mm 0,0 UV-I 0 W/m² 8,6 °C 0,0 km/h (0 Bft)
26.10.2016 02:30 9,2 °C 9,2 °C 96 % 1023,2 hPa 0,0 mm 0,0 km/h (0 Bft) NO 52 ° 0 min 0,000 mm 0,0 UV-I 0 W/m² 8,6 °C 0,0 km/h (0 Bft)
26.10.2016 02:31 9,2 °C 9,2 °C 96 % 1023,2 hPa 0,0 mm 0,0 km/h (0 Bft) NO 52 ° 0 min 0,000 mm 0,0 UV-I 0 W/m² 8,6 °C 0,0 km/h (0 Bft)
26.10.2016 02:32 9,2 °C 9,2 °C 96 % 1023,2 hPa 0,0 mm 0,0 km/h (0 Bft) NO 52 ° 0 min 0,000 mm 0,0 UV-I 0 W/m² 8,6 °C 0,0 km/h (0 Bft)
26.10.2016 02:33 9,2 °C 9,2 °C 96 % 1023,2 hPa 0,0 mm 0,0 km/h (0 Bft) NO 52 ° 0 min 0,000 mm 0,0 UV-I 0 W/m² 8,6 °C 0,0 km/h (0 Bft)
26.10.2016 02:34 9,2 °C 9,2 °C 96 % 1023,2 hPa 0,2 mm 0,0 km/h (0 Bft) NO 52 ° 0 min 0,000 mm 0,0 UV-I 0 W/m² 8,6 °C 0,0 km/h (0 Bft)
26.10.2016 02:35 9,2 °C 9,2 °C 96 % 1023,2 hPa 0,0 mm 0,0 km/h (0 Bft) NO 52 ° 0 min 0,000 mm 0,0 UV-I 0 W/m² 8,6 °C 0,0 km/h (0 Bft)
26.10.2016 02:36 9,2 °C 9,2 °C 96 % 1023,2 hPa 0,0 mm 0,0 km/h (0 Bft) NO 52 ° 0 min 0,000 mm 0,0 UV-I 0 W/m² 8,6 °C 0,0 km/h (0 Bft)
26.10.2016 02:37 9,2 °C 9,2 °C 96 % 1023,2 hPa 0,0 mm 0,0 km/h (0 Bft) NO 52 ° 0 min 0,000 mm 0,0 UV-I 0 W/m² 8,6 °C 0,0 km/h (0 Bft)
26.10.2016 02:38 9,2 °C 9,2 °C 96 % 1023,2 hPa 0,0 mm 0,0 km/h (0 Bft) NO 52 ° 0 min 0,000 mm 0,0 UV-I 0 W/m² 8,6 °C 0,0 km/h (0 Bft)
26.10.2016 02:39 9,2 °C 9,2 °C 96 % 1023,2 hPa 0,0 mm 0,0 km/h (0 Bft) NO 52 ° 0 min 0,000 mm 0,0 UV-I 0 W/m² 8,6 °C 0,0 km/h (0 Bft)
26.10.2016 02:40 9,2 °C 9,2 °C 96 % 1023,3 hPa 0,0 mm 0,0 km/h (0 Bft) NO 52 ° 0 min 0,000 mm 0,0 UV-I 0 W/m² 8,6 °C 0,0 km/h (0 Bft)
26.10.2016 02:41 9,2 °C 9,2 °C 96 % 1023,2 hPa 0,0 mm 0,0 km/h (0 Bft) NO 52 ° 0 min 0,000 mm 0,0 UV-I 0 W/m² 8,6 °C 0,0 km/h (0 Bft)
26.10.2016 02:42 9,2 °C 9,2 °C 96 % 1023,2 hPa 0,0 mm 0,0 km/h (0 Bft) NO 52 ° 0 min 0,000 mm 0,0 UV-I 0 W/m² 8,6 °C 0,0 km/h (0 Bft)
26.10.2016 02:43 9,2 °C 9,2 °C 96 % 1023,3 hPa 0,0 mm 0,0 km/h (0 Bft) NO 52 ° 0 min 0,000 mm 0,0 UV-I 0 W/m² 8,6 °C 0,0 km/h (0 Bft)
26.10.2016 02:44 9,2 °C 9,2 °C 96 % 1023,3 hPa 0,0 mm 0,0 km/h (0 Bft) NO 52 ° 0 min 0,000 mm 0,0 UV-I 0 W/m² 8,6 °C 0,0 km/h (0 Bft)
26.10.2016 02:45 9,2 °C 9,2 °C 96 % 1023,3 hPa 0,0 mm 0,0 km/h (0 Bft) NO 52 ° 0 min 0,000 mm 0,0 UV-I 0 W/m² 8,6 °C 0,0 km/h (0 Bft)
26.10.2016 02:46 9,2 °C 9,2 °C 96 % 1023,3 hPa 0,0 mm 0,0 km/h (0 Bft) NO 52 ° 0 min 0,000 mm 0,0 UV-I 0 W/m² 8,6 °C 0,0 km/h (0 Bft)
26.10.2016 02:47 9,2 °C 9,2 °C 96 % 1023,3 hPa 0,0 mm 0,0 km/h (0 Bft) NO 52 ° 0 min 0,000 mm 0,0 UV-I 0 W/m² 8,6 °C 0,0 km/h (0 Bft)
26.10.2016 02:48 9,2 °C 9,2 °C 96 % 1023,3 hPa 0,0 mm 0,0 km/h (0 Bft) NO 52 ° 0 min 0,000 mm 0,0 UV-I 0 W/m² 8,6 °C 0,0 km/h (0 Bft)
26.10.2016 02:49 9,2 °C 9,2 °C 96 % 1023,3 hPa 0,0 mm 0,0 km/h (0 Bft) NO 52 ° 0 min 0,000 mm 0,0 UV-I 0 W/m² 8,6 °C 0,0 km/h (0 Bft)
26.10.2016 02:50 9,2 °C 9,2 °C 96 % 1023,3 hPa 0,0 mm 0,0 km/h (0 Bft) NO 52 ° 0 min 0,000 mm 0,0 UV-I 0 W/m² 8,6 °C 0,0 km/h (0 Bft)
26.10.2016 02:51 9,2 °C 9,2 °C 96 % 1023,3 hPa 0,0 mm 0,0 km/h (0 Bft) NO 52 ° 0 min 0,000 mm 0,0 UV-I 0 W/m² 8,6 °C 0,0 km/h (0 Bft)
26.10.2016 02:52 9,2 °C 9,2 °C 96 % 1023,3 hPa 0,0 mm 0,0 km/h (0 Bft) NO 52 ° 0 min 0,000 mm 0,0 UV-I 0 W/m² 8,6 °C 0,0 km/h (0 Bft)
26.10.2016 02:53 9,2 °C 9,2 °C 96 % 1023,3 hPa 0,2 mm 0,0 km/h (0 Bft) NO 52 ° 0 min 0,000 mm 0,0 UV-I 0 W/m² 8,6 °C 0,0 km/h (0 Bft)
26.10.2016 02:54 9,2 °C 9,2 °C 96 % 1023,3 hPa 0,0 mm 0,0 km/h (0 Bft) NO 52 ° 0 min 0,000 mm 0,0 UV-I 0 W/m² 8,6 °C 0,0 km/h (0 Bft)
26.10.2016 02:55 9,2 °C 9,2 °C 96 % 1023,3 hPa 0,0 mm 0,0 km/h (0 Bft) NO 52 ° 0 min 0,000 mm 0,0 UV-I 0 W/m² 8,6 °C 0,0 km/h (0 Bft)
26.10.2016 02:56 9,2 °C 9,2 °C 96 % 1023,3 hPa 0,0 mm 0,0 km/h (0 Bft) NO 52 ° 0 min 0,000 mm 0,0 UV-I 0 W/m² 8,6 °C 0,0 km/h (0 Bft)
26.10.2016 02:57 9,2 °C 9,2 °C 96 % 1023,4 hPa 0,0 mm 0,4 km/h (0 Bft) NO 52 ° 0 min 0,000 mm 0,0 UV-I 0 W/m² 8,6 °C 1,6 km/h (1 Bft)
26.10.2016 02:58 9,2 °C 9,2 °C 96 % 1023,4 hPa 0,0 mm 1,1 km/h (1 Bft) NO 52 ° 0 min 0,000 mm 0,0 UV-I 0 W/m² 8,6 °C 1,6 km/h (1 Bft)
26.10.2016 02:59 9,2 °C 9,2 °C 96 % 1023,4 hPa 0,0 mm 0,6 km/h (0 Bft) NO 52 ° 0 min 0,000 mm 0,0 UV-I 0 W/m² 8,6 °C 1,6 km/h (1 Bft)
26.10.2016 03:00 9,2 °C 9,2 °C 96 % 1023,4 hPa 0,0 mm 0,0 km/h (0 Bft) NO 52 ° 0 min 0,000 mm 0,0 UV-I 0 W/m² 8,6 °C 0,0 km/h (0 Bft)
26.10.2016 03:01 9,2 °C 9,2 °C 96 % 1023,4 hPa 0,0 mm 0,0 km/h (0 Bft) NO 52 ° 0 min 0,000 mm 0,0 UV-I 0 W/m² 8,6 °C 0,0 km/h (0 Bft)
26.10.2016 03:02 9,2 °C 9,2 °C 96 % 1023,4 hPa 0,0 mm 0,0 km/h (0 Bft) NO 52 ° 0 min 0,000 mm 0,0 UV-I 0 W/m² 8,6 °C 0,0 km/h (0 Bft)
26.10.2016 03:03 9,2 °C 9,2 °C 96 % 1023,3 hPa 0,0 mm 0,2 km/h (0 Bft) NO 52 ° 0 min 0,000 mm 0,0 UV-I 0 W/m² 8,6 °C 1,6 km/h (1 Bft)
26.10.2016 03:04 9,2 °C 9,2 °C 96 % 1023,3 hPa 0,0 mm 1,4 km/h (1 Bft) NO 52 ° 0 min 0,000 mm 0,0 UV-I 0 W/m² 8,6 °C 1,6 km/h (1 Bft)
26.10.2016 03:05 9,2 °C 9,2 °C 96 % 1023,3 hPa 0,0 mm 0,7 km/h (0 Bft) NO 52 ° 0 min 0,000 mm 0,0 UV-I 0 W/m² 8,6 °C 1,6 km/h (1 Bft)
26.10.2016 03:06 9,2 °C 9,2 °C 96 % 1023,2 hPa 0,0 mm 0,0 km/h (0 Bft) NO 52 ° 0 min 0,000 mm 0,0 UV-I 0 W/m² 8,6 °C 0,0 km/h (0 Bft)
26.10.2016 03:07 9,2 °C 9,2 °C 96 % 1023,3 hPa 0,0 mm 0,4 km/h (0 Bft) NO 52 ° 0 min 0,000 mm 0,0 UV-I 0 W/m² 8,6 °C 1,6 km/h (1 Bft)
26.10.2016 03:08 9,2 °C 9,2 °C 96 % 1023,3 hPa 0,2 mm 1,7 km/h (1 Bft) NO 52 ° 0 min 0,000 mm 0,0 UV-I 0 W/m² 8,6 °C 3,2 km/h (1 Bft)
26.10.2016 03:09 9,2 °C 9,3 °C 96 % 1023,3 hPa 0,0 mm 1,3 km/h (1 Bft) NO 52 ° 0 min 0,000 mm 0,0 UV-I 0 W/m² 8,6 °C 3,2 km/h (1 Bft)
26.10.2016 03:10 9,3 °C 9,3 °C 96 % 1023,3 hPa 0,0 mm 2,1 km/h (1 Bft) NO 52 ° 0 min 0,000 mm 0,0 UV-I 0 W/m² 8,7 °C 3,2 km/h (1 Bft)
26.10.2016 03:11 9,2 °C 9,3 °C 96 % 1023,3 hPa 0,0 mm 1,1 km/h (1 Bft) NO 52 ° 0 min 0,000 mm 0,0 UV-I 0 W/m² 8,6 °C 1,6 km/h (1 Bft)
26.10.2016 03:12 9,2 °C 9,2 °C 96 % 1023,3 hPa 0,0 mm 0,3 km/h (0 Bft) NO 52 ° 0 min 0,000 mm 0,0 UV-I 0 W/m² 8,6 °C 1,6 km/h (1 Bft)
26.10.2016 03:13 9,2 °C 9,2 °C 96 % 1023,3 hPa 0,0 mm 0,9 km/h (0 Bft) NO 52 ° 0 min 0,000 mm 0,0 UV-I 0 W/m² 8,6 °C 1,6 km/h (1 Bft)
26.10.2016 03:14 9,2 °C 9,3 °C 96 % 1023,3 hPa 0,0 mm 0,5 km/h (0 Bft) NO 52 ° 0 min 0,000 mm 0,0 UV-I 0 W/m² 8,6 °C 1,6 km/h (1 Bft)
26.10.2016 03:15 9,2 °C 9,3 °C 96 % 1023,4 hPa 0,0 mm 0,0 km/h (0 Bft) NO 52 ° 0 min 0,000 mm 0,0 UV-I 0 W/m² 8,6 °C 0,0 km/h (0 Bft)
26.10.2016 03:16 9,2 °C 9,3 °C 96 % 1023,4 hPa 0,0 mm 2,0 km/h (1 Bft) NO 52 ° 0 min 0,000 mm 0,0 UV-I 0 W/m² 8,6 °C 3,2 km/h (1 Bft)
26.10.2016 03:17 9,3 °C 9,3 °C 96 % 1023,4 hPa 0,0 mm 1,2 km/h (1 Bft) NO 52 ° 0 min 0,000 mm 0,0 UV-I 0 W/m² 8,7 °C 1,6 km/h (1 Bft)
26.10.2016 03:18 9,2 °C 9,3 °C 96 % 1023,4 hPa 0,0 mm 1,3 km/h (1 Bft) NO 52 ° 0 min 0,000 mm 0,0 UV-I 0 W/m² 8,6 °C 1,6 km/h (1 Bft)
26.10.2016 03:19 9,2 °C 9,2 °C 96 % 1023,4 hPa 0,0 mm 0,8 km/h (0 Bft) NO 52 ° 0 min 0,000 mm 0,0 UV-I 0 W/m² 8,6 °C 1,6 km/h (1 Bft)
26.10.2016 03:20 9,3 °C 9,3 °C 96 % 1023,4 hPa 0,0 mm 0,0 km/h (0 Bft) NO 52 ° 0 min 0,000 mm 0,0 UV-I 0 W/m² 8,7 °C 0,0 km/h (0 Bft)
26.10.2016 03:21 9,3 °C 9,3 °C 96 % 1023,4 hPa 0,0 mm 0,0 km/h (0 Bft) NO 52 ° 0 min 0,000 mm 0,0 UV-I 0 W/m² 8,7 °C 0,0 km/h (0 Bft)
26.10.2016 03:22 9,2 °C 9,3 °C 96 % 1023,4 hPa 0,0 mm 0,3 km/h (0 Bft) NO 52 ° 0 min 0,000 mm 0,0 UV-I 0 W/m² 8,6 °C 1,6 km/h (1 Bft)
26.10.2016 03:23 9,2 °C 9,3 °C 96 % 1023,5 hPa 0,0 mm 1,2 km/h (1 Bft) NO 52 ° 0 min 0,000 mm 0,0 UV-I 0 W/m² 8,6 °C 1,6 km/h (1 Bft)
26.10.2016 03:24 9,2 °C 9,3 °C 96 % 1023,4 hPa 0,0 mm 0,3 km/h (0 Bft) NO 52 ° 0 min 0,000 mm 0,0 UV-I 0 W/m² 8,6 °C 1,6 km/h (1 Bft)
26.10.2016 03:25 9,3 °C 9,3 °C 96 % 1023,4 hPa 0,0 mm 0,1 km/h (0 Bft) NO 52 ° 0 min 0,000 mm 0,0 UV-I 0 W/m² 8,7 °C 1,6 km/h (1 Bft)
26.10.2016 03:26 9,2 °C 9,3 °C 96 % 1023,5 hPa 0,0 mm 0,8 km/h (0 Bft) NO 52 ° 0 min 0,000 mm 0,0 UV-I 0 W/m² 8,6 °C 1,6 km/h (1 Bft)
26.10.2016 03:27 9,3 °C 9,3 °C 96 % 1023,5 hPa 0,0 mm 0,7 km/h (0 Bft) NO 52 ° 0 min 0,000 mm 0,0 UV-I 0 W/m² 8,7 °C 1,6 km/h (1 Bft)
26.10.2016 03:28 9,3 °C 9,3 °C 96 % 1023,4 hPa 0,0 mm 0,3 km/h (0 Bft) NO 52 ° 0 min 0,000 mm 0,0 UV-I 0 W/m² 8,7 °C 1,6 km/h (1 Bft)
26.10.2016 03:29 9,2 °C 9,3 °C 96 % 1023,4 hPa 0,0 mm 0,0 km/h (0 Bft) NO 52 ° 0 min 0,000 mm 0,0 UV-I 0 W/m² 8,6 °C 0,0 km/h (0 Bft)
26.10.2016 03:30 9,3 °C 9,3 °C 96 % 1023,4 hPa 0,0 mm 0,1 km/h (0 Bft) NO 52 ° 0 min 0,000 mm 0,0 UV-I 0 W/m² 8,7 °C 1,6 km/h (1 Bft)
26.10.2016 03:31 9,3 °C 9,3 °C 96 % 1023,4 hPa 0,0 mm 0,2 km/h (0 Bft) NO 52 ° 0 min 0,000 mm 0,0 UV-I 0 W/m² 8,7 °C 1,6 km/h (1 Bft)
26.10.2016 03:32 9,3 °C 9,3 °C 96 % 1023,4 hPa 0,0 mm 0,0 km/h (0 Bft) NO 52 ° 0 min 0,000 mm 0,0 UV-I 0 W/m² 8,7 °C 0,0 km/h (0 Bft)
26.10.2016 03:33 9,3 °C 9,3 °C 96 % 1023,4 hPa 0,0 mm 0,0 km/h (0 Bft) NO 52 ° 0 min 0,000 mm 0,0 UV-I 0 W/m² 8,7 °C 0,0 km/h (0 Bft)
26.10.2016 03:34 9,3 °C 9,3 °C 96 % 1023,4 hPa 0,0 mm 0,5 km/h (0 Bft) NO 52 ° 0 min 0,000 mm 0,0 UV-I 0 W/m² 8,7 °C 1,6 km/h (1 Bft)
26.10.2016 03:35 9,3 °C 9,3 °C 96 % 1023,4 hPa 0,0 mm 0,7 km/h (0 Bft) NO 52 ° 0 min 0,000 mm 0,0 UV-I 0 W/m² 8,7 °C 1,6 km/h (1 Bft)
26.10.2016 03:36 9,3 °C 9,3 °C 96 % 1023,4 hPa 0,0 mm 0,2 km/h (0 Bft) NO 52 ° 0 min 0,000 mm 0,0 UV-I 0 W/m² 8,7 °C 1,6 km/h (1 Bft)
26.10.2016 03:37 9,3 °C 9,3 °C 96 % 1023,4 hPa 0,0 mm 0,5 km/h (0 Bft) NO 52 ° 0 min 0,000 mm 0,0 UV-I 0 W/m² 8,7 °C 1,6 km/h (1 Bft)
26.10.2016 03:38 9,2 °C 9,3 °C 96 % 1023,5 hPa 0,0 mm 0,0 km/h (0 Bft) NO 52 ° 0 min 0,000 mm 0,0 UV-I 0 W/m² 8,6 °C 0,0 km/h (0 Bft)
26.10.2016 03:39 9,3 °C 9,3 °C 96 % 1023,4 hPa 0,0 mm 0,0 km/h (0 Bft) NO 52 ° 0 min 0,000 mm 0,0 UV-I 0 W/m² 8,7 °C 0,0 km/h (0 Bft)
26.10.2016 03:40 9,3 °C 9,3 °C 96 % 1023,5 hPa 0,0 mm 0,0 km/h (0 Bft) NO 52 ° 0 min 0,000 mm 0,0 UV-I 0 W/m² 8,7 °C 0,0 km/h (0 Bft)
26.10.2016 03:41 9,3 °C 9,3 °C 96 % 1023,5 hPa 0,0 mm 0,0 km/h (0 Bft) NO 52 ° 0 min 0,000 mm 0,0 UV-I 0 W/m² 8,7 °C 0,0 km/h (0 Bft)
26.10.2016 03:42 9,2 °C 9,3 °C 96 % 1023,5 hPa 0,0 mm 0,0 km/h (0 Bft) NO 52 ° 0 min 0,000 mm 0,0 UV-I 0 W/m² 8,6 °C 0,0 km/h (0 Bft)
26.10.2016 03:43 9,3 °C 9,3 °C 96 % 1023,5 hPa 0,0 mm 0,0 km/h (0 Bft) NO 52 ° 0 min 0,000 mm 0,0 UV-I 0 W/m² 8,7 °C 0,0 km/h (0 Bft)
26.10.2016 03:44 9,2 °C 9,3 °C 96 % 1023,5 hPa 0,0 mm 0,1 km/h (0 Bft) NO 52 ° 0 min 0,000 mm 0,0 UV-I 0 W/m² 8,6 °C 1,6 km/h (1 Bft)
26.10.2016 03:45 9,3 °C 9,3 °C 96 % 1023,5 hPa 0,0 mm 0,1 km/h (0 Bft) NO 52 ° 0 min 0,000 mm 0,0 UV-I 0 W/m² 8,7 °C 1,6 km/h (1 Bft)
26.10.2016 03:46 9,2 °C 9,3 °C 96 % 1023,5 hPa 0,0 mm 0,0 km/h (0 Bft) NO 52 ° 0 min 0,000 mm 0,0 UV-I 0 W/m² 8,6 °C 0,0 km/h (0 Bft)
26.10.2016 03:47 9,3 °C 9,3 °C 96 % 1023,5 hPa 0,0 mm 0,0 km/h (0 Bft) NO 52 ° 0 min 0,000 mm 0,0 UV-I 0 W/m² 8,7 °C 0,0 km/h (0 Bft)
26.10.2016 03:48 9,3 °C 9,3 °C 96 % 1023,4 hPa 0,0 mm 0,0 km/h (0 Bft) NO 52 ° 0 min 0,000 mm 0,0 UV-I 0 W/m² 8,7 °C 0,0 km/h (0 Bft)
26.10.2016 03:49 9,3 °C 9,3 °C 96 % 1023,4 hPa 0,2 mm 0,0 km/h (0 Bft) NO 52 ° 0 min 0,000 mm 0,0 UV-I 0 W/m² 8,7 °C 0,0 km/h (0 Bft)
26.10.2016 03:50 9,3 °C 9,3 °C 96 % 1023,4 hPa 0,0 mm 0,0 km/h (0 Bft) NO 52 ° 0 min 0,000 mm 0,0 UV-I 0 W/m² 8,7 °C 0,0 km/h (0 Bft)
26.10.2016 03:51 9,3 °C 9,3 °C 96 % 1023,5 hPa 0,0 mm 0,1 km/h (0 Bft) NO 52 ° 0 min 0,000 mm 0,0 UV-I 0 W/m² 8,7 °C 1,6 km/h (1 Bft)
26.10.2016 03:52 9,3 °C 9,3 °C 96 % 1023,4 hPa 0,0 mm 0,3 km/h (0 Bft) NO 52 ° 0 min 0,000 mm 0,0 UV-I 0 W/m² 8,7 °C 1,6 km/h (1 Bft)
26.10.2016 03:53 9,3 °C 9,3 °C 96 % 1023,4 hPa 0,0 mm 0,1 km/h (0 Bft) NO 52 ° 0 min 0,000 mm 0,0 UV-I 0 W/m² 8,7 °C 1,6 km/h (1 Bft)
26.10.2016 03:54 9,3 °C 9,3 °C 97 % 1023,4 hPa 0,0 mm 0,3 km/h (0 Bft) NO 52 ° 0 min 0,000 mm 0,0 UV-I 0 W/m² 8,8 °C 1,6 km/h (1 Bft)
26.10.2016 03:55 9,3 °C 9,3 °C 96 % 1023,4 hPa 0,0 mm 0,0 km/h (0 Bft) NO 52 ° 0 min 0,000 mm 0,0 UV-I 0 W/m² 8,7 °C 0,0 km/h (0 Bft)
26.10.2016 03:56 9,3 °C 9,3 °C 96 % 1023,4 hPa 0,0 mm 0,0 km/h (0 Bft) NO 52 ° 0 min 0,000 mm 0,0 UV-I 0 W/m² 8,7 °C 0,0 km/h (0 Bft)
26.10.2016 03:57 9,3 °C 9,3 °C 96 % 1023,4 hPa 0,0 mm 0,0 km/h (0 Bft) NO 52 ° 0 min 0,000 mm 0,0 UV-I 0 W/m² 8,7 °C 0,0 km/h (0 Bft)
26.10.2016 03:58 9,3 °C 9,3 °C 96 % 1023,5 hPa 0,2 mm 0,1 km/h (0 Bft) NO 52 ° 0 min 0,000 mm 0,0 UV-I 0 W/m² 8,7 °C 1,6 km/h (1 Bft)
26.10.2016 03:59 9,3 °C 9,3 °C 96 % 1023,5 hPa 0,0 mm 0,9 km/h (0 Bft) NO 52 ° 0 min 0,000 mm 0,0 UV-I 0 W/m² 8,7 °C 1,6 km/h (1 Bft)
26.10.2016 04:00 9,3 °C 9,3 °C 96 % 1023,4 hPa 0,0 mm 0,4 km/h (0 Bft) NO 52 ° 0 min 0,000 mm 0,0 UV-I 0 W/m² 8,7 °C 1,6 km/h (1 Bft)
26.10.2016 04:01 9,3 °C 9,3 °C 96 % 1023,5 hPa 0,0 mm 0,2 km/h (0 Bft) NO 52 ° 0 min 0,000 mm 0,0 UV-I 0 W/m² 8,7 °C 1,6 km/h (1 Bft)
26.10.2016 04:02 9,3 °C 9,3 °C 96 % 1023,5 hPa 0,0 mm 1,3 km/h (1 Bft) NO 52 ° 0 min 0,000 mm 0,0 UV-I 0 W/m² 8,7 °C 3,2 km/h (1 Bft)
26.10.2016 04:03 9,3 °C 9,3 °C 96 % 1023,5 hPa 0,0 mm 0,3 km/h (0 Bft) NO 52 ° 0 min 0,000 mm 0,0 UV-I 0 W/m² 8,7 °C 1,6 km/h (1 Bft)
26.10.2016 04:04 9,2 °C 9,3 °C 96 % 1023,5 hPa 0,0 mm 0,0 km/h (0 Bft) NO 52 ° 0 min 0,000 mm 0,0 UV-I 0 W/m² 8,6 °C 0,0 km/h (0 Bft)
26.10.2016 04:05 9,2 °C 9,3 °C 96 % 1023,5 hPa 0,0 mm 0,1 km/h (0 Bft) NO 52 ° 0 min 0,000 mm 0,0 UV-I 0 W/m² 8,6 °C 1,6 km/h (1 Bft)
26.10.2016 04:06 9,2 °C 9,3 °C 96 % 1023,5 hPa 0,0 mm 0,1 km/h (0 Bft) NO 52 ° 0 min 0,000 mm 0,0 UV-I 0 W/m² 8,6 °C 1,6 km/h (1 Bft)
26.10.2016 04:07 9,2 °C 9,3 °C 96 % 1023,5 hPa 0,0 mm 0,3 km/h (0 Bft) NO 52 ° 0 min 0,000 mm 0,0 UV-I 0 W/m² 8,6 °C 1,6 km/h (1 Bft)
26.10.2016 04:08 9,2 °C 9,3 °C 96 % 1023,4 hPa 0,0 mm 0,0 km/h (0 Bft) NO 52 ° 0 min 0,000 mm 0,0 UV-I 0 W/m² 8,6 °C 0,0 km/h (0 Bft)
26.10.2016 04:09 9,2 °C 9,2 °C 96 % 1023,4 hPa 0,0 mm 0,0 km/h (0 Bft) N 0 ° 0 min 0,000 mm 0,0 UV-I 0 W/m² 8,6 °C 0,0 km/h (0 Bft)
26.10.2016 04:10 9,3 °C 9,3 °C 96 % 1023,3 hPa 0,0 mm 1,6 km/h (1 Bft) NO 45 ° 0 min 0,000 mm 0,0 UV-I 0 W/m² 8,7 °C 3,2 km/h (1 Bft)
26.10.2016 04:12 9,2 °C 9,3 °C 96 % 1023,4 hPa 0,0 mm 0,0 km/h (0 Bft) NO 52 ° 0 min 0,000 mm 0,0 UV-I 0 W/m² 8,6 °C 0,0 km/h (0 Bft)
26.10.2016 04:13 9,3 °C 9,3 °C 96 % 1023,4 hPa 0,0 mm 0,0 km/h (0 Bft) NO 52 ° 0 min 0,000 mm 0,0 UV-I 0 W/m² 8,7 °C 0,0 km/h (0 Bft)
26.10.2016 04:14 9,2 °C 9,3 °C 96 % 1023,4 hPa 0,0 mm 0,5 km/h (0 Bft) NO 52 ° 0 min 0,000 mm 0,0 UV-I 0 W/m² 8,6 °C 1,6 km/h (1 Bft)
26.10.2016 04:15 9,3 °C 9,3 °C 96 % 1023,4 hPa 0,0 mm 1,5 km/h (1 Bft) NO 52 ° 0 min 0,000 mm 0,0 UV-I 0 W/m² 8,7 °C 3,2 km/h (1 Bft)
26.10.2016 04:16 9,3 °C 9,3 °C 96 % 1023,4 hPa 0,2 mm 1,1 km/h (1 Bft) NO 52 ° 0 min 0,000 mm 0,0 UV-I 0 W/m² 8,7 °C 1,6 km/h (1 Bft)
26.10.2016 04:17 9,3 °C 9,3 °C 96 % 1023,4 hPa 0,0 mm 2,5 km/h (1 Bft) O 94 ° 0 min 0,000 mm 0,0 UV-I 0 W/m² 8,7 °C 3,2 km/h (1 Bft)
26.10.2016 04:18 9,3 °C 9,3 °C 96 % 1023,4 hPa 0,0 mm 0,8 km/h (0 Bft) O 94 ° 0 min 0,000 mm 0,0 UV-I 0 W/m² 8,7 °C 3,2 km/h (1 Bft)
26.10.2016 04:19 9,3 °C 9,3 °C 96 % 1023,4 hPa 0,0 mm 0,2 km/h (0 Bft) O 94 ° 0 min 0,000 mm 0,0 UV-I 0 W/m² 8,7 °C 1,6 km/h (1 Bft)
26.10.2016 04:20 9,2 °C 9,3 °C 96 % 1023,4 hPa 0,0 mm 1,7 km/h (1 Bft) O 94 ° 0 min 0,000 mm 0,0 UV-I 0 W/m² 8,6 °C 3,2 km/h (1 Bft)
26.10.2016 04:21 9,3 °C 9,3 °C 96 % 1023,4 hPa 0,0 mm 1,8 km/h (1 Bft) O 94 ° 0 min 0,000 mm 0,0 UV-I 0 W/m² 8,7 °C 3,2 km/h (1 Bft)
26.10.2016 04:22 9,3 °C 9,3 °C 96 % 1023,4 hPa 0,0 mm 0,5 km/h (0 Bft) O 94 ° 0 min 0,000 mm 0,0 UV-I 0 W/m² 8,7 °C 1,6 km/h (1 Bft)
26.10.2016 04:23 9,3 °C 9,3 °C 96 % 1023,5 hPa 0,0 mm 1,5 km/h (1 Bft) O 86 ° 0 min 0,000 mm 0,0 UV-I 0 W/m² 8,7 °C 3,2 km/h (1 Bft)
26.10.2016 04:24 9,3 °C 9,3 °C 96 % 1023,5 hPa 0,0 mm 0,5 km/h (0 Bft) O 86 ° 0 min 0,000 mm 0,0 UV-I 0 W/m² 8,7 °C 1,6 km/h (1 Bft)
26.10.2016 04:25 9,3 °C 9,3 °C 96 % 1023,5 hPa 0,0 mm 1,8 km/h (1 Bft) NO 51 ° 0 min 0,000 mm 0,0 UV-I 0 W/m² 8,7 °C 3,2 km/h (1 Bft)
26.10.2016 04:26 9,3 °C 9,3 °C 96 % 1023,5 hPa 0,0 mm 0,8 km/h (0 Bft) NO 51 ° 0 min 0,000 mm 0,0 UV-I 0 W/m² 8,7 °C 1,6 km/h (1 Bft)
26.10.2016 04:27 9,3 °C 9,3 °C 96 % 1023,5 hPa 0,0 mm 0,1 km/h (0 Bft) NO 51 ° 0 min 0,000 mm 0,0 UV-I 0 W/m² 8,7 °C 1,6 km/h (1 Bft)
26.10.2016 04:28 9,3 °C 9,3 °C 96 % 1023,5 hPa 0,0 mm 1,8 km/h (1 Bft) NO 51 ° 0 min 0,000 mm 0,0 UV-I 0 W/m² 8,7 °C 3,2 km/h (1 Bft)
26.10.2016 04:29 9,3 °C 9,3 °C 96 % 1023,5 hPa 0,0 mm 1,1 km/h (1 Bft) NO 51 ° 0 min 0,000 mm 0,0 UV-I 0 W/m² 8,7 °C 3,2 km/h (1 Bft)
26.10.2016 04:30 9,3 °C 9,3 °C 96 % 1023,5 hPa 0,0 mm 0,1 km/h (0 Bft) NO 51 ° 0 min 0,000 mm 0,0 UV-I 0 W/m² 8,7 °C 1,6 km/h (1 Bft)
26.10.2016 04:31 9,3 °C 9,3 °C 96 % 1023,5 hPa 0,0 mm 1,8 km/h (1 Bft) NO 51 ° 0 min 0,000 mm 0,0 UV-I 0 W/m² 8,7 °C 3,2 km/h (1 Bft)
26.10.2016 04:32 9,3 °C 9,3 °C 96 % 1023,5 hPa 0,0 mm 1,7 km/h (1 Bft) NO 51 ° 0 min 0,000 mm 0,0 UV-I 0 W/m² 8,7 °C 3,2 km/h (1 Bft)
26.10.2016 04:33 9,3 °C 9,3 °C 96 % 1023,6 hPa 0,0 mm 0,4 km/h (0 Bft) NO 51 ° 0 min 0,000 mm 0,0 UV-I 0 W/m² 8,7 °C 1,6 km/h (1 Bft)
26.10.2016 04:34 9,3 °C 9,3 °C 96 % 1023,6 hPa 0,0 mm 0,0 km/h (0 Bft) NO 51 ° 0 min 0,000 mm 0,0 UV-I 0 W/m² 8,7 °C 0,0 km/h (0 Bft)
26.10.2016 04:35 9,3 °C 9,3 °C 96 % 1023,6 hPa 0,0 mm 0,8 km/h (0 Bft) NO 51 ° 0 min 0,000 mm 0,0 UV-I 0 W/m² 8,7 °C 1,6 km/h (1 Bft)
26.10.2016 04:36 9,3 °C 9,3 °C 96 % 1023,6 hPa 0,0 mm 1,8 km/h (1 Bft) NO 51 ° 0 min 0,000 mm 0,0 UV-I 0 W/m² 8,7 °C 3,2 km/h (1 Bft)
26.10.2016 04:37 9,3 °C 9,3 °C 96 % 1023,6 hPa 0,0 mm 2,6 km/h (1 Bft) O-SO 112 ° 0 min 0,000 mm 0,0 UV-I 0 W/m² 8,7 °C 4,8 km/h (1 Bft)
26.10.2016 04:38 9,3 °C 9,3 °C 96 % 1023,6 hPa 0,0 mm 3,1 km/h (1 Bft) O 96 ° 0 min 0,000 mm 0,0 UV-I 0 W/m² 8,7 °C 4,8 km/h (1 Bft)
26.10.2016 04:39 9,3 °C 9,3 °C 96 % 1023,7 hPa 0,0 mm 1,5 km/h (1 Bft) O 96 ° 0 min 0,000 mm 0,0 UV-I 0 W/m² 8,7 °C 3,2 km/h (1 Bft)
26.10.2016 04:40 9,3 °C 9,3 °C 96 % 1023,7 hPa 0,0 mm 0,4 km/h (0 Bft) O 96 ° 0 min 0,000 mm 0,0 UV-I 0 W/m² 8,7 °C 1,6 km/h (1 Bft)
26.10.2016 04:41 9,3 °C 9,3 °C 96 % 1023,7 hPa 0,0 mm 0,6 km/h (0 Bft) O 96 ° 0 min 0,000 mm 0,0 UV-I 0 W/m² 8,7 °C 1,6 km/h (1 Bft)
26.10.2016 04:42 9,3 °C 9,3 °C 96 % 1023,7 hPa 0,0 mm 0,0 km/h (0 Bft) O 96 ° 0 min 0,000 mm 0,0 UV-I 0 W/m² 8,7 °C 0,0 km/h (0 Bft)
26.10.2016 04:43 9,3 °C 9,3 °C 96 % 1023,7 hPa 0,0 mm 1,5 km/h (1 Bft) O 96 ° 0 min 0,000 mm 0,0 UV-I 0 W/m² 8,7 °C 3,2 km/h (1 Bft)
26.10.2016 04:44 9,3 °C 9,3 °C 96 % 1023,7 hPa 0,0 mm 2,1 km/h (1 Bft) O-NO 73 ° 0 min 0,000 mm 0,0 UV-I 0 W/m² 8,7 °C 3,2 km/h (1 Bft)
26.10.2016 04:45 9,3 °C 9,3 °C 96 % 1023,7 hPa 0,0 mm 2,4 km/h (1 Bft) O-NO 73 ° 0 min 0,000 mm 0,0 UV-I 0 W/m² 8,7 °C 4,8 km/h (1 Bft)
26.10.2016 04:46 9,3 °C 9,3 °C 96 % 1023,7 hPa 0,0 mm 1,9 km/h (1 Bft) O-NO 73 ° 0 min 0,000 mm 0,0 UV-I 0 W/m² 8,7 °C 3,2 km/h (1 Bft)
26.10.2016 04:47 9,3 °C 9,3 °C 96 % 1023,7 hPa 0,0 mm 3,9 km/h (1 Bft) O-NO 78 ° 0 min 0,000 mm 0,0 UV-I 0 W/m² 8,7 °C 8,0 km/h (2 Bft)
26.10.2016 04:48 9,3 °C 9,3 °C 96 % 1023,7 hPa 0,0 mm 4,7 km/h (1 Bft) O 80 ° 0 min 0,000 mm 0,0 UV-I 0 W/m² 8,7 °C 6,4 km/h (2 Bft)
26.10.2016 04:49 9,3 °C 9,3 °C 96 % 1023,7 hPa 0,0 mm 2,8 km/h (1 Bft) NO 50 ° 0 min 0,000 mm 0,0 UV-I 0 W/m² 8,7 °C 4,8 km/h (1 Bft)
26.10.2016 04:50 9,3 °C 9,3 °C 96 % 1023,7 hPa 0,0 mm 3,7 km/h (1 Bft) NO 54 ° 0 min 0,000 mm 0,0 UV-I 0 W/m² 8,7 °C 4,8 km/h (1 Bft)
26.10.2016 04:51 9,3 °C 9,3 °C 96 % 1023,6 hPa 0,0 mm 2,5 km/h (1 Bft) NO 53 ° 0 min 0,000 mm 0,0 UV-I 0 W/m² 8,7 °C 4,8 km/h (1 Bft)
26.10.2016 04:52 9,3 °C 9,3 °C 96 % 1023,6 hPa 0,0 mm 1,8 km/h (1 Bft) O-NO 60 ° 0 min 0,000 mm 0,0 UV-I 0 W/m² 8,7 °C 4,8 km/h (1 Bft)
26.10.2016 04:53 9,3 °C 9,3 °C 96 % 1023,6 hPa 0,0 mm 2,5 km/h (1 Bft) NO 45 ° 0 min 0,000 mm 0,0 UV-I 0 W/m² 8,7 °C 4,8 km/h (1 Bft)
26.10.2016 04:54 9,3 °C 9,3 °C 96 % 1023,6 hPa 0,0 mm 3,4 km/h (1 Bft) O-NO 61 ° 0 min 0,000 mm 0,0 UV-I 0 W/m² 8,7 °C 6,4 km/h (2 Bft)
26.10.2016 04:55 9,3 °C 9,3 °C 96 % 1023,6 hPa 0,2 mm 4,7 km/h (1 Bft) NO 42 ° 0 min 0,000 mm 0,0 UV-I 0 W/m² 8,7 °C 8,0 km/h (2 Bft)
26.10.2016 04:56 9,3 °C 9,3 °C 96 % 1023,6 hPa 0,0 mm 5,4 km/h (1 Bft) NO 47 ° 0 min 0,000 mm 0,0 UV-I 0 W/m² 8,7 °C 6,4 km/h (2 Bft)
26.10.2016 04:57 9,3 °C 9,3 °C 96 % 1023,6 hPa 0,0 mm 4,3 km/h (1 Bft) NO 56 ° 0 min 0,000 mm 0,0 UV-I 0 W/m² 8,7 °C 6,4 km/h (2 Bft)
26.10.2016 04:58 9,3 °C 9,3 °C 96 % 1023,7 hPa 0,0 mm 4,1 km/h (1 Bft) NO 45 ° 0 min 0,000 mm 0,0 UV-I 0 W/m² 8,7 °C 6,4 km/h (2 Bft)
26.10.2016 04:59 9,3 °C 9,3 °C 96 % 1023,7 hPa 0,0 mm 4,4 km/h (1 Bft) O-NO 57 ° 0 min 0,000 mm 0,0 UV-I 0 W/m² 8,7 °C 6,4 km/h (2 Bft)
26.10.2016 05:00 9,3 °C 9,3 °C 96 % 1023,7 hPa 0,0 mm 2,4 km/h (1 Bft) N-NO 31 ° 0 min 0,000 mm 0,0 UV-I 0 W/m² 8,7 °C 4,8 km/h (1 Bft)
26.10.2016 05:01 9,3 °C 9,3 °C 96 % 1023,7 hPa 0,2 mm 5,4 km/h (1 Bft) N-NO 18 ° 0 min 0,000 mm 0,0 UV-I 0 W/m² 8,7 °C 8,0 km/h (2 Bft)
26.10.2016 05:02 9,2 °C 9,3 °C 96 % 1023,7 hPa 0,0 mm 6,6 km/h (2 Bft) O 92 ° 0 min 0,000 mm 0,0 UV-I 0 W/m² 8,6 °C 11,3 km/h (2 Bft)
26.10.2016 05:03 9,2 °C 9,2 °C 96 % 1023,7 hPa 0,0 mm 6,6 km/h (2 Bft) O-NO 78 ° 0 min 0,000 mm 0,0 UV-I 0 W/m² 8,6 °C 11,3 km/h (2 Bft)
26.10.2016 05:04 9,1 °C 9,2 °C 96 % 1023,7 hPa 0,0 mm 6,4 km/h (2 Bft) O-NO 67 ° 0 min 0,000 mm 0,0 UV-I 0 W/m² 8,5 °C 11,3 km/h (2 Bft)
26.10.2016 05:05 9,1 °C 9,1 °C 96 % 1023,6 hPa 0,0 mm 4,6 km/h (1 Bft) N-NO 25 ° 0 min 0,000 mm 0,0 UV-I 0 W/m² 8,5 °C 6,4 km/h (2 Bft)
26.10.2016 05:06 9,1 °C 9,1 °C 96 % 1023,7 hPa 0,0 mm 6,1 km/h (2 Bft) O 88 ° 0 min 0,000 mm 0,0 UV-I 0 W/m² 8,5 °C 8,0 km/h (2 Bft)
26.10.2016 05:07 9,0 °C 9,1 °C 96 % 1023,7 hPa 0,0 mm 6,6 km/h (2 Bft) O-NO 58 ° 0 min 0,000 mm 0,0 UV-I 0 W/m² 8,4 °C 8,0 km/h (2 Bft)
26.10.2016 05:08 9,0 °C 9,0 °C 96 % 1023,6 hPa 0,0 mm 4,8 km/h (1 Bft) O-NO 61 ° 0 min 0,000 mm 0,0 UV-I 0 W/m² 8,4 °C 6,4 km/h (2 Bft)
26.10.2016 05:09 8,9 °C 9,0 °C 96 % 1023,6 hPa 0,0 mm 3,3 km/h (1 Bft) O-NO 63 ° 0 min 0,000 mm 0,0 UV-I 0 W/m² 8,3 °C 6,4 km/h (2 Bft)
26.10.2016 05:10 8,9 °C 8,9 °C 96 % 1023,6 hPa 0,0 mm 4,2 km/h (1 Bft) NO 44 ° 0 min 0,000 mm 0,0 UV-I 0 W/m² 8,3 °C 6,4 km/h (2 Bft)
26.10.2016 05:11 8,9 °C 8,9 °C 96 % 1023,6 hPa 0,0 mm 4,6 km/h (1 Bft) SO 135 ° 0 min 0,000 mm 0,0 UV-I 0 W/m² 8,3 °C 8,0 km/h (2 Bft)
26.10.2016 05:12 8,9 °C 8,9 °C 96 % 1023,6 hPa 0,0 mm 3,1 km/h (1 Bft) O-NO 66 ° 0 min 0,000 mm 0,0 UV-I 0 W/m² 8,3 °C 6,4 km/h (2 Bft)
26.10.2016 05:13 8,8 °C 8,9 °C 96 % 1023,6 hPa 0,0 mm 5,5 km/h (1 Bft) O-SO 108 ° 0 min 0,000 mm 0,0 UV-I 0 W/m² 8,2 °C 12,9 km/h (3 Bft)
26.10.2016 05:14 8,8 °C 8,8 °C 96 % 1023,6 hPa 0,0 mm 4,2 km/h (1 Bft) N-NO 26 ° 0 min 0,000 mm 0,0 UV-I 0 W/m² 8,2 °C 11,3 km/h (2 Bft)
26.10.2016 05:15 8,8 °C 8,8 °C 96 % 1023,6 hPa 0,0 mm 7,1 km/h (2 Bft) O-NO 63 ° 0 min 0,000 mm 0,0 UV-I 0 W/m² 8,2 °C 11,3 km/h (2 Bft)
26.10.2016 05:16 8,8 °C 8,8 °C 96 % 1023,7 hPa 0,0 mm 5,4 km/h (1 Bft) NO 55 ° 0 min 0,000 mm 0,0 UV-I 0 W/m² 8,2 °C 8,0 km/h (2 Bft)
26.10.2016 05:17 8,8 °C 8,8 °C 96 % 1023,7 hPa 0,0 mm 3,7 km/h (1 Bft) O-NO 64 ° 0 min 0,000 mm 0,0 UV-I 0 W/m² 8,2 °C 4,8 km/h (1 Bft)
26.10.2016 05:18 8,8 °C 8,8 °C 96 % 1023,6 hPa 0,0 mm 3,9 km/h (1 Bft) NO 41 ° 0 min 0,000 mm 0,0 UV-I 0 W/m² 8,2 °C 4,8 km/h (1 Bft)
26.10.2016 05:19 8,8 °C 8,8 °C 96 % 1023,6 hPa 0,0 mm 5,8 km/h (2 Bft) O-NO 64 ° 0 min 0,000 mm 0,0 UV-I 0 W/m² 8,2 °C 8,0 km/h (2 Bft)
26.10.2016 05:20 8,8 °C 8,8 °C 96 % 1023,6 hPa 0,0 mm 3,1 km/h (1 Bft) O-NO 64 ° 0 min 0,000 mm 0,0 UV-I 0 W/m² 8,2 °C 4,8 km/h (1 Bft)
26.10.2016 05:21 8,8 °C 8,8 °C 96 % 1023,7 hPa 0,0 mm 3,2 km/h (1 Bft) NO 46 ° 0 min 0,000 mm 0,0 UV-I 0 W/m² 8,2 °C 4,8 km/h (1 Bft)
26.10.2016 05:22 8,7 °C 8,8 °C 96 % 1023,7 hPa 0,0 mm 3,5 km/h (1 Bft) O 84 ° 0 min 0,000 mm 0,0 UV-I 0 W/m² 8,1 °C 6,4 km/h (2 Bft)
26.10.2016 05:23 8,7 °C 8,7 °C 96 % 1023,7 hPa 0,0 mm 3,4 km/h (1 Bft) NO 39 ° 0 min 0,000 mm 0,0 UV-I 0 W/m² 8,1 °C 6,4 km/h (2 Bft)
26.10.2016 05:24 8,7 °C 8,8 °C 96 % 1023,8 hPa 0,0 mm 5,4 km/h (1 Bft) O-NO 62 ° 0 min 0,000 mm 0,0 UV-I 0 W/m² 8,1 °C 6,4 km/h (2 Bft)
26.10.2016 05:25 8,7 °C 8,7 °C 96 % 1023,8 hPa 0,0 mm 5,7 km/h (1 Bft) O-NO 69 ° 0 min 0,000 mm 0,0 UV-I 0 W/m² 8,1 °C 8,0 km/h (2 Bft)
26.10.2016 05:26 8,7 °C 8,7 °C 96 % 1023,7 hPa 0,0 mm 6,0 km/h (2 Bft) O 96 ° 0 min 0,000 mm 0,0 UV-I 0 W/m² 8,1 °C 8,0 km/h (2 Bft)
26.10.2016 05:27 8,7 °C 8,7 °C 96 % 1023,7 hPa 0,0 mm 4,7 km/h (1 Bft) NO 44 ° 0 min 0,000 mm 0,0 UV-I 0 W/m² 8,1 °C 6,4 km/h (2 Bft)
26.10.2016 05:28 8,7 °C 8,7 °C 96 % 1023,7 hPa 0,0 mm 5,0 km/h (1 Bft) O 94 ° 0 min 0,000 mm 0,0 UV-I 0 W/m² 8,1 °C 6,4 km/h (2 Bft)
26.10.2016 05:29 8,7 °C 8,7 °C 96 % 1023,7 hPa 0,0 mm 3,4 km/h (1 Bft) O 94 ° 0 min 0,000 mm 0,0 UV-I 0 W/m² 8,1 °C 4,8 km/h (1 Bft)
26.10.2016 05:30 8,7 °C 8,7 °C 96 % 1023,7 hPa 0,0 mm 3,6 km/h (1 Bft) O-NO 76 ° 0 min 0,000 mm 0,0 UV-I 0 W/m² 8,1 °C 6,4 km/h (2 Bft)
26.10.2016 05:31 8,6 °C 8,7 °C 96 % 1023,7 hPa 0,0 mm 4,6 km/h (1 Bft) O 88 ° 0 min 0,000 mm 0,0 UV-I 0 W/m² 8,0 °C 4,8 km/h (1 Bft)
26.10.2016 05:32 8,6 °C 8,6 °C 96 % 1023,7 hPa 0,0 mm 3,4 km/h (1 Bft) O-NO 72 ° 0 min 0,000 mm 0,0 UV-I 0 W/m² 8,0 °C 4,8 km/h (1 Bft)
26.10.2016 05:33 8,6 °C 8,6 °C 96 % 1023,7 hPa 0,0 mm 5,2 km/h (1 Bft) O 88 ° 0 min 0,000 mm 0,0 UV-I 0 W/m² 8,0 °C 6,4 km/h (2 Bft)
26.10.2016 05:34 8,6 °C 8,6 °C 96 % 1023,6 hPa 0,0 mm 4,7 km/h (1 Bft) O-NO 74 ° 0 min 0,000 mm 0,0 UV-I 0 W/m² 8,0 °C 6,4 km/h (2 Bft)
26.10.2016 05:35 8,5 °C 8,6 °C 96 % 1023,7 hPa 0,0 mm 4,6 km/h (1 Bft) O-NO 63 ° 0 min 0,000 mm 0,0 UV-I 0 W/m² 7,9 °C 8,0 km/h (2 Bft)
26.10.2016 05:36 8,5 °C 8,5 °C 96 % 1023,7 hPa 0,0 mm 3,5 km/h (1 Bft) O-NO 72 ° 0 min 0,000 mm 0,0 UV-I 0 W/m² 7,9 °C 9,7 km/h (2 Bft)
26.10.2016 05:37 8,5 °C 8,6 °C 96 % 1023,8 hPa 0,0 mm 2,9 km/h (1 Bft) O-NO 60 ° 0 min 0,000 mm 0,0 UV-I 0 W/m² 7,9 °C 4,8 km/h (1 Bft)
26.10.2016 05:38 8,5 °C 8,5 °C 96 % 1023,7 hPa 0,0 mm 4,5 km/h (1 Bft) NO 55 ° 0 min 0,000 mm 0,0 UV-I 0 W/m² 7,9 °C 6,4 km/h (2 Bft)
26.10.2016 05:39 8,4 °C 8,5 °C 96 % 1023,9 hPa 0,0 mm 4,8 km/h (1 Bft) O-NO 65 ° 0 min 0,000 mm 0,0 UV-I 0 W/m² 7,8 °C 6,4 km/h (2 Bft)
26.10.2016 05:40 8,4 °C 8,4 °C 96 % 1023,9 hPa 0,0 mm 3,6 km/h (1 Bft) O-NO 65 ° 0 min 0,000 mm 0,0 UV-I 0 W/m² 7,8 °C 4,8 km/h (1 Bft)
26.10.2016 05:41 8,4 °C 8,4 °C 96 % 1023,9 hPa 0,0 mm 3,6 km/h (1 Bft) O-SO 107 ° 0 min 0,000 mm 0,0 UV-I 0 W/m² 7,8 °C 4,8 km/h (1 Bft)
26.10.2016 05:42 8,4 °C 8,4 °C 96 % 1023,9 hPa 0,0 mm 2,9 km/h (1 Bft) O-NO 76 ° 0 min 0,000 mm 0,0 UV-I 0 W/m² 7,8 °C 4,8 km/h (1 Bft)
26.10.2016 05:43 8,4 °C 8,4 °C 95 % 1023,9 hPa 0,0 mm 1,8 km/h (1 Bft) O-NO 72 ° 0 min 0,000 mm 0,0 UV-I 0 W/m² 7,6 °C 3,2 km/h (1 Bft)
26.10.2016 05:44 8,4 °C 8,4 °C 96 % 1023,9 hPa 0,0 mm 5,3 km/h (1 Bft) O-NO 57 ° 0 min 0,000 mm 0,0 UV-I 0 W/m² 7,8 °C 8,0 km/h (2 Bft)
26.10.2016 05:45 8,4 °C 8,4 °C 95 % 1023,9 hPa 0,0 mm 3,5 km/h (1 Bft) O-NO 70 ° 0 min 0,000 mm 0,0 UV-I 0 W/m² 7,6 °C 4,8 km/h (1 Bft)
26.10.2016 05:46 8,4 °C 8,4 °C 96 % 1023,8 hPa 0,0 mm 5,1 km/h (1 Bft) O-NO 59 ° 0 min 0,000 mm 0,0 UV-I 0 W/m² 7,8 °C 6,4 km/h (2 Bft)
26.10.2016 05:47 8,4 °C 8,4 °C 96 % 1023,9 hPa 0,0 mm 3,8 km/h (1 Bft) O-NO 74 ° 0 min 0,000 mm 0,0 UV-I 0 W/m² 7,8 °C 6,4 km/h (2 Bft)
26.10.2016 05:48 8,4 °C 8,4 °C 96 % 1023,8 hPa 0,0 mm 3,2 km/h (1 Bft) O 79 ° 0 min 0,000 mm 0,0 UV-I 0 W/m² 7,8 °C 4,8 km/h (1 Bft)
26.10.2016 05:49 8,4 °C 8,4 °C 96 % 1023,8 hPa 0,0 mm 2,9 km/h (1 Bft) O-NO 62 ° 0 min 0,000 mm 0,0 UV-I 0 W/m² 7,8 °C 3,2 km/h (1 Bft)
26.10.2016 05:50 8,4 °C 8,4 °C 96 % 1023,8 hPa 0,0 mm 3,9 km/h (1 Bft) O 80 ° 0 min 0,000 mm 0,0 UV-I 0 W/m² 7,8 °C 6,4 km/h (2 Bft)
26.10.2016 05:51 8,4 °C 8,4 °C 96 % 1023,9 hPa 0,0 mm 4,0 km/h (1 Bft) O-NO 63 ° 0 min 0,000 mm 0,0 UV-I 0 W/m² 7,8 °C 6,4 km/h (2 Bft)
26.10.2016 05:52 8,4 °C 8,4 °C 96 % 1023,9 hPa 0,0 mm 5,3 km/h (1 Bft) O-NO 74 ° 0 min 0,000 mm 0,0 UV-I 0 W/m² 7,8 °C 9,7 km/h (2 Bft)
26.10.2016 05:53 8,3 °C 8,4 °C 96 % 1023,9 hPa 0,0 mm 4,1 km/h (1 Bft) O 80 ° 0 min 0,000 mm 0,0 UV-I 0 W/m² 7,7 °C 6,4 km/h (2 Bft)
26.10.2016 05:54 8,3 °C 8,4 °C 96 % 1023,9 hPa 0,0 mm 2,0 km/h (1 Bft) O 80 ° 0 min 0,000 mm 0,0 UV-I 0 W/m² 7,7 °C 3,2 km/h (1 Bft)
26.10.2016 05:55 8,3 °C 8,3 °C 95 % 1023,9 hPa 0,0 mm 5,8 km/h (2 Bft) O-NO 67 ° 0 min 0,000 mm 0,0 UV-I 0 W/m² 7,5 °C 9,7 km/h (2 Bft)
26.10.2016 05:56 8,3 °C 8,3 °C 95 % 1023,9 hPa 0,0 mm 3,9 km/h (1 Bft) N-NO 25 ° 0 min 0,000 mm 0,0 UV-I 0 W/m² 7,5 °C 6,4 km/h (2 Bft)
26.10.2016 05:57 8,3 °C 8,3 °C 96 % 1023,9 hPa 0,0 mm 1,5 km/h (1 Bft) O-NO 57 ° 0 min 0,000 mm 0,0 UV-I 0 W/m² 7,7 °C 3,2 km/h (1 Bft)
26.10.2016 05:58 8,3 °C 8,3 °C 96 % 1023,9 hPa 0,0 mm 3,5 km/h (1 Bft) O-NO 62 ° 0 min 0,000 mm 0,0 UV-I 0 W/m² 7,7 °C 6,4 km/h (2 Bft)
26.10.2016 05:59 8,3 °C 8,3 °C 96 % 1023,9 hPa 0,0 mm 2,6 km/h (1 Bft) O-NO 65 ° 0 min 0,000 mm 0,0 UV-I 0 W/m² 7,7 °C 4,8 km/h (1 Bft)
26.10.2016 06:00 8,3 °C 8,3 °C 96 % 1023,9 hPa 0,0 mm 3,4 km/h (1 Bft) O-NO 59 ° 0 min 0,000 mm 0,0 UV-I 0 W/m² 7,7 °C 4,8 km/h (1 Bft)
26.10.2016 06:01 8,3 °C 8,3 °C 96 % 1023,9 hPa 0,0 mm 2,9 km/h (1 Bft) O-NO 59 ° 0 min 0,000 mm 0,0 UV-I 0 W/m² 7,7 °C 4,8 km/h (1 Bft)
26.10.2016 06:02 8,3 °C 8,3 °C 96 % 1023,9 hPa 0,0 mm 3,1 km/h (1 Bft) O-NO 59 ° 0 min 0,000 mm 0,0 UV-I 0 W/m² 7,7 °C 4,8 km/h (1 Bft)
26.10.2016 06:03 8,3 °C 8,3 °C 96 % 1023,9 hPa 0,0 mm 2,3 km/h (1 Bft) O-NO 76 ° 0 min 0,000 mm 0,0 UV-I 0 W/m² 7,7 °C 3,2 km/h (1 Bft)
26.10.2016 06:04 8,3 °C 8,3 °C 96 % 1023,9 hPa 0,0 mm 3,0 km/h (1 Bft) O-NO 67 ° 0 min 0,000 mm 0,0 UV-I 0 W/m² 7,7 °C 6,4 km/h (2 Bft)
26.10.2016 06:05 8,3 °C 8,3 °C 96 % 1023,9 hPa 0,0 mm 3,8 km/h (1 Bft) O-NO 71 ° 0 min 0,000 mm 0,0 UV-I 0 W/m² 7,7 °C 6,4 km/h (2 Bft)
26.10.2016 06:06 8,3 °C 8,3 °C 96 % 1023,9 hPa 0,0 mm 2,6 km/h (1 Bft) O-NO 63 ° 0 min 0,000 mm 0,0 UV-I 0 W/m² 7,7 °C 3,2 km/h (1 Bft)
26.10.2016 06:07 8,3 °C 8,3 °C 96 % 1023,9 hPa 0,0 mm 3,3 km/h (1 Bft) O-NO 75 ° 0 min 0,000 mm 0,0 UV-I 0 W/m² 7,7 °C 6,4 km/h (2 Bft)
26.10.2016 06:08 8,3 °C 8,3 °C 96 % 1023,9 hPa 0,0 mm 3,7 km/h (1 Bft) O-NO 78 ° 0 min 0,000 mm 0,0 UV-I 0 W/m² 7,7 °C 6,4 km/h (2 Bft)
26.10.2016 06:09 8,3 °C 8,3 °C 96 % 1023,9 hPa 0,0 mm 2,7 km/h (1 Bft) O-NO 74 ° 0 min 0,000 mm 0,0 UV-I 0 W/m² 7,7 °C 4,8 km/h (1 Bft)
26.10.2016 06:10 8,3 °C 8,3 °C 96 % 1023,9 hPa 0,0 mm 5,0 km/h (1 Bft) O-NO 61 ° 0 min 0,000 mm 0,0 UV-I 0 W/m² 7,7 °C 6,4 km/h (2 Bft)
26.10.2016 06:11 8,3 °C 8,3 °C 96 % 1024,1 hPa 0,0 mm 5,1 km/h (1 Bft) NO 46 ° 0 min 0,000 mm 0,0 UV-I 0 W/m² 7,7 °C 6,4 km/h (2 Bft)
26.10.2016 06:12 8,3 °C 8,3 °C 96 % 1024,1 hPa 0,0 mm 2,8 km/h (1 Bft) N-NO 32 ° 0 min 0,000 mm 0,0 UV-I 0 W/m² 7,7 °C 4,8 km/h (1 Bft)
26.10.2016 06:13 8,3 °C 8,3 °C 96 % 1024,0 hPa 0,0 mm 2,1 km/h (1 Bft) O-NO 57 ° 0 min 0,000 mm 0,0 UV-I 0 W/m² 7,7 °C 3,2 km/h (1 Bft)
26.10.2016 06:14 8,2 °C 8,3 °C 96 % 1024,1 hPa 0,0 mm 0,2 km/h (0 Bft) O-NO 57 ° 0 min 0,000 mm 0,0 UV-I 0 W/m² 7,6 °C 1,6 km/h (1 Bft)
26.10.2016 06:15 8,3 °C 8,3 °C 96 % 1024,0 hPa 0,0 mm 2,3 km/h (1 Bft) O-NO 57 ° 0 min 0,000 mm 0,0 UV-I 0 W/m² 7,7 °C 4,8 km/h (1 Bft)
26.10.2016 06:16 8,3 °C 8,3 °C 96 % 1024,0 hPa 0,0 mm 4,7 km/h (1 Bft) O-NO 61 ° 0 min 0,000 mm 0,0 UV-I 0 W/m² 7,7 °C 6,4 km/h (2 Bft)
26.10.2016 06:17 8,3 °C 8,3 °C 96 % 1024,0 hPa 0,0 mm 3,1 km/h (1 Bft) O-NO 62 ° 0 min 0,000 mm 0,0 UV-I 0 W/m² 7,7 °C 4,8 km/h (1 Bft)
26.10.2016 06:18 8,2 °C 8,3 °C 96 % 1023,9 hPa 0,0 mm 4,8 km/h (1 Bft) O-NO 59 ° 0 min 0,000 mm 0,0 UV-I 0 W/m² 7,6 °C 8,0 km/h (2 Bft)
26.10.2016 06:19 8,2 °C 8,2 °C 96 % 1023,9 hPa 0,0 mm 6,5 km/h (2 Bft) O-NO 69 ° 0 min 0,000 mm 0,0 UV-I 0 W/m² 7,6 °C 8,0 km/h (2 Bft)
26.10.2016 06:20 8,2 °C 8,2 °C 96 % 1023,9 hPa 0,0 mm 3,7 km/h (1 Bft) O-NO 73 ° 0 min 0,000 mm 0,0 UV-I 0 W/m² 7,6 °C 4,8 km/h (1 Bft)
26.10.2016 06:21 8,2 °C 8,2 °C 96 % 1023,9 hPa 0,0 mm 3,6 km/h (1 Bft) O-NO 76 ° 0 min 0,000 mm 0,0 UV-I 0 W/m² 7,6 °C 4,8 km/h (1 Bft)
26.10.2016 06:22 8,2 °C 8,2 °C 96 % 1023,8 hPa 0,0 mm 3,7 km/h (1 Bft) O 88 ° 0 min 0,000 mm 0,0 UV-I 0 W/m² 7,6 °C 6,4 km/h (2 Bft)
26.10.2016 06:23 8,2 °C 8,2 °C 96 % 1023,8 hPa 0,0 mm 2,8 km/h (1 Bft) NO 52 ° 0 min 0,000 mm 0,0 UV-I 0 W/m² 7,6 °C 4,8 km/h (1 Bft)
26.10.2016 06:24 8,2 °C 8,2 °C 96 % 1023,9 hPa 0,0 mm 2,1 km/h (1 Bft) O-NO 59 ° 0 min 0,000 mm 0,0 UV-I 0 W/m² 7,6 °C 4,8 km/h (1 Bft)
26.10.2016 06:25 8,2 °C 8,2 °C 96 % 1023,9 hPa 0,0 mm 5,1 km/h (1 Bft) O-NO 68 ° 0 min 0,000 mm 0,0 UV-I 0 W/m² 7,6 °C 6,4 km/h (2 Bft)
26.10.2016 06:26 8,2 °C 8,2 °C 96 % 1023,9 hPa 0,0 mm 2,0 km/h (1 Bft) O-NO 70 ° 0 min 0,000 mm 0,0 UV-I 0 W/m² 7,6 °C 3,2 km/h (1 Bft)
26.10.2016 06:27 8,2 °C 8,2 °C 96 % 1024,0 hPa 0,0 mm 2,4 km/h (1 Bft) O-NO 70 ° 0 min 0,000 mm 0,0 UV-I 0 W/m² 7,6 °C 4,8 km/h (1 Bft)
26.10.2016 06:28 8,2 °C 8,2 °C 96 % 1024,0 hPa 0,2 mm 2,7 km/h (1 Bft) O-NO 70 ° 0 min 0,000 mm 0,0 UV-I 0 W/m² 7,6 °C 4,8 km/h (1 Bft)
26.10.2016 06:29 8,2 °C 8,2 °C 96 % 1024,0 hPa 0,0 mm 3,0 km/h (1 Bft) O-SO 119 ° 0 min 0,000 mm 0,0 UV-I 0 W/m² 7,6 °C 6,4 km/h (2 Bft)
26.10.2016 06:30 8,2 °C 8,2 °C 96 % 1024,0 hPa 0,0 mm 4,1 km/h (1 Bft) O-SO 115 ° 0 min 0,000 mm 0,0 UV-I 0 W/m² 7,6 °C 6,4 km/h (2 Bft)
26.10.2016 06:31 8,2 °C 8,2 °C 96 % 1024,0 hPa 0,0 mm 4,2 km/h (1 Bft) NO 51 ° 0 min 0,000 mm 0,0 UV-I 0 W/m² 7,6 °C 6,4 km/h (2 Bft)
26.10.2016 06:32 8,2 °C 8,2 °C 96 % 1024,0 hPa 0,0 mm 3,0 km/h (1 Bft) NO 45 ° 0 min 0,000 mm 0,0 UV-I 0 W/m² 7,6 °C 4,8 km/h (1 Bft)
26.10.2016 06:33 8,2 °C 8,2 °C 96 % 1023,9 hPa 0,0 mm 2,6 km/h (1 Bft) NO 46 ° 0 min 0,000 mm 0,0 UV-I 0 W/m² 7,6 °C 3,2 km/h (1 Bft)
26.10.2016 06:34 8,2 °C 8,2 °C 96 % 1024,0 hPa 0,0 mm 2,5 km/h (1 Bft) NO 48 ° 0 min 0,000 mm 0,0 UV-I 0 W/m² 7,6 °C 4,8 km/h (1 Bft)
26.10.2016 06:35 8,2 °C 8,2 °C 96 % 1024,0 hPa 0,0 mm 4,2 km/h (1 Bft) O-NO 68 ° 0 min 0,000 mm 0,0 UV-I 0 W/m² 7,6 °C 6,4 km/h (2 Bft)
26.10.2016 06:36 8,2 °C 8,2 °C 96 % 1023,9 hPa 0,0 mm 3,2 km/h (1 Bft) O-NO 68 ° 0 min 0,000 mm 0,0 UV-I 0 W/m² 7,6 °C 4,8 km/h (1 Bft)
26.10.2016 06:37 8,3 °C 8,3 °C 96 % 1023,9 hPa 0,0 mm 1,7 km/h (1 Bft) O-NO 69 ° 0 min 0,000 mm 0,0 UV-I 0 W/m² 7,7 °C 3,2 km/h (1 Bft)
26.10.2016 06:38 8,3 °C 8,3 °C 96 % 1023,9 hPa 0,0 mm 3,1 km/h (1 Bft) NO 54 ° 0 min 0,000 mm 0,0 UV-I 0 W/m² 7,7 °C 4,8 km/h (1 Bft)
26.10.2016 06:39 8,3 °C 8,3 °C 96 % 1023,9 hPa 0,0 mm 3,9 km/h (1 Bft) O 84 ° 0 min 0,000 mm 0,0 UV-I 0 W/m² 7,7 °C 6,4 km/h (2 Bft)
26.10.2016 06:40 8,2 °C 8,3 °C 96 % 1023,9 hPa 0,0 mm 2,9 km/h (1 Bft) O 84 ° 0 min 0,000 mm 0,0 UV-I 0 W/m² 7,6 °C 3,2 km/h (1 Bft)
26.10.2016 06:41 8,2 °C 8,3 °C 96 % 1023,9 hPa 0,0 mm 3,5 km/h (1 Bft) O-NO 61 ° 0 min 0,000 mm 0,0 UV-I 0 W/m² 7,6 °C 6,4 km/h (2 Bft)
26.10.2016 06:42 8,2 °C 8,3 °C 96 % 1023,9 hPa 0,0 mm 3,5 km/h (1 Bft) O-NO 62 ° 0 min 0,000 mm 0,0 UV-I 0 W/m² 7,6 °C 6,4 km/h (2 Bft)
26.10.2016 06:43 8,2 °C 8,2 °C 96 % 1023,9 hPa 0,0 mm 3,0 km/h (1 Bft) O-NO 66 ° 0 min 0,000 mm 0,0 UV-I 0 W/m² 7,6 °C 3,2 km/h (1 Bft)
26.10.2016 06:44 8,2 °C 8,3 °C 96 % 1023,9 hPa 0,0 mm 3,9 km/h (1 Bft) O-NO 67 ° 0 min 0,000 mm 0,0 UV-I 0 W/m² 7,6 °C 4,8 km/h (1 Bft)
26.10.2016 06:45 8,2 °C 8,3 °C 96 % 1023,9 hPa 0,0 mm 2,8 km/h (1 Bft) NO 50 ° 0 min 0,000 mm 0,0 UV-I 0 W/m² 7,6 °C 4,8 km/h (1 Bft)
26.10.2016 06:46 8,2 °C 8,3 °C 96 % 1023,9 hPa 0,0 mm 2,7 km/h (1 Bft) O-NO 59 ° 0 min 0,000 mm 0,0 UV-I 0 W/m² 7,6 °C 4,8 km/h (1 Bft)
26.10.2016 06:47 8,2 °C 8,3 °C 96 % 1024,0 hPa 0,0 mm 3,1 km/h (1 Bft) O-NO 63 ° 0 min 0,000 mm 0,0 UV-I 0 W/m² 7,6 °C 4,8 km/h (1 Bft)
26.10.2016 06:48 8,2 °C 8,3 °C 96 % 1024,0 hPa 0,0 mm 4,1 km/h (1 Bft) NO 55 ° 0 min 0,000 mm 0,0 UV-I 0 W/m² 7,6 °C 4,8 km/h (1 Bft)
26.10.2016 06:49 8,3 °C 8,3 °C 96 % 1024,0 hPa 0,0 mm 6,4 km/h (2 Bft) O-NO 65 ° 0 min 0,000 mm 0,0 UV-I 0 W/m² 7,7 °C 8,0 km/h (2 Bft)
26.10.2016 06:50 8,3 °C 8,3 °C 96 % 1024,0 hPa 0,0 mm 3,2 km/h (1 Bft) O-NO 65 ° 0 min 0,000 mm 0,0 UV-I 0 W/m² 7,7 °C 4,8 km/h (1 Bft)
26.10.2016 06:51 8,3 °C 8,3 °C 96 % 1024,0 hPa 0,0 mm 2,0 km/h (1 Bft) O-NO 65 ° 0 min 0,000 mm 0,0 UV-I 0 W/m² 7,7 °C 4,8 km/h (1 Bft)
26.10.2016 06:52 8,3 °C 8,3 °C 96 % 1024,0 hPa 0,0 mm 3,1 km/h (1 Bft) O 93 ° 0 min 0,000 mm 0,0 UV-I 0 W/m² 7,7 °C 4,8 km/h (1 Bft)
26.10.2016 06:53 8,3 °C 8,3 °C 96 % 1024,0 hPa 0,0 mm 3,6 km/h (1 Bft) O-NO 68 ° 0 min 0,000 mm 0,0 UV-I 0 W/m² 7,7 °C 6,4 km/h (2 Bft)
26.10.2016 06:54 8,3 °C 8,3 °C 96 % 1024,0 hPa 0,0 mm 4,8 km/h (1 Bft) O-NO 58 ° 0 min 0,000 mm 0,0 UV-I 0 W/m² 7,7 °C 6,4 km/h (2 Bft)
26.10.2016 06:55 8,3 °C 8,3 °C 96 % 1024,0 hPa 0,0 mm 3,1 km/h (1 Bft) NO 42 ° 0 min 0,000 mm 0,0 UV-I 0 W/m² 7,7 °C 4,8 km/h (1 Bft)
26.10.2016 06:56 8,3 °C 8,3 °C 96 % 1024,0 hPa 0,0 mm 3,6 km/h (1 Bft) O-NO 57 ° 0 min 0,000 mm 0,0 UV-I 0 W/m² 7,7 °C 4,8 km/h (1 Bft)
26.10.2016 06:57 8,3 °C 8,3 °C 96 % 1024,0 hPa 0,0 mm 4,3 km/h (1 Bft) O-NO 59 ° 0 min 0,000 mm 0,0 UV-I 0 W/m² 7,7 °C 6,4 km/h (2 Bft)
26.10.2016 06:58 8,3 °C 8,3 °C 96 % 1024,0 hPa 0,0 mm 3,0 km/h (1 Bft) O-NO 67 ° 0 min 0,000 mm 0,0 UV-I 0 W/m² 7,7 °C 4,8 km/h (1 Bft)
26.10.2016 06:59 8,3 °C 8,3 °C 96 % 1024,0 hPa 0,0 mm 3,6 km/h (1 Bft) O-NO 67 ° 0 min 0,000 mm 0,0 UV-I 0 W/m² 7,7 °C 6,4 km/h (2 Bft)
26.10.2016 07:00 8,3 °C 8,3 °C 96 % 1024,1 hPa 0,0 mm 5,2 km/h (1 Bft) O-NO 65 ° 0 min 0,000 mm 0,0 UV-I 0 W/m² 7,7 °C 6,4 km/h (2 Bft)
26.10.2016 07:01 8,3 °C 8,3 °C 96 % 1024,0 hPa 0,0 mm 1,4 km/h (1 Bft) O-NO 67 ° 0 min 0,000 mm 0,0 UV-I 0 W/m² 7,7 °C 3,2 km/h (1 Bft)
26.10.2016 07:02 8,2 °C 8,3 °C 96 % 1024,1 hPa 0,0 mm 2,0 km/h (1 Bft) O-NO 67 ° 0 min 0,000 mm 0,0 UV-I 0 W/m² 7,6 °C 3,2 km/h (1 Bft)
26.10.2016 07:03 8,3 °C 8,3 °C 96 % 1024,1 hPa 0,0 mm 2,7 km/h (1 Bft) O-NO 66 ° 0 min 0,000 mm 0,0 UV-I 0 W/m² 7,7 °C 4,8 km/h (1 Bft)
26.10.2016 07:04 8,3 °C 8,3 °C 96 % 1024,1 hPa 0,0 mm 2,2 km/h (1 Bft) O-NO 66 ° 0 min 0,000 mm 0,0 UV-I 0 W/m² 7,7 °C 3,2 km/h (1 Bft)
26.10.2016 07:05 8,3 °C 8,3 °C 96 % 1024,1 hPa 0,0 mm 1,9 km/h (1 Bft) O-NO 64 ° 0 min 0,000 mm 0,0 UV-I 0 W/m² 7,7 °C 4,8 km/h (1 Bft)
26.10.2016 07:06 8,3 °C 8,3 °C 96 % 1024,1 hPa 0,0 mm 3,8 km/h (1 Bft) NO 42 ° 0 min 0,000 mm 0,0 UV-I 0 W/m² 7,7 °C 4,8 km/h (1 Bft)
26.10.2016 07:07 8,3 °C 8,3 °C 96 % 1024,1 hPa 0,0 mm 3,1 km/h (1 Bft) O-NO 61 ° 0 min 0,000 mm 0,0 UV-I 0 W/m² 7,7 °C 4,8 km/h (1 Bft)
26.10.2016 07:08 8,3 °C 8,3 °C 96 % 1024,1 hPa 0,0 mm 3,0 km/h (1 Bft) O-NO 63 ° 0 min 0,000 mm 0,0 UV-I 0 W/m² 7,7 °C 4,8 km/h (1 Bft)
26.10.2016 07:09 8,3 °C 8,3 °C 96 % 1024,0 hPa 0,0 mm 4,1 km/h (1 Bft) O-NO 59 ° 0 min 0,000 mm 0,0 UV-I 0 W/m² 7,7 °C 6,4 km/h (2 Bft)
26.10.2016 07:10 8,3 °C 8,3 °C 96 % 1024,1 hPa 0,0 mm 1,5 km/h (1 Bft) O-NO 59 ° 0 min 0,000 mm 0,0 UV-I 0 W/m² 7,7 °C 3,2 km/h (1 Bft)
26.10.2016 07:11 8,3 °C 8,3 °C 96 % 1024,0 hPa 0,0 mm 1,2 km/h (1 Bft) O-NO 59 ° 0 min 0,000 mm 0,0 UV-I 0 W/m² 7,7 °C 1,6 km/h (1 Bft)
26.10.2016 07:12 8,3 °C 8,3 °C 96 % 1024,0 hPa 0,0 mm 2,5 km/h (1 Bft) O-NO 59 ° 0 min 0,000 mm 0,0 UV-I 0 W/m² 7,7 °C 3,2 km/h (1 Bft)
26.10.2016 07:13 8,3 °C 8,3 °C 96 % 1023,9 hPa 0,0 mm 2,8 km/h (1 Bft) O 90 ° 0 min 0,000 mm 0,0 UV-I 0 W/m² 7,7 °C 4,8 km/h (1 Bft)
26.10.2016 07:14 8,3 °C 8,3 °C 96 % 1023,9 hPa 0,0 mm 3,1 km/h (1 Bft) O-NO 61 ° 0 min 0,000 mm 0,0 UV-I 0 W/m² 7,7 °C 4,8 km/h (1 Bft)
26.10.2016 07:15 8,3 °C 8,3 °C 96 % 1023,9 hPa 0,0 mm 2,2 km/h (1 Bft) O-NO 63 ° 0 min 0,000 mm 0,0 UV-I 0 W/m² 7,7 °C 4,8 km/h (1 Bft)
26.10.2016 07:16 8,2 °C 8,3 °C 96 % 1023,9 hPa 0,0 mm 2,0 km/h (1 Bft) O-NO 63 ° 0 min 0,000 mm 0,0 UV-I 0 W/m² 7,6 °C 3,2 km/h (1 Bft)
26.10.2016 07:17 8,3 °C 8,3 °C 96 % 1023,9 hPa 0,0 mm 1,7 km/h (1 Bft) NO 44 ° 0 min 0,000 mm 0,0 UV-I 0 W/m² 7,7 °C 4,8 km/h (1 Bft)
26.10.2016 07:18 8,2 °C 8,3 °C 96 % 1024,0 hPa 0,0 mm 2,8 km/h (1 Bft) O-NO 69 ° 0 min 0,000 mm 0,0 UV-I 0 W/m² 7,6 °C 4,8 km/h (1 Bft)
26.10.2016 07:19 8,3 °C 8,3 °C 96 % 1024,0 hPa 0,0 mm 2,5 km/h (1 Bft) O-NO 70 ° 0 min 0,000 mm 0,0 UV-I 0 W/m² 7,7 °C 3,2 km/h (1 Bft)
26.10.2016 07:20 8,3 °C 8,3 °C 96 % 1024,0 hPa 0,0 mm 2,8 km/h (1 Bft) NO 51 ° 0 min 0,000 mm 0,0 UV-I 0 W/m² 7,7 °C 4,8 km/h (1 Bft)
26.10.2016 07:21 8,3 °C 8,3 °C 96 % 1024,0 hPa 0,0 mm 0,6 km/h (0 Bft) NO 51 ° 0 min 0,000 mm 0,0 UV-I 0 W/m² 7,7 °C 1,6 km/h (1 Bft)
26.10.2016 07:22 8,3 °C 8,3 °C 95 % 1024,0 hPa 0,0 mm 1,5 km/h (1 Bft) NO 51 ° 0 min 0,000 mm 0,0 UV-I 0 W/m² 7,5 °C 4,8 km/h (1 Bft)
26.10.2016 07:23 8,3 °C 8,3 °C 95 % 1024,0 hPa 0,0 mm 2,0 km/h (1 Bft) NO 51 ° 0 min 0,000 mm 0,0 UV-I 0 W/m² 7,5 °C 3,2 km/h (1 Bft)
26.10.2016 07:24 8,3 °C 8,3 °C 95 % 1024,0 hPa 0,0 mm 2,8 km/h (1 Bft) NO 51 ° 0 min 0,000 mm 0,0 UV-I 0 W/m² 7,5 °C 3,2 km/h (1 Bft)
26.10.2016 07:25 8,3 °C 8,3 °C 95 % 1024,0 hPa 0,0 mm 3,2 km/h (1 Bft) O-NO 61 ° 0 min 0,000 mm 0,0 UV-I 0 W/m² 7,5 °C 4,8 km/h (1 Bft)
26.10.2016 07:26 8,3 °C 8,3 °C 95 % 1024,0 hPa 0,0 mm 2,0 km/h (1 Bft) O-NO 61 ° 0 min 0,000 mm 0,0 UV-I 0 W/m² 7,5 °C 3,2 km/h (1 Bft)
26.10.2016 07:27 8,3 °C 8,3 °C 95 % 1024,0 hPa 0,0 mm 1,0 km/h (0 Bft) O-NO 61 ° 0 min 0,000 mm 0,0 UV-I 0 W/m² 7,5 °C 3,2 km/h (1 Bft)
26.10.2016 07:28 8,3 °C 8,3 °C 95 % 1024,0 hPa 0,0 mm 1,5 km/h (1 Bft) O-NO 61 ° 0 min 0,000 mm 0,0 UV-I 0 W/m² 7,5 °C 3,2 km/h (1 Bft)
26.10.2016 07:29 8,3 °C 8,3 °C 95 % 1024,0 hPa 0,0 mm 1,9 km/h (1 Bft) O-NO 61 ° 0 min 0,000 mm 0,0 UV-I 0 W/m² 7,5 °C 3,2 km/h (1 Bft)
26.10.2016 07:30 8,3 °C 8,3 °C 95 % 1024,0 hPa 0,0 mm 1,1 km/h (1 Bft) O-NO 61 ° 0 min 0,000 mm 0,0 UV-I 0 W/m² 7,5 °C 3,2 km/h (1 Bft)
26.10.2016 07:31 8,3 °C 8,3 °C 95 % 1023,9 hPa 0,0 mm 2,1 km/h (1 Bft) O-NO 61 ° 0 min 0,000 mm 0,0 UV-I 0 W/m² 7,5 °C 3,2 km/h (1 Bft)
26.10.2016 07:32 8,3 °C 8,3 °C 95 % 1023,9 hPa 0,0 mm 0,9 km/h (0 Bft) O-NO 61 ° 0 min 0,000 mm 0,0 UV-I 0 W/m² 7,5 °C 1,6 km/h (1 Bft)
26.10.2016 07:33 8,3 °C 8,3 °C 95 % 1023,9 hPa 0,0 mm 1,4 km/h (1 Bft) O-NO 61 ° 0 min 0,000 mm 0,0 UV-I 0 W/m² 7,5 °C 3,2 km/h (1 Bft)
26.10.2016 07:34 8,3 °C 8,3 °C 95 % 1023,9 hPa 0,0 mm 2,6 km/h (1 Bft) O-NO 65 ° 0 min 0,000 mm 0,0 UV-I 0 W/m² 7,5 °C 4,8 km/h (1 Bft)
26.10.2016 07:35 8,3 °C 8,3 °C 95 % 1023,9 hPa 0,0 mm 3,3 km/h (1 Bft) O-NO 65 ° 0 min 0,000 mm 0,0 UV-I 0 W/m² 7,5 °C 4,8 km/h (1 Bft)
26.10.2016 07:36 8,3 °C 8,3 °C 95 % 1023,9 hPa 0,0 mm 3,1 km/h (1 Bft) O-NO 71 ° 0 min 0,000 mm 0,0 UV-I 0 W/m² 7,5 °C 3,2 km/h (1 Bft)
26.10.2016 07:37 8,3 °C 8,3 °C 95 % 1023,9 hPa 0,0 mm 3,1 km/h (1 Bft) NO 44 ° 0 min 0,000 mm 0,0 UV-I 0 W/m² 7,5 °C 4,8 km/h (1 Bft)
26.10.2016 07:38 8,3 °C 8,3 °C 95 % 1024,0 hPa 0,0 mm 5,1 km/h (1 Bft) NO 39 ° 0 min 0,000 mm 0,0 UV-I 0 W/m² 7,5 °C 6,4 km/h (2 Bft)
26.10.2016 07:39 8,3 °C 8,3 °C 95 % 1024,0 hPa 0,0 mm 2,9 km/h (1 Bft) O-NO 63 ° 0 min 0,000 mm 0,0 UV-I 0 W/m² 7,5 °C 4,8 km/h (1 Bft)
26.10.2016 07:40 8,3 °C 8,3 °C 95 % 1024,0 hPa 0,0 mm 2,9 km/h (1 Bft) N-NO 28 ° 0 min 0,000 mm 0,0 UV-I 0 W/m² 7,5 °C 4,8 km/h (1 Bft)
26.10.2016 07:41 8,3 °C 8,3 °C 95 % 1024,1 hPa 0,0 mm 0,8 km/h (0 Bft) N-NO 28 ° 0 min 0,000 mm 0,0 UV-I 0 W/m² 7,5 °C 3,2 km/h (1 Bft)
26.10.2016 07:42 8,3 °C 8,3 °C 95 % 1024,1 hPa 0,0 mm 3,3 km/h (1 Bft) NO 40 ° 0 min 0,000 mm 0,0 UV-I 0 W/m² 7,5 °C 4,8 km/h (1 Bft)
26.10.2016 07:43 8,3 °C 8,3 °C 95 % 1024,1 hPa 0,0 mm 1,4 km/h (1 Bft) NO 40 ° 0 min 0,000 mm 0,0 UV-I 0 W/m² 7,5 °C 3,2 km/h (1 Bft)
26.10.2016 07:44 8,3 °C 8,3 °C 95 % 1024,1 hPa 0,0 mm 4,0 km/h (1 Bft) O-NO 58 ° 0 min 0,000 mm 0,0 UV-I 0 W/m² 7,5 °C 4,8 km/h (1 Bft)
26.10.2016 07:45 8,3 °C 8,3 °C 95 % 1024,1 hPa 0,0 mm 2,6 km/h (1 Bft) NO 47 ° 0 min 0,000 mm 0,0 UV-I 0 W/m² 7,5 °C 3,2 km/h (1 Bft)
26.10.2016 07:46 8,3 °C 8,3 °C 95 % 1024,1 hPa 0,0 mm 1,4 km/h (1 Bft) NO 47 ° 0 min 0,000 mm 0,0 UV-I 0 W/m² 7,5 °C 1,6 km/h (1 Bft)
26.10.2016 07:47 8,3 °C 8,3 °C 95 % 1024,1 hPa 0,0 mm 0,5 km/h (0 Bft) NO 47 ° 0 min 0,000 mm 0,0 UV-I 0 W/m² 7,5 °C 1,6 km/h (1 Bft)
26.10.2016 07:48 8,3 °C 8,3 °C 95 % 1024,1 hPa 0,0 mm 0,5 km/h (0 Bft) NO 47 ° 0 min 0,000 mm 0,0 UV-I 0 W/m² 7,5 °C 1,6 km/h (1 Bft)
26.10.2016 07:49 8,3 °C 8,3 °C 95 % 1024,1 hPa 0,0 mm 0,0 km/h (0 Bft) NO 47 ° 0 min 0,000 mm 0,0 UV-I 0 W/m² 7,5 °C 0,0 km/h (0 Bft)
26.10.2016 07:50 8,3 °C 8,3 °C 95 % 1024,1 hPa 0,0 mm 0,4 km/h (0 Bft) NO 47 ° 0 min 0,000 mm 0,0 UV-I 0 W/m² 7,5 °C 1,6 km/h (1 Bft)
26.10.2016 07:51 8,2 °C 8,3 °C 95 % 1024,2 hPa 0,0 mm 1,0 km/h (0 Bft) NO 47 ° 0 min 0,000 mm 0,0 UV-I 0 W/m² 7,4 °C 1,6 km/h (1 Bft)
26.10.2016 07:52 8,2 °C 8,3 °C 95 % 1024,2 hPa 0,0 mm 0,0 km/h (0 Bft) NO 47 ° 0 min 0,000 mm 0,0 UV-I 0 W/m² 7,4 °C 0,0 km/h (0 Bft)
26.10.2016 07:53 8,3 °C 8,3 °C 95 % 1024,1 hPa 0,0 mm 0,0 km/h (0 Bft) NO 47 ° 0 min 0,000 mm 0,0 UV-I 0 W/m² 7,5 °C 0,0 km/h (0 Bft)
26.10.2016 07:54 8,2 °C 8,3 °C 95 % 1024,1 hPa 0,0 mm 0,0 km/h (0 Bft) NO 47 ° 0 min 0,000 mm 0,0 UV-I 0 W/m² 7,4 °C 0,0 km/h (0 Bft)
26.10.2016 07:55 8,2 °C 8,3 °C 95 % 1024,2 hPa 0,0 mm 0,0 km/h (0 Bft) NO 47 ° 0 min 0,000 mm 0,0 UV-I 0 W/m² 7,4 °C 0,0 km/h (0 Bft)
26.10.2016 07:56 8,2 °C 8,3 °C 95 % 1024,2 hPa 0,0 mm 0,1 km/h (0 Bft) NO 47 ° 0 min 0,000 mm 0,0 UV-I 0 W/m² 7,4 °C 1,6 km/h (1 Bft)
26.10.2016 07:57 8,3 °C 8,3 °C 95 % 1024,1 hPa 0,0 mm 0,8 km/h (0 Bft) NO 47 ° 0 min 0,000 mm 0,0 UV-I 0 W/m² 7,5 °C 1,6 km/h (1 Bft)
26.10.2016 07:58 8,2 °C 8,3 °C 95 % 1024,2 hPa 0,0 mm 0,1 km/h (0 Bft) NO 47 ° 0 min 0,000 mm 0,0 UV-I 0 W/m² 7,4 °C 1,6 km/h (1 Bft)
26.10.2016 07:59 8,2 °C 8,3 °C 95 % 1024,2 hPa 0,0 mm 0,3 km/h (0 Bft) NO 47 ° 0 min 0,000 mm 0,0 UV-I 0 W/m² 7,4 °C 1,6 km/h (1 Bft)
26.10.2016 08:00 8,2 °C 8,3 °C 95 % 1024,3 hPa 0,0 mm 1,5 km/h (1 Bft) NO 47 ° 0 min 0,000 mm 0,0 UV-I 0 W/m² 7,4 °C 3,2 km/h (1 Bft)
26.10.2016 08:01 8,3 °C 8,3 °C 95 % 1024,2 hPa 0,0 mm 0,2 km/h (0 Bft) NO 47 ° 0 min 0,000 mm 0,0 UV-I 0 W/m² 7,5 °C 1,6 km/h (1 Bft)
26.10.2016 08:02 8,3 °C 8,3 °C 95 % 1024,3 hPa 0,0 mm 0,0 km/h (0 Bft) NO 47 ° 0 min 0,000 mm 0,0 UV-I 0 W/m² 7,5 °C 0,0 km/h (0 Bft)
26.10.2016 08:03 8,2 °C 8,3 °C 95 % 1024,3 hPa 0,0 mm 0,0 km/h (0 Bft) NO 47 ° 0 min 0,000 mm 0,0 UV-I 0 W/m² 7,4 °C 0,0 km/h (0 Bft)
26.10.2016 08:04 8,2 °C 8,3 °C 95 % 1024,3 hPa 0,0 mm 0,0 km/h (0 Bft) NO 47 ° 0 min 0,000 mm 0,0 UV-I 0 W/m² 7,4 °C 0,0 km/h (0 Bft)
26.10.2016 08:05 8,2 °C 8,3 °C 95 % 1024,4 hPa 0,0 mm 0,0 km/h (0 Bft) NO 47 ° 0 min 0,000 mm 0,0 UV-I 0 W/m² 7,4 °C 0,0 km/h (0 Bft)
26.10.2016 08:06 8,2 °C 8,3 °C 95 % 1024,4 hPa 0,0 mm 0,1 km/h (0 Bft) NO 47 ° 0 min 0,000 mm 0,0 UV-I 0 W/m² 7,4 °C 1,6 km/h (1 Bft)
26.10.2016 08:07 8,2 °C 8,3 °C 95 % 1024,4 hPa 0,0 mm 0,9 km/h (0 Bft) NO 47 ° 0 min 0,000 mm 0,0 UV-I 0 W/m² 7,4 °C 1,6 km/h (1 Bft)
26.10.2016 08:08 8,3 °C 8,3 °C 95 % 1024,4 hPa 0,0 mm 0,4 km/h (0 Bft) NO 47 ° 0 min 0,000 mm 0,0 UV-I 0 W/m² 7,5 °C 1,6 km/h (1 Bft)
26.10.2016 08:09 8,3 °C 8,3 °C 95 % 1024,4 hPa 0,0 mm 1,1 km/h (1 Bft) NO 47 ° 0 min 0,000 mm 0,0 UV-I 0 W/m² 7,5 °C 1,6 km/h (1 Bft)
26.10.2016 08:10 8,3 °C 8,3 °C 95 % 1024,4 hPa 0,0 mm 0,2 km/h (0 Bft) NO 47 ° 0 min 0,000 mm 0,0 UV-I 0 W/m² 7,5 °C 1,6 km/h (1 Bft)
26.10.2016 08:11 8,3 °C 8,3 °C 95 % 1024,4 hPa 0,0 mm 0,0 km/h (0 Bft) NO 47 ° 0 min 0,000 mm 0,0 UV-I 0 W/m² 7,5 °C 0,0 km/h (0 Bft)
26.10.2016 08:12 8,3 °C 8,3 °C 95 % 1024,4 hPa 0,0 mm 0,0 km/h (0 Bft) NO 47 ° 0 min 0,000 mm 0,0 UV-I 0 W/m² 7,5 °C 0,0 km/h (0 Bft)
26.10.2016 08:13 8,3 °C 8,3 °C 95 % 1024,4 hPa 0,0 mm 0,0 km/h (0 Bft) NO 47 ° 0 min 0,000 mm 0,0 UV-I 0 W/m² 7,5 °C 0,0 km/h (0 Bft)
26.10.2016 08:14 8,3 °C 8,3 °C 95 % 1024,4 hPa 0,0 mm 0,0 km/h (0 Bft) NO 47 ° 0 min 0,000 mm 0,0 UV-I 0 W/m² 7,5 °C 0,0 km/h (0 Bft)
26.10.2016 08:15 8,3 °C 8,3 °C 95 % 1024,4 hPa 0,0 mm 0,0 km/h (0 Bft) NO 47 ° 0 min 0,000 mm 0,0 UV-I 0 W/m² 7,5 °C 0,0 km/h (0 Bft)
26.10.2016 08:16 8,3 °C 8,3 °C 95 % 1024,4 hPa 0,0 mm 0,0 km/h (0 Bft) NO 47 ° 0 min 0,000 mm 0,0 UV-I 0 W/m² 7,5 °C 0,0 km/h (0 Bft)
26.10.2016 08:17 8,3 °C 8,3 °C 95 % 1024,4 hPa 0,0 mm 0,0 km/h (0 Bft) NO 47 ° 0 min 0,000 mm 0,0 UV-I 5 W/m² 7,5 °C 0,0 km/h (0 Bft)
26.10.2016 08:18 8,2 °C 8,3 °C 95 % 1024,4 hPa 0,0 mm 0,0 km/h (0 Bft) NO 47 ° 0 min 0,000 mm 0,0 UV-I 5 W/m² 7,4 °C 0,0 km/h (0 Bft)
26.10.2016 08:19 8,3 °C 8,3 °C 96 % 1024,4 hPa 0,0 mm 0,0 km/h (0 Bft) NO 47 ° 0 min 0,000 mm 0,0 UV-I 5 W/m² 7,7 °C 0,0 km/h (0 Bft)
26.10.2016 08:20 8,3 °C 8,3 °C 95 % 1024,4 hPa 0,0 mm 0,0 km/h (0 Bft) NO 47 ° 0 min 0,000 mm 0,0 UV-I 5 W/m² 7,5 °C 0,0 km/h (0 Bft)
26.10.2016 08:21 8,3 °C 8,3 °C 96 % 1024,5 hPa 0,0 mm 0,0 km/h (0 Bft) NO 47 ° 0 min 0,000 mm 0,0 UV-I 5 W/m² 7,7 °C 0,0 km/h (0 Bft)
26.10.2016 08:22 8,2 °C 8,3 °C 96 % 1024,5 hPa 0,0 mm 0,0 km/h (0 Bft) NO 47 ° 0 min 0,000 mm 0,0 UV-I 5 W/m² 7,6 °C 0,0 km/h (0 Bft)
26.10.2016 08:23 8,3 °C 8,3 °C 96 % 1024,5 hPa 0,0 mm 0,0 km/h (0 Bft) NO 47 ° 0 min 0,000 mm 0,0 UV-I 5 W/m² 7,7 °C 0,0 km/h (0 Bft)
26.10.2016 08:24 8,2 °C 8,3 °C 96 % 1024,5 hPa 0,0 mm 0,0 km/h (0 Bft) NO 47 ° 0 min 0,000 mm 0,0 UV-I 5 W/m² 7,6 °C 0,0 km/h (0 Bft)
26.10.2016 08:25 8,2 °C 8,2 °C 96 % 1024,5 hPa 0,0 mm 0,0 km/h (0 Bft) NO 47 ° 0 min 0,000 mm 0,0 UV-I 5 W/m² 7,6 °C 0,0 km/h (0 Bft)
26.10.2016 08:26 8,3 °C 8,3 °C 96 % 1024,5 hPa 0,0 mm 0,0 km/h (0 Bft) NO 47 ° 0 min 0,000 mm 0,0 UV-I 5 W/m² 7,7 °C 0,0 km/h (0 Bft)
26.10.2016 08:27 8,3 °C 8,3 °C 96 % 1024,6 hPa 0,0 mm 0,0 km/h (0 Bft) NO 47 ° 0 min 0,000 mm 0,0 UV-I 7 W/m² 7,7 °C 0,0 km/h (0 Bft)
26.10.2016 08:28 8,3 °C 8,3 °C 96 % 1024,5 hPa 0,0 mm 0,0 km/h (0 Bft) NO 47 ° 0 min 0,000 mm 0,0 UV-I 7 W/m² 7,7 °C 0,0 km/h (0 Bft)
26.10.2016 08:29 8,3 °C 8,3 °C 96 % 1024,5 hPa 0,0 mm 0,0 km/h (0 Bft) NO 47 ° 0 min 0,000 mm 0,0 UV-I 9 W/m² 7,7 °C 0,0 km/h (0 Bft)
26.10.2016 08:30 8,2 °C 8,3 °C 96 % 1024,5 hPa 0,0 mm 0,0 km/h (0 Bft) NO 47 ° 0 min 0,000 mm 0,0 UV-I 9 W/m² 7,6 °C 0,0 km/h (0 Bft)
26.10.2016 08:31 8,2 °C 8,3 °C 96 % 1024,5 hPa 0,0 mm 0,0 km/h (0 Bft) NO 47 ° 0 min 0,000 mm 0,0 UV-I 11 W/m² 7,6 °C 0,0 km/h (0 Bft)
26.10.2016 08:32 8,3 °C 8,3 °C 96 % 1024,5 hPa 0,0 mm 0,0 km/h (0 Bft) NO 47 ° 0 min 0,000 mm 0,0 UV-I 12 W/m² 7,7 °C 0,0 km/h (0 Bft)
26.10.2016 08:33 8,3 °C 8,3 °C 96 % 1024,5 hPa 0,0 mm 0,0 km/h (0 Bft) NO 47 ° 0 min 0,000 mm 0,0 UV-I 12 W/m² 7,7 °C 0,0 km/h (0 Bft)
26.10.2016 08:34 8,2 °C 8,3 °C 95 % 1024,5 hPa 0,0 mm 0,0 km/h (0 Bft) NO 47 ° 0 min 0,000 mm 0,0 UV-I 14 W/m² 7,4 °C 0,0 km/h (0 Bft)
26.10.2016 08:35 8,3 °C 8,3 °C 95 % 1024,5 hPa 0,0 mm 0,0 km/h (0 Bft) NO 47 ° 0 min 0,000 mm 0,0 UV-I 14 W/m² 7,5 °C 0,0 km/h (0 Bft)
26.10.2016 08:36 8,3 °C 8,3 °C 96 % 1024,5 hPa 0,0 mm 0,0 km/h (0 Bft) NO 47 ° 0 min 0,000 mm 0,0 UV-I 16 W/m² 7,7 °C 0,0 km/h (0 Bft)
26.10.2016 08:37 8,3 °C 8,3 °C 96 % 1024,6 hPa 0,0 mm 0,0 km/h (0 Bft) NO 47 ° 0 min 0,000 mm 0,0 UV-I 18 W/m² 7,7 °C 0,0 km/h (0 Bft)
26.10.2016 08:38 8,3 °C 8,3 °C 96 % 1024,5 hPa 0,0 mm 0,0 km/h (0 Bft) NO 47 ° 0 min 0,000 mm 0,0 UV-I 19 W/m² 7,7 °C 0,0 km/h (0 Bft)
26.10.2016 08:39 8,3 °C 8,3 °C 95 % 1024,6 hPa 0,0 mm 0,0 km/h (0 Bft) NO 47 ° 0 min 0,000 mm 0,0 UV-I 21 W/m² 7,5 °C 0,0 km/h (0 Bft)
26.10.2016 08:40 8,3 °C 8,3 °C 95 % 1024,6 hPa 0,0 mm 0,0 km/h (0 Bft) NO 47 ° 0 min 0,000 mm 0,0 UV-I 28 W/m² 7,5 °C 0,0 km/h (0 Bft)
26.10.2016 08:41 8,4 °C 8,4 °C 95 % 1024,6 hPa 0,0 mm 0,0 km/h (0 Bft) NO 47 ° 0 min 0,000 mm 0,0 UV-I 30 W/m² 7,6 °C 0,0 km/h (0 Bft)
26.10.2016 08:42 8,3 °C 8,4 °C 95 % 1024,6 hPa 0,0 mm 0,0 km/h (0 Bft) NO 47 ° 0 min 0,000 mm 0,0 UV-I 32 W/m² 7,5 °C 0,0 km/h (0 Bft)
26.10.2016 08:43 8,4 °C 8,4 °C 95 % 1024,6 hPa 0,0 mm 0,0 km/h (0 Bft) NO 47 ° 0 min 0,000 mm 0,0 UV-I 33 W/m² 7,6 °C 0,0 km/h (0 Bft)
26.10.2016 08:44 8,3 °C 8,4 °C 95 % 1024,6 hPa 0,0 mm 0,0 km/h (0 Bft) NO 47 ° 0 min 0,000 mm 0,0 UV-I 33 W/m² 7,5 °C 0,0 km/h (0 Bft)
26.10.2016 08:45 8,3 °C 8,4 °C 95 % 1024,6 hPa 0,0 mm 0,0 km/h (0 Bft) NO 47 ° 0 min 0,000 mm 0,0 UV-I 33 W/m² 7,5 °C 0,0 km/h (0 Bft)
26.10.2016 08:46 8,3 °C 8,4 °C 95 % 1024,7 hPa 0,0 mm 0,0 km/h (0 Bft) NO 47 ° 0 min 0,000 mm 0,0 UV-I 30 W/m² 7,5 °C 0,0 km/h (0 Bft)
26.10.2016 08:47 8,3 °C 8,4 °C 95 % 1024,7 hPa 0,0 mm 0,0 km/h (0 Bft) NO 47 ° 0 min 0,000 mm 0,0 UV-I 30 W/m² 7,5 °C 0,0 km/h (0 Bft)
26.10.2016 08:48 8,3 °C 8,4 °C 95 % 1024,7 hPa 0,0 mm 0,0 km/h (0 Bft) NO 47 ° 0 min 0,000 mm 0,0 UV-I 30 W/m² 7,5 °C 0,0 km/h (0 Bft)
26.10.2016 08:49 8,4 °C 8,4 °C 95 % 1024,7 hPa 0,0 mm 0,0 km/h (0 Bft) NO 47 ° 0 min 0,000 mm 0,0 UV-I 28 W/m² 7,6 °C 0,0 km/h (0 Bft)
26.10.2016 08:50 8,4 °C 8,4 °C 95 % 1024,7 hPa 0,0 mm 0,0 km/h (0 Bft) NO 47 ° 0 min 0,000 mm 0,0 UV-I 28 W/m² 7,6 °C 0,0 km/h (0 Bft)
26.10.2016 08:51 8,4 °C 8,4 °C 95 % 1024,7 hPa 0,0 mm 0,0 km/h (0 Bft) NO 47 ° 0 min 0,000 mm 0,0 UV-I 28 W/m² 7,6 °C 0,0 km/h (0 Bft)
26.10.2016 08:52 8,4 °C 8,4 °C 95 % 1024,7 hPa 0,0 mm 0,0 km/h (0 Bft) NO 47 ° 0 min 0,000 mm 0,0 UV-I 30 W/m² 7,6 °C 0,0 km/h (0 Bft)
26.10.2016 08:53 8,4 °C 8,4 °C 95 % 1024,7 hPa 0,0 mm 0,0 km/h (0 Bft) NO 47 ° 0 min 0,000 mm 0,0 UV-I 30 W/m² 7,6 °C 0,0 km/h (0 Bft)
26.10.2016 08:54 8,4 °C 8,4 °C 95 % 1024,7 hPa 0,0 mm 0,0 km/h (0 Bft) NO 47 ° 0 min 0,000 mm 0,0 UV-I 30 W/m² 7,6 °C 0,0 km/h (0 Bft)
26.10.2016 08:55 8,5 °C 8,5 °C 95 % 1024,7 hPa 0,0 mm 0,0 km/h (0 Bft) NO 47 ° 0 min 0,000 mm 0,0 UV-I 30 W/m² 7,7 °C 0,0 km/h (0 Bft)
26.10.2016 08:56 8,5 °C 8,5 °C 95 % 1024,7 hPa 0,0 mm 0,0 km/h (0 Bft) NO 47 ° 0 min 0,000 mm 0,0 UV-I 30 W/m² 7,7 °C 0,0 km/h (0 Bft)
26.10.2016 08:57 8,5 °C 8,5 °C 95 % 1024,7 hPa 0,0 mm 0,0 km/h (0 Bft) NO 47 ° 0 min 0,000 mm 0,0 UV-I 28 W/m² 7,7 °C 0,0 km/h (0 Bft)
26.10.2016 08:58 8,5 °C 8,5 °C 95 % 1024,7 hPa 0,0 mm 0,0 km/h (0 Bft) NO 47 ° 0 min 0,000 mm 0,0 UV-I 26 W/m² 7,7 °C 0,0 km/h (0 Bft)
26.10.2016 08:59 8,5 °C 8,6 °C 95 % 1024,7 hPa 0,0 mm 0,0 km/h (0 Bft) NO 47 ° 0 min 0,000 mm 0,0 UV-I 26 W/m² 7,7 °C 0,0 km/h (0 Bft)
26.10.2016 09:00 8,5 °C 8,5 °C 95 % 1024,7 hPa 0,0 mm 0,0 km/h (0 Bft) NO 47 ° 0 min 0,000 mm 0,0 UV-I 25 W/m² 7,7 °C 0,0 km/h (0 Bft)
26.10.2016 09:01 8,6 °C 8,6 °C 95 % 1024,8 hPa 0,0 mm 0,0 km/h (0 Bft) NO 47 ° 0 min 0,000 mm 0,0 UV-I 25 W/m² 7,8 °C 0,0 km/h (0 Bft)
26.10.2016 09:02 8,6 °C 8,6 °C 94 % 1024,8 hPa 0,0 mm 0,0 km/h (0 Bft) NO 47 ° 0 min 0,000 mm 0,0 UV-I 25 W/m² 7,7 °C 0,0 km/h (0 Bft)
26.10.2016 09:03 8,5 °C 8,6 °C 94 % 1024,8 hPa 0,0 mm 0,0 km/h (0 Bft) NO 47 ° 0 min 0,000 mm 0,0 UV-I 23 W/m² 7,6 °C 0,0 km/h (0 Bft)
26.10.2016 09:04 8,5 °C 8,6 °C 94 % 1024,7 hPa 0,0 mm 0,0 km/h (0 Bft) NO 47 ° 0 min 0,000 mm 0,0 UV-I 25 W/m² 7,6 °C 0,0 km/h (0 Bft)
26.10.2016 09:05 8,6 °C 8,6 °C 95 % 1024,8 hPa 0,0 mm 0,0 km/h (0 Bft) NO 47 ° 0 min 0,000 mm 0,0 UV-I 26 W/m² 7,8 °C 0,0 km/h (0 Bft)
26.10.2016 09:06 8,6 °C 8,6 °C 95 % 1024,8 hPa 0,0 mm 0,0 km/h (0 Bft) NO 47 ° 0 min 0,000 mm 0,0 UV-I 28 W/m² 7,8 °C 0,0 km/h (0 Bft)
26.10.2016 09:07 8,6 °C 8,6 °C 95 % 1024,8 hPa 0,0 mm 0,0 km/h (0 Bft) NO 47 ° 0 min 0,000 mm 0,0 UV-I 30 W/m² 7,8 °C 0,0 km/h (0 Bft)
26.10.2016 09:08 8,6 °C 8,6 °C 95 % 1024,7 hPa 0,0 mm 0,0 km/h (0 Bft) NO 47 ° 0 min 0,000 mm 0,0 UV-I 30 W/m² 7,8 °C 0,0 km/h (0 Bft)
26.10.2016 09:09 8,6 °C 8,6 °C 95 % 1024,8 hPa 0,0 mm 0,3 km/h (0 Bft) NO 47 ° 0 min 0,000 mm 0,0 UV-I 30 W/m² 7,8 °C 1,6 km/h (1 Bft)
26.10.2016 09:10 8,6 °C 8,6 °C 95 % 1024,8 hPa 0,0 mm 1,4 km/h (1 Bft) NO 47 ° 0 min 0,000 mm 0,0 UV-I 28 W/m² 7,8 °C 3,2 km/h (1 Bft)
26.10.2016 09:11 8,6 °C 8,6 °C 95 % 1024,8 hPa 0,0 mm 0,6 km/h (0 Bft) NO 47 ° 0 min 0,000 mm 0,0 UV-I 28 W/m² 7,8 °C 1,6 km/h (1 Bft)
26.10.2016 09:12 8,6 °C 8,6 °C 95 % 1024,8 hPa 0,0 mm 1,1 km/h (1 Bft) NO 47 ° 0 min 0,000 mm 0,0 UV-I 28 W/m² 7,8 °C 3,2 km/h (1 Bft)
26.10.2016 09:13 8,6 °C 8,6 °C 95 % 1024,8 hPa 0,0 mm 3,0 km/h (1 Bft) NO 47 ° 0 min 0,000 mm 0,0 UV-I 26 W/m² 7,8 °C 3,2 km/h (1 Bft)
26.10.2016 09:14 8,6 °C 8,6 °C 95 % 1024,8 hPa 0,0 mm 2,8 km/h (1 Bft) NO 47 ° 0 min 0,000 mm 0,0 UV-I 23 W/m² 7,8 °C 4,8 km/h (1 Bft)
26.10.2016 09:15 8,6 °C 8,6 °C 95 % 1024,8 hPa 0,0 mm 1,6 km/h (1 Bft) NO 47 ° 0 min 0,000 mm 0,0 UV-I 19 W/m² 7,8 °C 3,2 km/h (1 Bft)
26.10.2016 09:16 8,5 °C 8,6 °C 95 % 1024,8 hPa 0,0 mm 1,0 km/h (0 Bft) NO 47 ° 0 min 0,000 mm 0,0 UV-I 19 W/m² 7,7 °C 1,6 km/h (1 Bft)
26.10.2016 09:17 8,6 °C 8,6 °C 95 % 1024,8 hPa 0,0 mm 1,0 km/h (0 Bft) NO 47 ° 0 min 0,000 mm 0,0 UV-I 19 W/m² 7,8 °C 1,6 km/h (1 Bft)
26.10.2016 09:18 8,6 °C 8,6 °C 95 % 1024,8 hPa 0,0 mm 1,9 km/h (1 Bft) NO 47 ° 0 min 0,000 mm 0,0 UV-I 19 W/m² 7,8 °C 4,8 km/h (1 Bft)
26.10.2016 09:19 8,6 °C 8,6 °C 95 % 1024,8 hPa 0,0 mm 1,9 km/h (1 Bft) NO 47 ° 0 min 0,000 mm 0,0 UV-I 19 W/m² 7,8 °C 3,2 km/h (1 Bft)
26.10.2016 09:20 8,6 °C 8,6 °C 95 % 1024,8 hPa 0,0 mm 2,1 km/h (1 Bft) NO 47 ° 0 min 0,000 mm 0,0 UV-I 23 W/m² 7,8 °C 3,2 km/h (1 Bft)
26.10.2016 09:21 8,5 °C 8,6 °C 95 % 1024,8 hPa 0,0 mm 1,4 km/h (1 Bft) NO 46 ° 0 min 0,000 mm 0,0 UV-I 28 W/m² 7,7 °C 3,2 km/h (1 Bft)
26.10.2016 09:22 8,5 °C 8,5 °C 95 % 1024,8 hPa 0,0 mm 2,3 km/h (1 Bft) NO 47 ° 0 min 0,000 mm 0,0 UV-I 32 W/m² 7,7 °C 3,2 km/h (1 Bft)
26.10.2016 09:23 8,5 °C 8,5 °C 95 % 1024,8 hPa 0,0 mm 3,1 km/h (1 Bft) O-NO 71 ° 0 min 0,000 mm 0,0 UV-I 37 W/m² 7,7 °C 4,8 km/h (1 Bft)
26.10.2016 09:24 8,5 °C 8,5 °C 95 % 1024,8 hPa 0,0 mm 2,4 km/h (1 Bft) O-NO 59 ° 0 min 0,000 mm 0,0 UV-I 40 W/m² 7,7 °C 6,4 km/h (2 Bft)
26.10.2016 09:25 8,5 °C 8,5 °C 95 % 1024,8 hPa 0,0 mm 1,0 km/h (0 Bft) O-NO 58 ° 0 min 0,000 mm 0,0 UV-I 40 W/m² 7,7 °C 1,6 km/h (1 Bft)
26.10.2016 09:26 8,6 °C 8,6 °C 95 % 1024,8 hPa 0,0 mm 2,7 km/h (1 Bft) O-NO 58 ° 0 min 0,000 mm 0,0 UV-I 47 W/m² 7,8 °C 3,2 km/h (1 Bft)
26.10.2016 09:27 8,6 °C 8,6 °C 95 % 1024,8 hPa 0,0 mm 1,5 km/h (1 Bft) O-NO 58 ° 0 min 0,000 mm 0,0 UV-I 51 W/m² 7,8 °C 3,2 km/h (1 Bft)
26.10.2016 09:28 8,6 °C 8,6 °C 95 % 1024,8 hPa 0,0 mm 2,2 km/h (1 Bft) O-NO 57 ° 0 min 0,000 mm 0,0 UV-I 51 W/m² 7,8 °C 3,2 km/h (1 Bft)
26.10.2016 09:29 8,6 °C 8,6 °C 95 % 1024,8 hPa 0,0 mm 3,2 km/h (1 Bft) O-NO 63 ° 0 min 0,000 mm 0,0 UV-I 49 W/m² 7,8 °C 4,8 km/h (1 Bft)
26.10.2016 09:30 8,6 °C 8,6 °C 95 % 1024,8 hPa 0,0 mm 4,0 km/h (1 Bft) O 85 ° 0 min 0,000 mm 0,0 UV-I 47 W/m² 7,8 °C 6,4 km/h (2 Bft)
26.10.2016 09:31 8,6 °C 8,6 °C 95 % 1024,8 hPa 0,0 mm 4,2 km/h (1 Bft) O-NO 74 ° 0 min 0,000 mm 0,0 UV-I 42 W/m² 7,8 °C 6,4 km/h (2 Bft)
26.10.2016 09:32 8,6 °C 8,6 °C 95 % 1024,8 hPa 0,0 mm 2,7 km/h (1 Bft) O-NO 74 ° 0 min 0,000 mm 0,0 UV-I 40 W/m² 7,8 °C 3,2 km/h (1 Bft)
26.10.2016 09:33 8,6 °C 8,6 °C 95 % 1024,8 hPa 0,0 mm 2,5 km/h (1 Bft) O-NO 74 ° 0 min 0,000 mm 0,0 UV-I 37 W/m² 7,8 °C 3,2 km/h (1 Bft)
26.10.2016 09:34 8,6 °C 8,6 °C 95 % 1024,9 hPa 0,0 mm 4,6 km/h (1 Bft) O-NO 63 ° 0 min 0,000 mm 0,0 UV-I 33 W/m² 7,8 °C 6,4 km/h (2 Bft)
26.10.2016 09:35 8,6 °C 8,6 °C 95 % 1024,8 hPa 0,0 mm 3,9 km/h (1 Bft) O-NO 62 ° 0 min 0,000 mm 0,0 UV-I 33 W/m² 7,8 °C 4,8 km/h (1 Bft)
26.10.2016 09:36 8,6 °C 8,6 °C 95 % 1024,9 hPa 0,0 mm 2,0 km/h (1 Bft) O-NO 62 ° 0 min 0,000 mm 0,0 UV-I 32 W/m² 7,8 °C 3,2 km/h (1 Bft)
26.10.2016 09:37 8,6 °C 8,6 °C 95 % 1024,8 hPa 0,0 mm 1,0 km/h (0 Bft) O-NO 62 ° 0 min 0,000 mm 0,0 UV-I 32 W/m² 7,8 °C 1,6 km/h (1 Bft)
26.10.2016 09:38 8,6 °C 8,6 °C 95 % 1024,8 hPa 0,0 mm 1,1 km/h (1 Bft) O-NO 62 ° 0 min 0,000 mm 0,0 UV-I 32 W/m² 7,8 °C 3,2 km/h (1 Bft)
26.10.2016 09:39 8,6 °C 8,6 °C 95 % 1024,9 hPa 0,0 mm 4,0 km/h (1 Bft) NO 55 ° 0 min 0,000 mm 0,0 UV-I 33 W/m² 7,8 °C 4,8 km/h (1 Bft)
26.10.2016 09:40 8,6 °C 8,6 °C 95 % 1024,9 hPa 0,0 mm 3,7 km/h (1 Bft) O-NO 75 ° 0 min 0,000 mm 0,0 UV-I 33 W/m² 7,8 °C 4,8 km/h (1 Bft)
26.10.2016 09:41 8,6 °C 8,6 °C 95 % 1024,8 hPa 0,0 mm 3,5 km/h (1 Bft) NO 49 ° 0 min 0,000 mm 0,0 UV-I 35 W/m² 7,8 °C 4,8 km/h (1 Bft)
26.10.2016 09:42 8,6 °C 8,6 °C 95 % 1024,8 hPa 0,0 mm 2,5 km/h (1 Bft) NO 49 ° 0 min 0,000 mm 0,0 UV-I 37 W/m² 7,8 °C 3,2 km/h (1 Bft)
26.10.2016 09:43 8,6 °C 8,6 °C 95 % 1024,8 hPa 0,0 mm 2,9 km/h (1 Bft) O 88 ° 0 min 0,000 mm 0,0 UV-I 39 W/m² 7,8 °C 6,4 km/h (2 Bft)
26.10.2016 09:44 8,6 °C 8,6 °C 95 % 1024,8 hPa 0,0 mm 3,0 km/h (1 Bft) O 88 ° 0 min 0,000 mm 0,0 UV-I 40 W/m² 7,8 °C 4,8 km/h (1 Bft)
26.10.2016 09:45 8,6 °C 8,6 °C 95 % 1024,8 hPa 0,0 mm 4,8 km/h (1 Bft) NO 54 ° 0 min 0,000 mm 0,0 UV-I 42 W/m² 7,8 °C 6,4 km/h (2 Bft)
26.10.2016 09:46 8,6 °C 8,6 °C 95 % 1024,8 hPa 0,0 mm 4,1 km/h (1 Bft) O 84 ° 0 min 0,000 mm 0,0 UV-I 44 W/m² 7,8 °C 6,4 km/h (2 Bft)
26.10.2016 09:47 8,6 °C 8,6 °C 95 % 1024,8 hPa 0,0 mm 2,8 km/h (1 Bft) N 5 ° 0 min 0,000 mm 0,0 UV-I 44 W/m² 7,8 °C 4,8 km/h (1 Bft)
26.10.2016 09:48 8,7 °C 8,7 °C 95 % 1024,8 hPa 0,0 mm 1,8 km/h (1 Bft) NO 34 ° 0 min 0,000 mm 0,0 UV-I 44 W/m² 7,9 °C 3,2 km/h (1 Bft)
26.10.2016 09:49 8,6 °C 8,7 °C 95 % 1024,8 hPa 0,0 mm 2,5 km/h (1 Bft) NO 48 ° 0 min 0,000 mm 0,0 UV-I 44 W/m² 7,8 °C 4,8 km/h (1 Bft)
26.10.2016 09:50 8,6 °C 8,7 °C 95 % 1024,8 hPa 0,0 mm 5,6 km/h (1 Bft) O-NO 57 ° 0 min 0,000 mm 0,0 UV-I 42 W/m² 7,8 °C 8,0 km/h (2 Bft)
26.10.2016 09:51 8,6 °C 8,7 °C 95 % 1024,9 hPa 0,0 mm 3,7 km/h (1 Bft) NO 56 ° 0 min 0,000 mm 0,0 UV-I 40 W/m² 7,8 °C 6,4 km/h (2 Bft)
26.10.2016 09:52 8,7 °C 8,7 °C 95 % 1024,8 hPa 0,0 mm 4,5 km/h (1 Bft) O-NO 59 ° 0 min 0,000 mm 0,0 UV-I 39 W/m² 7,9 °C 6,4 km/h (2 Bft)
26.10.2016 09:53 8,6 °C 8,7 °C 95 % 1024,9 hPa 0,0 mm 4,3 km/h (1 Bft) O-NO 61 ° 0 min 0,000 mm 0,0 UV-I 37 W/m² 7,8 °C 6,4 km/h (2 Bft)
26.10.2016 09:54 8,6 °C 8,7 °C 95 % 1024,9 hPa 0,0 mm 2,9 km/h (1 Bft) O-NO 78 ° 0 min 0,000 mm 0,0 UV-I 35 W/m² 7,8 °C 4,8 km/h (1 Bft)
26.10.2016 09:55 8,6 °C 8,7 °C 95 % 1024,9 hPa 0,0 mm 1,9 km/h (1 Bft) NO 56 ° 0 min 0,000 mm 0,0 UV-I 33 W/m² 7,8 °C 4,8 km/h (1 Bft)
26.10.2016 09:56 8,6 °C 8,7 °C 95 % 1024,9 hPa 0,0 mm 1,5 km/h (1 Bft) O-NO 57 ° 0 min 0,000 mm 0,0 UV-I 33 W/m² 7,8 °C 3,2 km/h (1 Bft)
26.10.2016 09:57 8,6 °C 8,7 °C 95 % 1024,9 hPa 0,0 mm 2,4 km/h (1 Bft) NO 56 ° 0 min 0,000 mm 0,0 UV-I 32 W/m² 7,8 °C 3,2 km/h (1 Bft)
26.10.2016 09:58 8,7 °C 8,7 °C 95 % 1025,0 hPa 0,0 mm 4,7 km/h (1 Bft) NO 50 ° 0 min 0,000 mm 0,0 UV-I 32 W/m² 7,9 °C 6,4 km/h (2 Bft)
26.10.2016 09:59 8,6 °C 8,7 °C 95 % 1025,0 hPa 0,0 mm 3,2 km/h (1 Bft) NO 51 ° 0 min 0,000 mm 0,0 UV-I 32 W/m² 7,8 °C 4,8 km/h (1 Bft)
26.10.2016 10:00 8,6 °C 8,7 °C 95 % 1025,0 hPa 0,0 mm 2,8 km/h (1 Bft) O-NO 63 ° 0 min 0,025 mm 0,0 UV-I 30 W/m² 7,8 °C 4,8 km/h (1 Bft)
26.10.2016 10:01 8,7 °C 8,7 °C 95 % 1025,1 hPa 0,0 mm 1,6 km/h (1 Bft) O-NO 63 ° 0 min 0,000 mm 0,0 UV-I 30 W/m² 7,9 °C 3,2 km/h (1 Bft)
26.10.2016 10:02 8,7 °C 8,7 °C 95 % 1025,0 hPa 0,0 mm 2,5 km/h (1 Bft) O-NO 63 ° 0 min 0,000 mm 0,0 UV-I 28 W/m² 7,9 °C 4,8 km/h (1 Bft)
26.10.2016 10:03 8,6 °C 8,7 °C 95 % 1025,1 hPa 0,0 mm 1,9 km/h (1 Bft) O-NO 73 ° 0 min 0,000 mm 0,0 UV-I 28 W/m² 7,8 °C 4,8 km/h (1 Bft)
26.10.2016 10:04 8,7 °C 8,7 °C 95 % 1025,1 hPa 0,0 mm 5,7 km/h (1 Bft) O-NO 69 ° 0 min 0,000 mm 0,0 UV-I 30 W/m² 7,9 °C 8,0 km/h (2 Bft)
26.10.2016 10:05 8,6 °C 8,7 °C 95 % 1025,1 hPa 0,0 mm 3,8 km/h (1 Bft) O-NO 57 ° 0 min 0,000 mm 0,0 UV-I 32 W/m² 7,8 °C 4,8 km/h (1 Bft)
26.10.2016 10:06 8,6 °C 8,7 °C 95 % 1025,1 hPa 0,0 mm 2,6 km/h (1 Bft) O-NO 57 ° 0 min 0,000 mm 0,0 UV-I 33 W/m² 7,8 °C 4,8 km/h (1 Bft)
26.10.2016 10:07 8,6 °C 8,7 °C 95 % 1025,1 hPa 0,0 mm 3,6 km/h (1 Bft) NO 55 ° 0 min 0,000 mm 0,0 UV-I 32 W/m² 7,8 °C 6,4 km/h (2 Bft)
26.10.2016 10:08 8,6 °C 8,6 °C 95 % 1025,1 hPa 0,0 mm 1,7 km/h (1 Bft) O-NO 57 ° 0 min 0,000 mm 0,0 UV-I 32 W/m² 7,8 °C 3,2 km/h (1 Bft)
26.10.2016 10:09 8,6 °C 8,6 °C 95 % 1025,1 hPa 0,0 mm 2,4 km/h (1 Bft) O-NO 76 ° 0 min 0,000 mm 0,0 UV-I 35 W/m² 7,8 °C 6,4 km/h (2 Bft)
26.10.2016 10:10 8,6 °C 8,6 °C 95 % 1025,1 hPa 0,0 mm 8,0 km/h (2 Bft) O-NO 77 ° 0 min 0,000 mm 0,0 UV-I 37 W/m² 7,8 °C 11,3 km/h (2 Bft)
26.10.2016 10:11 8,6 °C 8,6 °C 95 % 1025,1 hPa 0,0 mm 5,7 km/h (1 Bft) O-NO 71 ° 0 min 0,000 mm 0,0 UV-I 35 W/m² 7,8 °C 6,4 km/h (2 Bft)
26.10.2016 10:12 8,6 °C 8,6 °C 95 % 1025,1 hPa 0,0 mm 3,6 km/h (1 Bft) O-NO 63 ° 0 min 0,000 mm 0,0 UV-I 33 W/m² 7,8 °C 4,8 km/h (1 Bft)
26.10.2016 10:13 8,6 °C 8,7 °C 95 % 1025,1 hPa 0,0 mm 1,9 km/h (1 Bft) O-NO 63 ° 0 min 0,000 mm 0,0 UV-I 32 W/m² 7,8 °C 3,2 km/h (1 Bft)
26.10.2016 10:14 8,6 °C 8,7 °C 95 % 1025,1 hPa 0,0 mm 2,4 km/h (1 Bft) O-NO 63 ° 0 min 0,000 mm 0,0 UV-I 32 W/m² 7,8 °C 4,8 km/h (1 Bft)
26.10.2016 10:15 8,6 °C 8,6 °C 95 % 1025,1 hPa 0,0 mm 4,3 km/h (1 Bft) O-NO 64 ° 0 min 0,000 mm 0,0 UV-I 30 W/m² 7,8 °C 6,4 km/h (2 Bft)
26.10.2016 10:16 8,6 °C 8,6 °C 95 % 1025,1 hPa 0,0 mm 3,4 km/h (1 Bft) NO 38 ° 0 min 0,000 mm 0,0 UV-I 30 W/m² 7,8 °C 4,8 km/h (1 Bft)
26.10.2016 10:17 8,6 °C 8,6 °C 95 % 1025,1 hPa 0,0 mm 2,3 km/h (1 Bft) NO 40 ° 0 min 0,000 mm 0,0 UV-I 35 W/m² 7,8 °C 3,2 km/h (1 Bft)
26.10.2016 10:18 8,7 °C 8,7 °C 95 % 1025,1 hPa 0,0 mm 2,4 km/h (1 Bft) NO 40 ° 0 min 0,000 mm 0,0 UV-I 35 W/m² 7,9 °C 3,2 km/h (1 Bft)
26.10.2016 10:19 8,7 °C 8,7 °C 95 % 1025,1 hPa 0,0 mm 3,5 km/h (1 Bft) O-NO 71 ° 0 min 0,000 mm 0,0 UV-I 33 W/m² 7,9 °C 4,8 km/h (1 Bft)
26.10.2016 10:20 8,7 °C 8,7 °C 95 % 1025,1 hPa 0,0 mm 2,9 km/h (1 Bft) O-NO 71 ° 0 min 0,000 mm 0,0 UV-I 28 W/m² 7,9 °C 4,8 km/h (1 Bft)
26.10.2016 10:21 8,7 °C 8,7 °C 95 % 1025,1 hPa 0,0 mm 3,8 km/h (1 Bft) NO 53 ° 0 min 0,000 mm 0,0 UV-I 26 W/m² 7,9 °C 4,8 km/h (1 Bft)
26.10.2016 10:22 8,7 °C 8,7 °C 95 % 1025,2 hPa 0,0 mm 0,9 km/h (0 Bft) NO 53 ° 0 min 0,000 mm 0,0 UV-I 26 W/m² 7,9 °C 1,6 km/h (1 Bft)
26.10.2016 10:23 8,7 °C 8,7 °C 95 % 1025,2 hPa 0,0 mm 2,8 km/h (1 Bft) O-NO 66 ° 0 min 0,000 mm 0,0 UV-I 26 W/m² 7,9 °C 4,8 km/h (1 Bft)
26.10.2016 10:24 8,7 °C 8,7 °C 95 % 1025,2 hPa 0,0 mm 2,8 km/h (1 Bft) NO 43 ° 0 min 0,000 mm 0,0 UV-I 26 W/m² 7,9 °C 4,8 km/h (1 Bft)
26.10.2016 10:25 8,7 °C 8,7 °C 95 % 1025,2 hPa 0,0 mm 3,7 km/h (1 Bft) NO 42 ° 0 min 0,000 mm 0,0 UV-I 23 W/m² 7,9 °C 4,8 km/h (1 Bft)
26.10.2016 10:26 8,7 °C 8,7 °C 95 % 1025,2 hPa 0,0 mm 3,2 km/h (1 Bft) NO 42 ° 0 min 0,000 mm 0,0 UV-I 21 W/m² 7,9 °C 4,8 km/h (1 Bft)
26.10.2016 10:27 8,7 °C 8,7 °C 95 % 1025,3 hPa 0,0 mm 1,5 km/h (1 Bft) NO 42 ° 0 min 0,000 mm 0,0 UV-I 21 W/m² 7,9 °C 3,2 km/h (1 Bft)
26.10.2016 10:28 8,7 °C 8,7 °C 95 % 1025,2 hPa 0,0 mm 2,6 km/h (1 Bft) NO 42 ° 0 min 0,000 mm 0,0 UV-I 21 W/m² 7,9 °C 4,8 km/h (1 Bft)
26.10.2016 10:29 8,7 °C 8,7 °C 95 % 1025,2 hPa 0,0 mm 0,7 km/h (0 Bft) NO 42 ° 0 min 0,000 mm 0,0 UV-I 21 W/m² 7,9 °C 1,6 km/h (1 Bft)
26.10.2016 10:30 8,7 °C 8,7 °C 95 % 1025,2 hPa 0,0 mm 0,7 km/h (0 Bft) NO 42 ° 0 min 0,000 mm 0,0 UV-I 21 W/m² 7,9 °C 1,6 km/h (1 Bft)
26.10.2016 10:31 8,7 °C 8,7 °C 95 % 1025,3 hPa 0,0 mm 0,2 km/h (0 Bft) NO 42 ° 0 min 0,000 mm 0,0 UV-I 21 W/m² 7,9 °C 1,6 km/h (1 Bft)
26.10.2016 10:32 8,7 °C 8,7 °C 95 % 1025,3 hPa 0,0 mm 3,4 km/h (1 Bft) O-NO 68 ° 0 min 0,000 mm 0,0 UV-I 21 W/m² 7,9 °C 4,8 km/h (1 Bft)
26.10.2016 10:33 8,7 °C 8,7 °C 95 % 1025,3 hPa 0,0 mm 2,0 km/h (1 Bft) O-NO 68 ° 0 min 0,000 mm 0,0 UV-I 23 W/m² 7,9 °C 3,2 km/h (1 Bft)
26.10.2016 10:34 8,7 °C 8,7 °C 95 % 1025,3 hPa 0,0 mm 0,8 km/h (0 Bft) O-NO 68 ° 0 min 0,000 mm 0,0 UV-I 25 W/m² 7,9 °C 1,6 km/h (1 Bft)
26.10.2016 10:35 8,7 °C 8,7 °C 95 % 1025,3 hPa 0,0 mm 2,7 km/h (1 Bft) NO 53 ° 0 min 0,000 mm 0,0 UV-I 28 W/m² 7,9 °C 4,8 km/h (1 Bft)
26.10.2016 10:36 8,7 °C 8,7 °C 95 % 1025,3 hPa 0,0 mm 2,7 km/h (1 Bft) NO 53 ° 0 min 0,000 mm 0,0 UV-I 30 W/m² 7,9 °C 3,2 km/h (1 Bft)
26.10.2016 10:37 8,7 °C 8,7 °C 95 % 1025,3 hPa 0,0 mm 3,2 km/h (1 Bft) NO 42 ° 0 min 0,000 mm 0,0 UV-I 28 W/m² 7,9 °C 4,8 km/h (1 Bft)
26.10.2016 10:38 8,7 °C 8,7 °C 95 % 1025,3 hPa 0,0 mm 3,9 km/h (1 Bft) NO 52 ° 0 min 0,000 mm 0,0 UV-I 30 W/m² 7,9 °C 4,8 km/h (1 Bft)
26.10.2016 10:39 8,7 °C 8,7 °C 95 % 1025,3 hPa 0,0 mm 3,0 km/h (1 Bft) O-NO 63 ° 0 min 0,000 mm 0,0 UV-I 30 W/m² 7,9 °C 4,8 km/h (1 Bft)
26.10.2016 10:40 8,7 °C 8,7 °C 95 % 1025,3 hPa 0,0 mm 4,3 km/h (1 Bft) NO 50 ° 0 min 0,000 mm 0,0 UV-I 28 W/m² 7,9 °C 6,4 km/h (2 Bft)
26.10.2016 10:41 8,7 °C 8,7 °C 95 % 1025,3 hPa 0,0 mm 4,7 km/h (1 Bft) NO 52 ° 0 min 0,000 mm 0,0 UV-I 33 W/m² 7,9 °C 6,4 km/h (2 Bft)
26.10.2016 10:42 8,7 °C 8,7 °C 95 % 1025,3 hPa 0,0 mm 5,2 km/h (1 Bft) O-NO 59 ° 0 min 0,000 mm 0,0 UV-I 40 W/m² 7,9 °C 6,4 km/h (2 Bft)
26.10.2016 10:43 8,7 °C 8,7 °C 95 % 1025,3 hPa 0,0 mm 3,2 km/h (1 Bft) O-NO 57 ° 0 min 0,000 mm 0,0 UV-I 42 W/m² 7,9 °C 4,8 km/h (1 Bft)
26.10.2016 10:44 8,7 °C 8,7 °C 95 % 1025,3 hPa 0,0 mm 1,5 km/h (1 Bft) O-NO 57 ° 0 min 0,000 mm 0,0 UV-I 40 W/m² 7,9 °C 3,2 km/h (1 Bft)
26.10.2016 10:45 8,7 °C 8,7 °C 95 % 1025,3 hPa 0,0 mm 1,4 km/h (1 Bft) O-NO 57 ° 0 min 0,000 mm 0,0 UV-I 39 W/m² 7,9 °C 4,8 km/h (1 Bft)
26.10.2016 10:46 8,7 °C 8,7 °C 95 % 1025,3 hPa 0,0 mm 1,0 km/h (0 Bft) O-NO 57 ° 0 min 0,000 mm 0,0 UV-I 37 W/m² 7,9 °C 1,6 km/h (1 Bft)
26.10.2016 10:47 8,7 °C 8,7 °C 95 % 1025,3 hPa 0,0 mm 2,8 km/h (1 Bft) O-NO 57 ° 0 min 0,000 mm 0,0 UV-I 37 W/m² 7,9 °C 6,4 km/h (2 Bft)
26.10.2016 10:48 8,8 °C 8,8 °C 95 % 1025,3 hPa 0,0 mm 5,6 km/h (1 Bft) O-NO 63 ° 0 min 0,000 mm 0,0 UV-I 39 W/m² 8,0 °C 6,4 km/h (2 Bft)
26.10.2016 10:49 8,7 °C 8,8 °C 95 % 1025,3 hPa 0,0 mm 3,5 km/h (1 Bft) NO 46 ° 0 min 0,000 mm 0,0 UV-I 40 W/m² 7,9 °C 6,4 km/h (2 Bft)
26.10.2016 10:50 8,8 °C 8,8 °C 95 % 1025,3 hPa 0,0 mm 4,6 km/h (1 Bft) O-NO 76 ° 0 min 0,000 mm 0,0 UV-I 39 W/m² 8,0 °C 8,0 km/h (2 Bft)
26.10.2016 10:51 8,7 °C 8,8 °C 95 % 1025,3 hPa 0,0 mm 2,9 km/h (1 Bft) O-NO 61 ° 0 min 0,000 mm 0,0 UV-I 35 W/m² 7,9 °C 4,8 km/h (1 Bft)
26.10.2016 10:52 8,7 °C 8,8 °C 95 % 1025,3 hPa 0,0 mm 4,7 km/h (1 Bft) NO 38 ° 0 min 0,000 mm 0,0 UV-I 35 W/m² 7,9 °C 6,4 km/h (2 Bft)
26.10.2016 10:53 8,8 °C 8,8 °C 95 % 1025,3 hPa 0,0 mm 1,6 km/h (1 Bft) NO 38 ° 0 min 0,000 mm 0,0 UV-I 37 W/m² 8,0 °C 3,2 km/h (1 Bft)
26.10.2016 10:54 8,7 °C 8,8 °C 95 % 1025,3 hPa 0,0 mm 1,7 km/h (1 Bft) NO 38 ° 0 min 0,000 mm 0,0 UV-I 35 W/m² 7,9 °C 3,2 km/h (1 Bft)
26.10.2016 10:55 8,7 °C 8,8 °C 95 % 1025,3 hPa 0,0 mm 2,9 km/h (1 Bft) NO 53 ° 0 min 0,000 mm 0,0 UV-I 35 W/m² 7,9 °C 4,8 km/h (1 Bft)
26.10.2016 10:56 8,7 °C 8,7 °C 95 % 1025,3 hPa 0,0 mm 3,4 km/h (1 Bft) O-NO 59 ° 0 min 0,000 mm 0,0 UV-I 33 W/m² 7,9 °C 4,8 km/h (1 Bft)
26.10.2016 10:57 8,7 °C 8,7 °C 95 % 1025,3 hPa 0,0 mm 3,9 km/h (1 Bft) O-NO 71 ° 0 min 0,000 mm 0,0 UV-I 33 W/m² 7,9 °C 6,4 km/h (2 Bft)
26.10.2016 10:58 8,7 °C 8,7 °C 95 % 1025,3 hPa 0,0 mm 3,1 km/h (1 Bft) O-NO 69 ° 0 min 0,000 mm 0,0 UV-I 30 W/m² 7,9 °C 3,2 km/h (1 Bft)
26.10.2016 10:59 8,7 °C 8,7 °C 95 % 1025,3 hPa 0,0 mm 1,9 km/h (1 Bft) O-NO 69 ° 0 min 0,000 mm 0,0 UV-I 26 W/m² 7,9 °C 4,8 km/h (1 Bft)
26.10.2016 11:00 8,7 °C 8,8 °C 95 % 1025,3 hPa 0,0 mm 1,3 km/h (1 Bft) O-NO 69 ° 0 min 0,000 mm 0,0 UV-I 30 W/m² 7,9 °C 3,2 km/h (1 Bft)
26.10.2016 11:01 8,8 °C 8,8 °C 95 % 1025,3 hPa 0,0 mm 2,3 km/h (1 Bft) O-NO 68 ° 0 min 0,026 mm 0,0 UV-I 35 W/m² 8,0 °C 4,8 km/h (1 Bft)
26.10.2016 11:02 8,8 °C 8,8 °C 95 % 1025,3 hPa 0,0 mm 4,0 km/h (1 Bft) NO 39 ° 0 min 0,000 mm 0,0 UV-I 40 W/m² 8,0 °C 6,4 km/h (2 Bft)
26.10.2016 11:03 8,7 °C 8,8 °C 95 % 1025,2 hPa 0,0 mm 2,8 km/h (1 Bft) NO 39 ° 0 min 0,000 mm 0,0 UV-I 42 W/m² 7,9 °C 4,8 km/h (1 Bft)
26.10.2016 11:04 8,8 °C 8,8 °C 95 % 1025,3 hPa 0,0 mm 2,2 km/h (1 Bft) O-NO 60 ° 0 min 0,000 mm 0,0 UV-I 46 W/m² 8,0 °C 3,2 km/h (1 Bft)
26.10.2016 11:05 8,8 °C 8,8 °C 95 % 1025,2 hPa 0,0 mm 2,7 km/h (1 Bft) O-NO 57 ° 0 min 0,000 mm 0,0 UV-I 49 W/m² 8,0 °C 4,8 km/h (1 Bft)
26.10.2016 11:06 8,8 °C 8,8 °C 95 % 1025,3 hPa 0,0 mm 2,7 km/h (1 Bft) O-NO 70 ° 0 min 0,000 mm 0,0 UV-I 49 W/m² 8,0 °C 4,8 km/h (1 Bft)
26.10.2016 11:07 8,8 °C 8,8 °C 95 % 1025,2 hPa 0,0 mm 4,1 km/h (1 Bft) O-NO 62 ° 0 min 0,000 mm 0,0 UV-I 47 W/m² 8,0 °C 6,4 km/h (2 Bft)
26.10.2016 11:08 8,8 °C 8,8 °C 95 % 1025,2 hPa 0,0 mm 4,8 km/h (1 Bft) O-NO 68 ° 0 min 0,000 mm 0,0 UV-I 49 W/m² 8,0 °C 6,4 km/h (2 Bft)
26.10.2016 11:09 8,8 °C 8,8 °C 95 % 1025,2 hPa 0,0 mm 5,3 km/h (1 Bft) O-NO 76 ° 0 min 0,000 mm 0,0 UV-I 51 W/m² 8,0 °C 8,0 km/h (2 Bft)
26.10.2016 11:10 8,8 °C 8,8 °C 95 % 1025,2 hPa 0,0 mm 2,1 km/h (1 Bft) O-NO 76 ° 0 min 0,000 mm 0,0 UV-I 53 W/m² 8,0 °C 3,2 km/h (1 Bft)
26.10.2016 11:11 8,8 °C 8,8 °C 95 % 1025,2 hPa 0,0 mm 1,0 km/h (0 Bft) O-NO 76 ° 0 min 0,000 mm 0,0 UV-I 56 W/m² 8,0 °C 3,2 km/h (1 Bft)
26.10.2016 11:12 8,8 °C 8,8 °C 95 % 1025,2 hPa 0,0 mm 1,2 km/h (1 Bft) O-NO 76 ° 0 min 0,000 mm 0,0 UV-I 58 W/m² 8,0 °C 1,6 km/h (1 Bft)
26.10.2016 11:13 8,8 °C 8,8 °C 95 % 1025,1 hPa 0,0 mm 0,7 km/h (0 Bft) O-NO 76 ° 0 min 0,000 mm 0,0 UV-I 58 W/m² 8,0 °C 1,6 km/h (1 Bft)
26.10.2016 11:14 8,9 °C 8,9 °C 95 % 1025,2 hPa 0,0 mm 2,3 km/h (1 Bft) NO 47 ° 0 min 0,000 mm 0,0 UV-I 56 W/m² 8,1 °C 3,2 km/h (1 Bft)
26.10.2016 11:15 8,8 °C 8,9 °C 95 % 1025,1 hPa 0,0 mm 3,6 km/h (1 Bft) NO 51 ° 0 min 0,000 mm 0,0 UV-I 56 W/m² 8,0 °C 4,8 km/h (1 Bft)
26.10.2016 11:16 8,8 °C 8,9 °C 95 % 1025,2 hPa 0,0 mm 3,6 km/h (1 Bft) O-NO 59 ° 0 min 0,000 mm 0,0 UV-I 54 W/m² 8,0 °C 4,8 km/h (1 Bft)
26.10.2016 11:17 8,8 °C 8,9 °C 94 % 1025,1 hPa 0,0 mm 3,1 km/h (1 Bft) NO 51 ° 0 min 0,000 mm 0,0 UV-I 54 W/m² 7,9 °C 4,8 km/h (1 Bft)
26.10.2016 11:18 8,8 °C 8,9 °C 94 % 1025,2 hPa 0,0 mm 2,3 km/h (1 Bft) NO 51 ° 0 min 0,000 mm 0,0 UV-I 53 W/m² 7,9 °C 3,2 km/h (1 Bft)
26.10.2016 11:19 8,9 °C 8,9 °C 95 % 1025,2 hPa 0,0 mm 3,0 km/h (1 Bft) NO 51 ° 0 min 0,000 mm 0,0 UV-I 49 W/m² 8,1 °C 3,2 km/h (1 Bft)
26.10.2016 11:20 8,9 °C 8,9 °C 95 % 1025,2 hPa 0,0 mm 4,0 km/h (1 Bft) O-NO 58 ° 0 min 0,000 mm 0,0 UV-I 47 W/m² 8,1 °C 6,4 km/h (2 Bft)
26.10.2016 11:21 8,9 °C 8,9 °C 95 % 1025,2 hPa 0,0 mm 3,0 km/h (1 Bft) O 79 ° 0 min 0,000 mm 0,0 UV-I 47 W/m² 8,1 °C 4,8 km/h (1 Bft)
26.10.2016 11:22 8,9 °C 8,9 °C 94 % 1025,2 hPa 0,0 mm 2,5 km/h (1 Bft) NO 49 ° 0 min 0,000 mm 0,0 UV-I 46 W/m² 8,0 °C 4,8 km/h (1 Bft)
26.10.2016 11:23 8,9 °C 8,9 °C 94 % 1025,2 hPa 0,0 mm 1,1 km/h (1 Bft) NO 49 ° 0 min 0,000 mm 0,0 UV-I 46 W/m² 8,0 °C 3,2 km/h (1 Bft)
26.10.2016 11:24 8,9 °C 8,9 °C 94 % 1025,3 hPa 0,0 mm 4,7 km/h (1 Bft) O-NO 75 ° 0 min 0,000 mm 0,0 UV-I 46 W/m² 8,0 °C 8,0 km/h (2 Bft)
26.10.2016 11:25 8,9 °C 8,9 °C 94 % 1025,3 hPa 0,0 mm 4,2 km/h (1 Bft) O-NO 77 ° 0 min 0,000 mm 0,0 UV-I 46 W/m² 8,0 °C 6,4 km/h (2 Bft)
26.10.2016 11:26 8,9 °C 8,9 °C 94 % 1025,3 hPa 0,0 mm 1,2 km/h (1 Bft) O-NO 77 ° 0 min 0,000 mm 0,0 UV-I 44 W/m² 8,0 °C 3,2 km/h (1 Bft)
26.10.2016 11:27 8,9 °C 8,9 °C 94 % 1025,3 hPa 0,0 mm 1,3 km/h (1 Bft) O-NO 77 ° 0 min 0,000 mm 0,0 UV-I 42 W/m² 8,0 °C 3,2 km/h (1 Bft)
26.10.2016 11:28 8,9 °C 8,9 °C 94 % 1025,4 hPa 0,0 mm 1,1 km/h (1 Bft) O-NO 71 ° 0 min 0,000 mm 0,0 UV-I 42 W/m² 8,0 °C 3,2 km/h (1 Bft)
26.10.2016 11:29 8,9 °C 8,9 °C 95 % 1025,4 hPa 0,0 mm 2,5 km/h (1 Bft) NO 49 ° 0 min 0,000 mm 0,0 UV-I 39 W/m² 8,1 °C 3,2 km/h (1 Bft)
26.10.2016 11:30 8,9 °C 8,9 °C 95 % 1025,4 hPa 0,0 mm 2,5 km/h (1 Bft) NO 49 ° 0 min 0,000 mm 0,0 UV-I 37 W/m² 8,1 °C 4,8 km/h (1 Bft)
26.10.2016 11:31 8,9 °C 8,9 °C 95 % 1025,5 hPa 0,0 mm 0,0 km/h (0 Bft) NO 49 ° 0 min 0,000 mm 0,0 UV-I 35 W/m² 8,1 °C 0,0 km/h (0 Bft)
26.10.2016 11:32 8,9 °C 8,9 °C 95 % 1025,5 hPa 0,0 mm 0,0 km/h (0 Bft) NO 49 ° 0 min 0,000 mm 0,0 UV-I 33 W/m² 8,1 °C 0,0 km/h (0 Bft)
26.10.2016 11:33 8,9 °C 8,9 °C 95 % 1025,5 hPa 0,0 mm 0,0 km/h (0 Bft) NO 49 ° 0 min 0,000 mm 0,0 UV-I 30 W/m² 8,1 °C 0,0 km/h (0 Bft)
26.10.2016 11:34 8,9 °C 8,9 °C 95 % 1025,5 hPa 0,0 mm 0,0 km/h (0 Bft) NO 49 ° 0 min 0,000 mm 0,0 UV-I 32 W/m² 8,1 °C 0,0 km/h (0 Bft)
26.10.2016 11:35 8,9 °C 8,9 °C 94 % 1025,5 hPa 0,0 mm 0,5 km/h (0 Bft) NO 46 ° 0 min 0,000 mm 0,0 UV-I 33 W/m² 8,0 °C 1,6 km/h (1 Bft)
26.10.2016 11:36 8,9 °C 8,9 °C 94 % 1025,5 hPa 0,0 mm 0,5 km/h (0 Bft) NO 44 ° 0 min 0,000 mm 0,0 UV-I 40 W/m² 8,0 °C 1,6 km/h (1 Bft)
26.10.2016 11:37 8,9 °C 8,9 °C 94 % 1025,6 hPa 0,0 mm 1,2 km/h (1 Bft) NO 44 ° 0 min 0,000 mm 0,0 UV-I 42 W/m² 8,0 °C 3,2 km/h (1 Bft)
26.10.2016 11:38 8,9 °C 8,9 °C 94 % 1025,6 hPa 0,0 mm 0,9 km/h (0 Bft) NO 44 ° 0 min 0,000 mm 0,0 UV-I 42 W/m² 8,0 °C 1,6 km/h (1 Bft)
26.10.2016 11:39 8,9 °C 8,9 °C 94 % 1025,6 hPa 0,0 mm 0,6 km/h (0 Bft) NO 44 ° 0 min 0,000 mm 0,0 UV-I 42 W/m² 8,0 °C 1,6 km/h (1 Bft)
26.10.2016 11:40 8,9 °C 8,9 °C 94 % 1025,6 hPa 0,0 mm 1,4 km/h (1 Bft) NO 44 ° 0 min 0,000 mm 0,0 UV-I 42 W/m² 8,0 °C 3,2 km/h (1 Bft)
26.10.2016 11:41 8,9 °C 8,9 °C 94 % 1025,6 hPa 0,0 mm 0,2 km/h (0 Bft) NO 44 ° 0 min 0,000 mm 0,0 UV-I 42 W/m² 8,0 °C 1,6 km/h (1 Bft)
26.10.2016 11:42 8,9 °C 8,9 °C 94 % 1025,7 hPa 0,0 mm 0,6 km/h (0 Bft) NO 44 ° 0 min 0,000 mm 0,0 UV-I 39 W/m² 8,0 °C 1,6 km/h (1 Bft)
26.10.2016 11:43 8,9 °C 8,9 °C 95 % 1025,6 hPa 0,0 mm 1,3 km/h (1 Bft) NO 44 ° 0 min 0,000 mm 0,0 UV-I 39 W/m² 8,1 °C 1,6 km/h (1 Bft)
26.10.2016 11:44 9,0 °C 9,0 °C 95 % 1025,7 hPa 0,0 mm 1,3 km/h (1 Bft) NO 44 ° 0 min 0,000 mm 0,0 UV-I 40 W/m² 8,2 °C 3,2 km/h (1 Bft)
26.10.2016 11:45 9,0 °C 9,0 °C 94 % 1025,6 hPa 0,0 mm 2,9 km/h (1 Bft) NO 44 ° 0 min 0,000 mm 0,0 UV-I 40 W/m² 8,1 °C 3,2 km/h (1 Bft)
26.10.2016 11:46 8,9 °C 9,0 °C 94 % 1025,6 hPa 0,0 mm 2,7 km/h (1 Bft) NO 44 ° 0 min 0,000 mm 0,0 UV-I 42 W/m² 8,0 °C 3,2 km/h (1 Bft)
26.10.2016 11:47 8,9 °C 9,0 °C 94 % 1025,7 hPa 0,0 mm 1,5 km/h (1 Bft) NO 44 ° 0 min 0,000 mm 0,0 UV-I 39 W/m² 8,0 °C 3,2 km/h (1 Bft)
26.10.2016 11:48 8,9 °C 8,9 °C 94 % 1025,7 hPa 0,0 mm 2,2 km/h (1 Bft) NO 36 ° 0 min 0,000 mm 0,0 UV-I 37 W/m² 8,0 °C 4,8 km/h (1 Bft)
26.10.2016 11:49 8,9 °C 8,9 °C 94 % 1025,7 hPa 0,0 mm 1,9 km/h (1 Bft) NO 36 ° 0 min 0,000 mm 0,0 UV-I 39 W/m² 8,0 °C 3,2 km/h (1 Bft)
26.10.2016 11:50 8,9 °C 8,9 °C 94 % 1025,7 hPa 0,0 mm 0,9 km/h (0 Bft) NO 36 ° 0 min 0,000 mm 0,0 UV-I 39 W/m² 8,0 °C 1,6 km/h (1 Bft)
26.10.2016 11:51 8,9 °C 8,9 °C 94 % 1025,7 hPa 0,0 mm 0,1 km/h (0 Bft) NO 36 ° 0 min 0,000 mm 0,0 UV-I 42 W/m² 8,0 °C 1,6 km/h (1 Bft)
26.10.2016 11:52 8,9 °C 9,0 °C 95 % 1025,7 hPa 0,0 mm 0,3 km/h (0 Bft) NO 36 ° 0 min 0,000 mm 0,0 UV-I 44 W/m² 8,1 °C 1,6 km/h (1 Bft)
26.10.2016 11:53 8,9 °C 8,9 °C 94 % 1025,7 hPa 0,0 mm 1,2 km/h (1 Bft) NO 36 ° 0 min 0,000 mm 0,0 UV-I 49 W/m² 8,0 °C 3,2 km/h (1 Bft)
26.10.2016 11:54 8,9 °C 8,9 °C 94 % 1025,7 hPa 0,0 mm 2,7 km/h (1 Bft) NO 42 ° 0 min 0,000 mm 0,0 UV-I 53 W/m² 8,0 °C 3,2 km/h (1 Bft)
26.10.2016 11:55 8,9 °C 8,9 °C 94 % 1025,7 hPa 0,0 mm 2,1 km/h (1 Bft) NO 42 ° 0 min 0,000 mm 0,0 UV-I 54 W/m² 8,0 °C 3,2 km/h (1 Bft)
26.10.2016 11:56 8,9 °C 9,0 °C 94 % 1025,7 hPa 0,0 mm 2,1 km/h (1 Bft) NO 42 ° 0 min 0,000 mm 0,0 UV-I 56 W/m² 8,0 °C 3,2 km/h (1 Bft)
26.10.2016 11:57 8,9 °C 9,0 °C 94 % 1025,7 hPa 0,0 mm 0,5 km/h (0 Bft) NO 42 ° 0 min 0,000 mm 0,5 UV-I 58 W/m² 8,0 °C 1,6 km/h (1 Bft)
26.10.2016 11:58 8,9 °C 9,0 °C 94 % 1025,7 hPa 0,0 mm 1,3 km/h (1 Bft) NO 42 ° 0 min 0,000 mm 0,5 UV-I 58 W/m² 8,0 °C 1,6 km/h (1 Bft)
26.10.2016 11:59 9,0 °C 9,0 °C 94 % 1025,7 hPa 0,0 mm 0,6 km/h (0 Bft) NO 42 ° 0 min 0,000 mm 0,5 UV-I 58 W/m² 8,1 °C 1,6 km/h (1 Bft)
26.10.2016 12:00 8,9 °C 9,0 °C 94 % 1025,7 hPa 0,0 mm 1,8 km/h (1 Bft) NO 42 ° 0 min 0,000 mm 0,6 UV-I 67 W/m² 8,0 °C 3,2 km/h (1 Bft)
26.10.2016 12:01 8,9 °C 8,9 °C 94 % 1025,6 hPa 0,0 mm 1,8 km/h (1 Bft) NO 42 ° 0 min 0,025 mm 0,6 UV-I 72 W/m² 8,0 °C 3,2 km/h (1 Bft)
26.10.2016 12:02 8,9 °C 8,9 °C 94 % 1025,6 hPa 0,0 mm 2,2 km/h (1 Bft) NO 42 ° 0 min 0,000 mm 0,6 UV-I 76 W/m² 8,0 °C 3,2 km/h (1 Bft)
26.10.2016 12:03 8,9 °C 9,0 °C 94 % 1025,6 hPa 0,0 mm 1,9 km/h (1 Bft) NO 42 ° 0 min 0,000 mm 0,6 UV-I 77 W/m² 8,0 °C 3,2 km/h (1 Bft)
26.10.2016 12:04 9,0 °C 9,0 °C 94 % 1025,6 hPa 0,0 mm 0,4 km/h (0 Bft) NO 42 ° 0 min 0,000 mm 0,7 UV-I 81 W/m² 8,1 °C 1,6 km/h (1 Bft)
26.10.2016 12:05 9,0 °C 9,0 °C 94 % 1025,6 hPa 0,0 mm 0,2 km/h (0 Bft) NO 42 ° 0 min 0,000 mm 0,7 UV-I 83 W/m² 8,1 °C 1,6 km/h (1 Bft)
26.10.2016 12:06 9,1 °C 9,1 °C 94 % 1025,7 hPa 0,0 mm 1,7 km/h (1 Bft) NO 42 ° 0 min 0,000 mm 0,6 UV-I 81 W/m² 8,2 °C 3,2 km/h (1 Bft)
26.10.2016 12:07 9,1 °C 9,1 °C 94 % 1025,6 hPa 0,0 mm 1,9 km/h (1 Bft) NO 51 ° 0 min 0,000 mm 0,6 UV-I 77 W/m² 8,2 °C 3,2 km/h (1 Bft)
26.10.2016 12:08 9,1 °C 9,1 °C 94 % 1025,6 hPa 0,0 mm 1,7 km/h (1 Bft) O-NO 59 ° 0 min 0,000 mm 0,6 UV-I 79 W/m² 8,2 °C 3,2 km/h (1 Bft)
26.10.2016 12:09 9,1 °C 9,1 °C 94 % 1025,6 hPa 0,0 mm 0,0 km/h (0 Bft) O-NO 59 ° 0 min 0,000 mm 0,6 UV-I 83 W/m² 8,2 °C 0,0 km/h (0 Bft)
26.10.2016 12:10 9,1 °C 9,1 °C 94 % 1025,6 hPa 0,0 mm 0,4 km/h (0 Bft) O-NO 59 ° 0 min 0,000 mm 0,7 UV-I 90 W/m² 8,2 °C 1,6 km/h (1 Bft)
26.10.2016 12:11 9,1 °C 9,1 °C 94 % 1025,6 hPa 0,0 mm 0,3 km/h (0 Bft) O-NO 59 ° 0 min 0,000 mm 0,7 UV-I 91 W/m² 8,2 °C 1,6 km/h (1 Bft)
26.10.2016 12:12 9,2 °C 9,2 °C 94 % 1025,6 hPa 0,0 mm 1,3 km/h (1 Bft) O-NO 59 ° 0 min 0,000 mm 0,6 UV-I 86 W/m² 8,3 °C 1,6 km/h (1 Bft)
26.10.2016 12:13 9,2 °C 9,2 °C 94 % 1025,6 hPa 0,0 mm 0,3 km/h (0 Bft) O-NO 59 ° 0 min 0,000 mm 0,6 UV-I 83 W/m² 8,3 °C 1,6 km/h (1 Bft)
26.10.2016 12:14 9,2 °C 9,2 °C 94 % 1025,6 hPa 0,0 mm 0,5 km/h (0 Bft) O-NO 59 ° 0 min 0,000 mm 0,6 UV-I 81 W/m² 8,3 °C 3,2 km/h (1 Bft)
26.10.2016 12:15 9,2 °C 9,2 °C 94 % 1025,6 hPa 0,0 mm 3,4 km/h (1 Bft) O-NO 59 ° 0 min 0,000 mm 0,6 UV-I 81 W/m² 8,3 °C 4,8 km/h (1 Bft)
26.10.2016 12:16 9,2 °C 9,2 °C 94 % 1025,6 hPa 0,0 mm 2,8 km/h (1 Bft) O-NO 59 ° 0 min 0,000 mm 0,6 UV-I 77 W/m² 8,3 °C 3,2 km/h (1 Bft)
26.10.2016 12:17 9,1 °C 9,2 °C 94 % 1025,6 hPa 0,0 mm 0,8 km/h (0 Bft) O-NO 59 ° 0 min 0,000 mm 0,5 UV-I 70 W/m² 8,2 °C 3,2 km/h (1 Bft)
26.10.2016 12:18 9,1 °C 9,2 °C 93 % 1025,6 hPa 0,0 mm 0,1 km/h (0 Bft) O-NO 59 ° 0 min 0,000 mm 0,5 UV-I 67 W/m² 8,0 °C 1,6 km/h (1 Bft)
26.10.2016 12:19 9,2 °C 9,2 °C 93 % 1025,6 hPa 0,0 mm 0,0 km/h (0 Bft) O-NO 59 ° 0 min 0,000 mm 0,5 UV-I 63 W/m² 8,1 °C 0,0 km/h (0 Bft)
26.10.2016 12:20 9,1 °C 9,2 °C 93 % 1025,6 hPa 0,0 mm 0,0 km/h (0 Bft) O-NO 59 ° 0 min 0,000 mm 0,0 UV-I 58 W/m² 8,0 °C 0,0 km/h (0 Bft)
26.10.2016 12:21 9,2 °C 9,2 °C 93 % 1025,6 hPa 0,0 mm 0,0 km/h (0 Bft) O-NO 59 ° 0 min 0,000 mm 0,0 UV-I 54 W/m² 8,1 °C 0,0 km/h (0 Bft)
26.10.2016 12:22 9,2 °C 9,2 °C 93 % 1025,6 hPa 0,0 mm 0,0 km/h (0 Bft) O-NO 59 ° 0 min 0,000 mm 0,0 UV-I 47 W/m² 8,1 °C 0,0 km/h (0 Bft)
26.10.2016 12:23 9,2 °C 9,2 °C 93 % 1025,6 hPa 0,0 mm 0,0 km/h (0 Bft) O-NO 59 ° 0 min 0,000 mm 0,0 UV-I 47 W/m² 8,1 °C 0,0 km/h (0 Bft)
26.10.2016 12:24 9,2 °C 9,2 °C 94 % 1025,6 hPa 0,0 mm 0,0 km/h (0 Bft) O-NO 59 ° 0 min 0,000 mm 0,0 UV-I 47 W/m² 8,3 °C 0,0 km/h (0 Bft)
26.10.2016 12:25 9,2 °C 9,2 °C 93 % 1025,6 hPa 0,0 mm 0,0 km/h (0 Bft) O-NO 59 ° 0 min 0,000 mm 0,0 UV-I 47 W/m² 8,1 °C 0,0 km/h (0 Bft)
26.10.2016 12:26 9,3 °C 9,3 °C 94 % 1025,6 hPa 0,0 mm 0,4 km/h (0 Bft) O-NO 59 ° 0 min 0,000 mm 0,0 UV-I 49 W/m² 8,4 °C 1,6 km/h (1 Bft)
26.10.2016 12:27 9,3 °C 9,3 °C 94 % 1025,6 hPa 0,0 mm 0,2 km/h (0 Bft) O-NO 59 ° 0 min 0,000 mm 0,0 UV-I 51 W/m² 8,4 °C 1,6 km/h (1 Bft)
26.10.2016 12:28 9,3 °C 9,3 °C 93 % 1025,6 hPa 0,0 mm 0,4 km/h (0 Bft) O-NO 59 ° 0 min 0,000 mm 0,0 UV-I 60 W/m² 8,2 °C 1,6 km/h (1 Bft)
26.10.2016 12:29 9,3 °C 9,3 °C 93 % 1025,6 hPa 0,0 mm 0,2 km/h (0 Bft) O-NO 59 ° 0 min 0,000 mm 0,0 UV-I 65 W/m² 8,2 °C 1,6 km/h (1 Bft)
26.10.2016 12:30 9,3 °C 9,3 °C 94 % 1025,5 hPa 0,0 mm 0,2 km/h (0 Bft) O-NO 59 ° 0 min 0,000 mm 0,5 UV-I 70 W/m² 8,4 °C 1,6 km/h (1 Bft)
26.10.2016 12:31 9,3 °C 9,3 °C 94 % 1025,5 hPa 0,0 mm 1,3 km/h (1 Bft) O-NO 59 ° 0 min 0,000 mm 0,6 UV-I 76 W/m² 8,4 °C 3,2 km/h (1 Bft)
26.10.2016 12:32 9,3 °C 9,3 °C 94 % 1025,5 hPa 0,0 mm 0,9 km/h (0 Bft) O-NO 59 ° 0 min 0,000 mm 0,6 UV-I 81 W/m² 8,4 °C 1,6 km/h (1 Bft)
26.10.2016 12:33 9,3 °C 9,3 °C 93 % 1025,5 hPa 0,0 mm 0,0 km/h (0 Bft) O-NO 59 ° 0 min 0,000 mm 0,6 UV-I 83 W/m² 8,2 °C 0,0 km/h (0 Bft)
26.10.2016 12:34 9,3 °C 9,3 °C 94 % 1025,5 hPa 0,0 mm 0,0 km/h (0 Bft) O-NO 59 ° 0 min 0,000 mm 0,6 UV-I 83 W/m² 8,4 °C 0,0 km/h (0 Bft)
26.10.2016 12:35 9,3 °C 9,3 °C 94 % 1025,5 hPa 0,0 mm 0,8 km/h (0 Bft) O-NO 59 ° 0 min 0,000 mm 0,6 UV-I 81 W/m² 8,4 °C 3,2 km/h (1 Bft)
26.10.2016 12:36 9,3 °C 9,3 °C 93 % 1025,5 hPa 0,0 mm 0,7 km/h (0 Bft) O-NO 59 ° 0 min 0,000 mm 0,6 UV-I 79 W/m² 8,2 °C 1,6 km/h (1 Bft)
26.10.2016 12:37 9,3 °C 9,3 °C 93 % 1025,5 hPa 0,0 mm 1,1 km/h (1 Bft) O-NO 59 ° 0 min 0,000 mm 0,6 UV-I 77 W/m² 8,2 °C 1,6 km/h (1 Bft)
26.10.2016 12:38 9,3 °C 9,3 °C 93 % 1025,5 hPa 0,0 mm 1,3 km/h (1 Bft) O-NO 59 ° 0 min 0,000 mm 0,5 UV-I 76 W/m² 8,2 °C 4,8 km/h (1 Bft)
26.10.2016 12:39 9,3 °C 9,3 °C 93 % 1025,4 hPa 0,0 mm 1,7 km/h (1 Bft) O-NO 59 ° 0 min 0,000 mm 0,5 UV-I 74 W/m² 8,2 °C 3,2 km/h (1 Bft)
26.10.2016 12:40 9,3 °C 9,3 °C 93 % 1025,5 hPa 0,0 mm 0,9 km/h (0 Bft) O-NO 59 ° 0 min 0,000 mm 0,5 UV-I 69 W/m² 8,2 °C 3,2 km/h (1 Bft)
26.10.2016 12:41 9,3 °C 9,3 °C 93 % 1025,4 hPa 0,0 mm 0,3 km/h (0 Bft) O-NO 59 ° 0 min 0,000 mm 0,5 UV-I 67 W/m² 8,2 °C 1,6 km/h (1 Bft)
26.10.2016 12:42 9,3 °C 9,3 °C 93 % 1025,5 hPa 0,0 mm 1,4 km/h (1 Bft) O-NO 59 ° 0 min 0,000 mm 0,5 UV-I 67 W/m² 8,2 °C 3,2 km/h (1 Bft)
26.10.2016 12:43 9,3 °C 9,3 °C 93 % 1025,4 hPa 0,0 mm 2,9 km/h (1 Bft) NO 55 ° 0 min 0,000 mm 0,5 UV-I 67 W/m² 8,2 °C 3,2 km/h (1 Bft)
26.10.2016 12:44 9,3 °C 9,3 °C 93 % 1025,5 hPa 0,0 mm 3,1 km/h (1 Bft) NO 55 ° 0 min 0,000 mm 0,5 UV-I 67 W/m² 8,2 °C 4,8 km/h (1 Bft)
26.10.2016 12:45 9,3 °C 9,3 °C 93 % 1025,5 hPa 0,0 mm 1,9 km/h (1 Bft) NO 55 ° 0 min 0,000 mm 0,5 UV-I 69 W/m² 8,2 °C 3,2 km/h (1 Bft)
26.10.2016 12:46 9,3 °C 9,3 °C 93 % 1025,4 hPa 0,0 mm 1,0 km/h (0 Bft) NO 55 ° 0 min 0,000 mm 0,5 UV-I 72 W/m² 8,2 °C 1,6 km/h (1 Bft)
26.10.2016 12:47 9,2 °C 9,3 °C 93 % 1025,4 hPa 0,0 mm 2,3 km/h (1 Bft) NO 55 ° 0 min 0,000 mm 0,6 UV-I 79 W/m² 8,1 °C 3,2 km/h (1 Bft)
26.10.2016 12:48 9,2 °C 9,2 °C 93 % 1025,5 hPa 0,0 mm 2,1 km/h (1 Bft) NO 55 ° 0 min 0,000 mm 0,6 UV-I 83 W/m² 8,1 °C 3,2 km/h (1 Bft)
26.10.2016 12:49 9,2 °C 9,2 °C 93 % 1025,4 hPa 0,0 mm 1,4 km/h (1 Bft) NO 55 ° 0 min 0,000 mm 0,6 UV-I 84 W/m² 8,1 °C 3,2 km/h (1 Bft)
26.10.2016 12:50 9,2 °C 9,3 °C 93 % 1025,4 hPa 0,0 mm 2,1 km/h (1 Bft) NO 55 ° 0 min 0,000 mm 0,6 UV-I 84 W/m² 8,1 °C 4,8 km/h (1 Bft)
26.10.2016 12:51 9,2 °C 9,2 °C 93 % 1025,5 hPa 0,0 mm 3,4 km/h (1 Bft) NO 55 ° 0 min 0,000 mm 0,6 UV-I 81 W/m² 8,1 °C 4,8 km/h (1 Bft)
26.10.2016 12:52 9,3 °C 9,3 °C 93 % 1025,4 hPa 0,0 mm 2,1 km/h (1 Bft) NO 55 ° 0 min 0,000 mm 0,6 UV-I 72 W/m² 8,2 °C 3,2 km/h (1 Bft)
26.10.2016 12:53 9,2 °C 9,3 °C 93 % 1025,4 hPa 0,0 mm 1,8 km/h (1 Bft) NO 55 ° 0 min 0,000 mm 0,5 UV-I 67 W/m² 8,1 °C 3,2 km/h (1 Bft)
26.10.2016 12:54 9,3 °C 9,3 °C 93 % 1025,4 hPa 0,0 mm 2,7 km/h (1 Bft) NO 36 ° 0 min 0,000 mm 0,5 UV-I 62 W/m² 8,2 °C 3,2 km/h (1 Bft)
26.10.2016 12:55 9,3 °C 9,3 °C 94 % 1025,4 hPa 0,0 mm 2,8 km/h (1 Bft) NO 36 ° 0 min 0,000 mm 0,0 UV-I 58 W/m² 8,4 °C 4,8 km/h (1 Bft)
26.10.2016 12:56 9,3 °C 9,3 °C 94 % 1025,4 hPa 0,0 mm 4,5 km/h (1 Bft) N-NO 17 ° 0 min 0,000 mm 0,0 UV-I 54 W/m² 8,4 °C 6,4 km/h (2 Bft)
26.10.2016 12:57 9,3 °C 9,3 °C 94 % 1025,4 hPa 0,0 mm 1,9 km/h (1 Bft) N-NO 17 ° 0 min 0,000 mm 0,0 UV-I 54 W/m² 8,4 °C 3,2 km/h (1 Bft)
26.10.2016 12:58 9,3 °C 9,3 °C 94 % 1025,4 hPa 0,0 mm 1,9 km/h (1 Bft) N-NO 18 ° 0 min 0,000 mm 0,0 UV-I 56 W/m² 8,4 °C 3,2 km/h (1 Bft)
26.10.2016 12:59 9,3 °C 9,3 °C 94 % 1025,4 hPa 0,0 mm 1,7 km/h (1 Bft) N-NO 18 ° 0 min 0,000 mm 0,0 UV-I 58 W/m² 8,4 °C 3,2 km/h (1 Bft)
26.10.2016 13:00 9,3 °C 9,3 °C 94 % 1025,4 hPa 0,0 mm 1,4 km/h (1 Bft) N-NO 18 ° 0 min 0,000 mm 0,0 UV-I 58 W/m² 8,4 °C 1,6 km/h (1 Bft)
26.10.2016 13:01 9,3 °C 9,3 °C 94 % 1025,3 hPa 0,0 mm 0,2 km/h (0 Bft) N-NO 18 ° 0 min 0,026 mm 0,0 UV-I 60 W/m² 8,4 °C 1,6 km/h (1 Bft)
26.10.2016 13:02 9,3 °C 9,3 °C 94 % 1025,3 hPa 0,0 mm 2,7 km/h (1 Bft) NO 37 ° 0 min 0,000 mm 0,5 UV-I 60 W/m² 8,4 °C 4,8 km/h (1 Bft)
26.10.2016 13:03 9,3 °C 9,3 °C 94 % 1025,3 hPa 0,0 mm 2,1 km/h (1 Bft) NO 37 ° 0 min 0,000 mm 0,5 UV-I 63 W/m² 8,4 °C 3,2 km/h (1 Bft)
26.10.2016 13:04 9,3 °C 9,3 °C 94 % 1025,3 hPa 0,0 mm 2,8 km/h (1 Bft) NO 40 ° 0 min 0,000 mm 0,5 UV-I 63 W/m² 8,4 °C 3,2 km/h (1 Bft)
26.10.2016 13:05 9,3 °C 9,3 °C 94 % 1025,3 hPa 0,0 mm 4,0 km/h (1 Bft) NO 36 ° 0 min 0,000 mm 0,5 UV-I 63 W/m² 8,4 °C 6,4 km/h (2 Bft)
26.10.2016 13:06 9,2 °C 9,3 °C 94 % 1025,3 hPa 0,0 mm 3,0 km/h (1 Bft) NO 36 ° 0 min 0,000 mm 0,5 UV-I 63 W/m² 8,3 °C 4,8 km/h (1 Bft)
26.10.2016 13:07 9,3 °C 9,3 °C 94 % 1025,3 hPa 0,0 mm 4,7 km/h (1 Bft) O-NO 68 ° 0 min 0,000 mm 0,0 UV-I 62 W/m² 8,4 °C 6,4 km/h (2 Bft)
26.10.2016 13:08 9,3 °C 9,3 °C 94 % 1025,2 hPa 0,0 mm 3,6 km/h (1 Bft) NO 40 ° 0 min 0,000 mm 0,0 UV-I 58 W/m² 8,4 °C 4,8 km/h (1 Bft)
26.10.2016 13:09 9,2 °C 9,3 °C 94 % 1025,3 hPa 0,0 mm 3,8 km/h (1 Bft) NO 43 ° 0 min 0,000 mm 0,0 UV-I 56 W/m² 8,3 °C 4,8 km/h (1 Bft)
26.10.2016 13:10 9,3 °C 9,3 °C 94 % 1025,3 hPa 0,0 mm 2,7 km/h (1 Bft) O-NO 68 ° 0 min 0,000 mm 0,0 UV-I 54 W/m² 8,4 °C 4,8 km/h (1 Bft)
26.10.2016 13:11 9,2 °C 9,3 °C 94 % 1025,3 hPa 0,0 mm 0,5 km/h (0 Bft) O-NO 68 ° 0 min 0,000 mm 0,0 UV-I 54 W/m² 8,3 °C 1,6 km/h (1 Bft)
26.10.2016 13:12 9,3 °C 9,3 °C 94 % 1025,3 hPa 0,0 mm 0,8 km/h (0 Bft) O-NO 68 ° 0 min 0,000 mm 0,0 UV-I 53 W/m² 8,4 °C 1,6 km/h (1 Bft)
26.10.2016 13:13 9,2 °C 9,3 °C 94 % 1025,3 hPa 0,0 mm 0,7 km/h (0 Bft) O-NO 68 ° 0 min 0,000 mm 0,0 UV-I 51 W/m² 8,3 °C 1,6 km/h (1 Bft)
26.10.2016 13:14 9,2 °C 9,3 °C 94 % 1025,3 hPa 0,0 mm 1,8 km/h (1 Bft) O-NO 67 ° 0 min 0,000 mm 0,0 UV-I 49 W/m² 8,3 °C 3,2 km/h (1 Bft)
26.10.2016 13:15 9,3 °C 9,3 °C 94 % 1025,3 hPa 0,0 mm 1,6 km/h (1 Bft) O-NO 67 ° 0 min 0,000 mm 0,0 UV-I 54 W/m² 8,4 °C 3,2 km/h (1 Bft)
26.10.2016 13:16 9,3 °C 9,3 °C 94 % 1025,3 hPa 0,0 mm 1,0 km/h (0 Bft) O-NO 67 ° 0 min 0,000 mm 0,0 UV-I 56 W/m² 8,4 °C 1,6 km/h (1 Bft)
26.10.2016 13:17 9,3 °C 9,3 °C 95 % 1025,3 hPa 0,0 mm 0,1 km/h (0 Bft) O-NO 67 ° 0 min 0,000 mm 0,0 UV-I 58 W/m² 8,5 °C 1,6 km/h (1 Bft)
26.10.2016 13:18 9,3 °C 9,3 °C 94 % 1025,3 hPa 0,0 mm 0,6 km/h (0 Bft) O-NO 67 ° 0 min 0,000 mm 0,0 UV-I 62 W/m² 8,4 °C 3,2 km/h (1 Bft)
26.10.2016 13:19 9,3 °C 9,3 °C 94 % 1025,3 hPa 0,0 mm 1,8 km/h (1 Bft) O-NO 67 ° 0 min 0,000 mm 0,5 UV-I 63 W/m² 8,4 °C 3,2 km/h (1 Bft)
26.10.2016 13:20 9,3 °C 9,3 °C 95 % 1025,3 hPa 0,0 mm 0,7 km/h (0 Bft) O-NO 67 ° 0 min 0,000 mm 0,5 UV-I 65 W/m² 8,5 °C 1,6 km/h (1 Bft)
26.10.2016 13:21 9,4 °C 9,4 °C 95 % 1025,3 hPa 0,0 mm 1,4 km/h (1 Bft) O-NO 67 ° 0 min 0,000 mm 0,5 UV-I 72 W/m² 8,6 °C 3,2 km/h (1 Bft)
26.10.2016 13:22 9,4 °C 9,4 °C 95 % 1025,3 hPa 0,0 mm 2,8 km/h (1 Bft) NO 34 ° 0 min 0,000 mm 0,5 UV-I 77 W/m² 8,6 °C 4,8 km/h (1 Bft)
26.10.2016 13:23 9,3 °C 9,4 °C 94 % 1025,3 hPa 0,0 mm 3,3 km/h (1 Bft) NO 34 ° 0 min 0,000 mm 0,6 UV-I 84 W/m² 8,4 °C 4,8 km/h (1 Bft)
26.10.2016 13:24 9,3 °C 9,3 °C 94 % 1025,2 hPa 0,0 mm 2,8 km/h (1 Bft) NO 43 ° 0 min 0,000 mm 0,7 UV-I 93 W/m² 8,4 °C 3,2 km/h (1 Bft)
26.10.2016 13:25 9,3 °C 9,4 °C 94 % 1025,2 hPa 0,0 mm 1,4 km/h (1 Bft) NO 43 ° 0 min 0,000 mm 0,7 UV-I 100 W/m² 8,4 °C 3,2 km/h (1 Bft)
26.10.2016 13:26 9,3 °C 9,3 °C 94 % 1025,2 hPa 0,0 mm 1,2 km/h (1 Bft) NO 43 ° 0 min 0,000 mm 0,7 UV-I 105 W/m² 8,4 °C 3,2 km/h (1 Bft)
26.10.2016 13:27 9,3 °C 9,3 °C 94 % 1025,3 hPa 0,0 mm 2,1 km/h (1 Bft) NO 43 ° 0 min 0,000 mm 0,8 UV-I 120 W/m² 8,4 °C 3,2 km/h (1 Bft)
26.10.2016 13:28 9,4 °C 9,4 °C 94 % 1025,2 hPa 0,0 mm 1,4 km/h (1 Bft) NO 43 ° 0 min 0,000 mm 0,9 UV-I 125 W/m² 8,5 °C 1,6 km/h (1 Bft)
26.10.2016 13:29 9,4 °C 9,4 °C 94 % 1025,2 hPa 0,0 mm 2,4 km/h (1 Bft) NO 43 ° 0 min 0,000 mm 0,9 UV-I 132 W/m² 8,5 °C 3,2 km/h (1 Bft)
26.10.2016 13:30 9,4 °C 9,4 °C 94 % 1025,2 hPa 0,0 mm 4,2 km/h (1 Bft) NO 37 ° 0 min 0,000 mm 1,0 UV-I 137 W/m² 8,5 °C 4,8 km/h (1 Bft)
26.10.2016 13:31 9,4 °C 9,4 °C 94 % 1025,2 hPa 0,0 mm 4,2 km/h (1 Bft) NO 34 ° 0 min 0,000 mm 1,0 UV-I 142 W/m² 8,5 °C 6,4 km/h (2 Bft)
26.10.2016 13:32 9,5 °C 9,5 °C 94 % 1025,2 hPa 0,0 mm 2,4 km/h (1 Bft) NO 35 ° 0 min 0,000 mm 1,0 UV-I 146 W/m² 8,6 °C 4,8 km/h (1 Bft)
26.10.2016 13:33 9,4 °C 9,5 °C 94 % 1025,2 hPa 0,0 mm 3,1 km/h (1 Bft) N-NO 33 ° 0 min 0,000 mm 1,0 UV-I 149 W/m² 8,5 °C 4,8 km/h (1 Bft)
26.10.2016 13:34 9,4 °C 9,5 °C 94 % 1025,1 hPa 0,0 mm 3,1 km/h (1 Bft) N-NO 33 ° 0 min 0,000 mm 1,0 UV-I 153 W/m² 8,5 °C 4,8 km/h (1 Bft)
26.10.2016 13:35 9,5 °C 9,5 °C 94 % 1025,1 hPa 0,0 mm 3,8 km/h (1 Bft) N-NO 33 ° 0 min 0,000 mm 1,0 UV-I 153 W/m² 8,6 °C 4,8 km/h (1 Bft)
26.10.2016 13:36 9,5 °C 9,5 °C 94 % 1025,1 hPa 0,0 mm 1,3 km/h (1 Bft) N-NO 33 ° 0 min 0,000 mm 1,0 UV-I 151 W/m² 8,6 °C 1,6 km/h (1 Bft)
26.10.2016 13:37 9,6 °C 9,6 °C 94 % 1025,1 hPa 0,0 mm 1,7 km/h (1 Bft) N-NO 33 ° 0 min 0,000 mm 1,0 UV-I 149 W/m² 8,7 °C 3,2 km/h (1 Bft)
26.10.2016 13:38 9,5 °C 9,6 °C 94 % 1025,1 hPa 0,0 mm 3,5 km/h (1 Bft) N-NO 33 ° 0 min 0,000 mm 1,0 UV-I 144 W/m² 8,6 °C 4,8 km/h (1 Bft)
26.10.2016 13:39 9,5 °C 9,5 °C 94 % 1025,1 hPa 0,0 mm 2,9 km/h (1 Bft) NO 53 ° 0 min 0,000 mm 1,0 UV-I 141 W/m² 8,6 °C 4,8 km/h (1 Bft)
26.10.2016 13:40 9,6 °C 9,6 °C 94 % 1025,1 hPa 0,0 mm 1,6 km/h (1 Bft) NO 53 ° 0 min 0,000 mm 0,9 UV-I 141 W/m² 8,7 °C 3,2 km/h (1 Bft)
26.10.2016 13:41 9,6 °C 9,6 °C 94 % 1025,1 hPa 0,0 mm 2,9 km/h (1 Bft) NO 53 ° 0 min 0,000 mm 0,9 UV-I 141 W/m² 8,7 °C 4,8 km/h (1 Bft)
26.10.2016 13:42 9,6 °C 9,6 °C 94 % 1025,1 hPa 0,0 mm 3,3 km/h (1 Bft) NO 53 ° 0 min 0,000 mm 1,0 UV-I 144 W/m² 8,7 °C 4,8 km/h (1 Bft)
26.10.2016 13:43 9,6 °C 9,6 °C 93 % 1025,1 hPa 0,0 mm 3,0 km/h (1 Bft) NO 53 ° 0 min 0,000 mm 1,0 UV-I 149 W/m² 8,5 °C 4,8 km/h (1 Bft)
26.10.2016 13:44 9,6 °C 9,6 °C 94 % 1025,1 hPa 0,0 mm 2,7 km/h (1 Bft) NO 53 ° 0 min 0,000 mm 1,0 UV-I 151 W/m² 8,7 °C 4,8 km/h (1 Bft)
26.10.2016 13:45 9,6 °C 9,6 °C 94 % 1025,1 hPa 0,0 mm 4,1 km/h (1 Bft) N-NO 33 ° 0 min 0,000 mm 1,0 UV-I 148 W/m² 8,7 °C 6,4 km/h (2 Bft)
26.10.2016 13:46 9,7 °C 9,7 °C 94 % 1025,1 hPa 0,0 mm 2,7 km/h (1 Bft) NO 34 ° 0 min 0,000 mm 0,9 UV-I 144 W/m² 8,8 °C 4,8 km/h (1 Bft)
26.10.2016 13:47 9,7 °C 9,7 °C 94 % 1025,1 hPa 0,0 mm 4,2 km/h (1 Bft) NO 47 ° 0 min 0,000 mm 0,9 UV-I 139 W/m² 8,8 °C 6,4 km/h (2 Bft)
26.10.2016 13:48 9,7 °C 9,7 °C 93 % 1025,1 hPa 0,0 mm 1,2 km/h (1 Bft) NO 46 ° 0 min 0,000 mm 0,9 UV-I 134 W/m² 8,6 °C 3,2 km/h (1 Bft)
26.10.2016 13:49 9,7 °C 9,7 °C 94 % 1025,1 hPa 0,0 mm 3,1 km/h (1 Bft) N-NO 15 ° 0 min 0,000 mm 0,8 UV-I 132 W/m² 8,8 °C 4,8 km/h (1 Bft)
26.10.2016 13:50 9,7 °C 9,7 °C 94 % 1025,1 hPa 0,0 mm 2,3 km/h (1 Bft) N-NO 15 ° 0 min 0,000 mm 0,8 UV-I 128 W/m² 8,8 °C 4,8 km/h (1 Bft)
26.10.2016 13:51 9,7 °C 9,8 °C 94 % 1025,1 hPa 0,0 mm 2,5 km/h (1 Bft) NO 49 ° 0 min 0,000 mm 0,8 UV-I 130 W/m² 8,8 °C 4,8 km/h (1 Bft)
26.10.2016 13:52 9,8 °C 9,8 °C 94 % 1025,1 hPa 0,0 mm 3,8 km/h (1 Bft) O-NO 76 ° 0 min 0,000 mm 0,9 UV-I 135 W/m² 8,9 °C 6,4 km/h (2 Bft)
26.10.2016 13:53 9,7 °C 9,8 °C 93 % 1025,1 hPa 0,0 mm 3,8 km/h (1 Bft) O 81 ° 0 min 0,000 mm 0,9 UV-I 139 W/m² 8,6 °C 4,8 km/h (1 Bft)
26.10.2016 13:54 9,8 °C 9,8 °C 93 % 1025,1 hPa 0,0 mm 1,8 km/h (1 Bft) NO 52 ° 0 min 0,000 mm 0,8 UV-I 132 W/m² 8,7 °C 4,8 km/h (1 Bft)
26.10.2016 13:55 9,8 °C 9,8 °C 94 % 1025,1 hPa 0,0 mm 1,6 km/h (1 Bft) NO 44 ° 0 min 0,000 mm 0,8 UV-I 125 W/m² 8,9 °C 1,6 km/h (1 Bft)
26.10.2016 13:56 9,8 °C 9,8 °C 93 % 1025,1 hPa 0,0 mm 1,9 km/h (1 Bft) N-NO 33 ° 0 min 0,000 mm 0,8 UV-I 123 W/m² 8,7 °C 4,8 km/h (1 Bft)
26.10.2016 13:57 9,8 °C 9,8 °C 93 % 1025,1 hPa 0,0 mm 2,9 km/h (1 Bft) N-NO 26 ° 0 min 0,000 mm 0,8 UV-I 127 W/m² 8,7 °C 4,8 km/h (1 Bft)
26.10.2016 13:58 9,8 °C 9,8 °C 93 % 1025,1 hPa 0,0 mm 3,0 km/h (1 Bft) N-NO 13 ° 0 min 0,000 mm 0,9 UV-I 130 W/m² 8,7 °C 4,8 km/h (1 Bft)
26.10.2016 13:59 9,9 °C 9,9 °C 93 % 1025,1 hPa 0,0 mm 2,7 km/h (1 Bft) N-NO 24 ° 0 min 0,000 mm 0,9 UV-I 137 W/m² 8,8 °C 4,8 km/h (1 Bft)
26.10.2016 14:00 9,9 °C 9,9 °C 93 % 1025,1 hPa 0,0 mm 4,1 km/h (1 Bft) O-NO 57 ° 0 min 0,000 mm 0,9 UV-I 146 W/m² 8,8 °C 8,0 km/h (2 Bft)
26.10.2016 14:01 9,9 °C 9,9 °C 93 % 1025,1 hPa 0,0 mm 4,9 km/h (1 Bft) N-NO 30 ° 0 min 0,050 mm 0,9 UV-I 155 W/m² 8,8 °C 6,4 km/h (2 Bft)
26.10.2016 14:02 9,9 °C 9,9 °C 92 % 1025,1 hPa 0,0 mm 4,5 km/h (1 Bft) N-NO 26 ° 0 min 0,000 mm 0,9 UV-I 151 W/m² 8,7 °C 6,4 km/h (2 Bft)
26.10.2016 14:03 9,9 °C 9,9 °C 92 % 1025,1 hPa 0,0 mm 3,0 km/h (1 Bft) N 5 ° 0 min 0,000 mm 0,9 UV-I 132 W/m² 8,7 °C 4,8 km/h (1 Bft)
26.10.2016 14:04 9,9 °C 9,9 °C 92 % 1025,1 hPa 0,0 mm 3,5 km/h (1 Bft) O-NO 65 ° 0 min 0,000 mm 0,7 UV-I 111 W/m² 8,7 °C 4,8 km/h (1 Bft)
26.10.2016 14:05 9,9 °C 9,9 °C 93 % 1025,1 hPa 0,0 mm 2,4 km/h (1 Bft) O-NO 65 ° 0 min 0,000 mm 0,6 UV-I 93 W/m² 8,8 °C 4,8 km/h (1 Bft)
26.10.2016 14:06 9,9 °C 9,9 °C 93 % 1025,2 hPa 0,0 mm 2,6 km/h (1 Bft) N-NO 21 ° 0 min 0,000 mm 0,5 UV-I 81 W/m² 8,8 °C 4,8 km/h (1 Bft)
26.10.2016 14:07 9,9 °C 9,9 °C 93 % 1025,1 hPa 0,0 mm 2,1 km/h (1 Bft) NO 51 ° 0 min 0,000 mm 0,5 UV-I 76 W/m² 8,8 °C 3,2 km/h (1 Bft)
26.10.2016 14:08 9,9 °C 9,9 °C 93 % 1025,1 hPa 0,0 mm 3,4 km/h (1 Bft) NO 35 ° 0 min 0,000 mm 0,5 UV-I 79 W/m² 8,8 °C 4,8 km/h (1 Bft)
26.10.2016 14:09 9,9 °C 9,9 °C 93 % 1025,1 hPa 0,0 mm 3,7 km/h (1 Bft) NO 44 ° 0 min 0,000 mm 0,6 UV-I 91 W/m² 8,8 °C 4,8 km/h (1 Bft)
26.10.2016 14:10 9,9 °C 9,9 °C 93 % 1025,1 hPa 0,0 mm 3,4 km/h (1 Bft) NO 53 ° 0 min 0,000 mm 0,8 UV-I 113 W/m² 8,8 °C 4,8 km/h (1 Bft)
26.10.2016 14:11 9,9 °C 9,9 °C 93 % 1025,2 hPa 0,0 mm 5,4 km/h (1 Bft) NO 54 ° 0 min 0,000 mm 0,9 UV-I 135 W/m² 8,8 °C 8,0 km/h (2 Bft)
26.10.2016 14:12 9,8 °C 9,9 °C 93 % 1025,1 hPa 0,0 mm 4,6 km/h (1 Bft) N-NO 23 ° 0 min 0,000 mm 1,0 UV-I 148 W/m² 8,7 °C 6,4 km/h (2 Bft)
26.10.2016 14:13 9,8 °C 9,8 °C 93 % 1025,1 hPa 0,0 mm 3,0 km/h (1 Bft) N-NO 31 ° 0 min 0,000 mm 0,9 UV-I 144 W/m² 8,7 °C 4,8 km/h (1 Bft)
26.10.2016 14:14 9,8 °C 9,9 °C 92 % 1025,1 hPa 0,0 mm 4,3 km/h (1 Bft) N 5 ° 0 min 0,000 mm 0,8 UV-I 116 W/m² 8,6 °C 6,4 km/h (2 Bft)
26.10.2016 14:15 9,9 °C 9,9 °C 93 % 1025,1 hPa 0,0 mm 3,1 km/h (1 Bft) NO 56 ° 0 min 0,000 mm 0,6 UV-I 100 W/m² 8,8 °C 4,8 km/h (1 Bft)
26.10.2016 14:16 9,9 °C 9,9 °C 93 % 1025,1 hPa 0,0 mm 2,6 km/h (1 Bft) NO 56 ° 0 min 0,000 mm 0,6 UV-I 90 W/m² 8,8 °C 4,8 km/h (1 Bft)
26.10.2016 14:17 9,9 °C 9,9 °C 93 % 1025,1 hPa 0,0 mm 0,8 km/h (0 Bft) NO 56 ° 0 min 0,000 mm 0,6 UV-I 81 W/m² 8,8 °C 1,6 km/h (1 Bft)
26.10.2016 14:18 9,9 °C 9,9 °C 93 % 1025,1 hPa 0,0 mm 3,0 km/h (1 Bft) N-NO 21 ° 0 min 0,000 mm 0,5 UV-I 74 W/m² 8,8 °C 4,8 km/h (1 Bft)
26.10.2016 14:19 9,9 °C 9,9 °C 93 % 1025,1 hPa 0,0 mm 1,6 km/h (1 Bft) NO 40 ° 0 min 0,000 mm 0,5 UV-I 67 W/m² 8,8 °C 3,2 km/h (1 Bft)
26.10.2016 14:20 9,9 °C 9,9 °C 93 % 1025,1 hPa 0,0 mm 4,7 km/h (1 Bft) O-NO 59 ° 0 min 0,000 mm 0,5 UV-I 60 W/m² 8,8 °C 6,4 km/h (2 Bft)
26.10.2016 14:21 9,8 °C 9,9 °C 93 % 1025,1 hPa 0,0 mm 5,9 km/h (2 Bft) O-NO 60 ° 0 min 0,000 mm 0,0 UV-I 54 W/m² 8,7 °C 8,0 km/h (2 Bft)
26.10.2016 14:22 9,8 °C 9,8 °C 93 % 1025,1 hPa 0,0 mm 5,2 km/h (1 Bft) O-NO 69 ° 0 min 0,000 mm 0,0 UV-I 51 W/m² 8,7 °C 6,4 km/h (2 Bft)
26.10.2016 14:23 9,8 °C 9,8 °C 93 % 1025,1 hPa 0,0 mm 3,9 km/h (1 Bft) O-NO 66 ° 0 min 0,000 mm 0,0 UV-I 49 W/m² 8,7 °C 4,8 km/h (1 Bft)
26.10.2016 14:24 9,8 °C 9,8 °C 93 % 1025,1 hPa 0,0 mm 5,3 km/h (1 Bft) NO 44 ° 0 min 0,000 mm 0,0 UV-I 49 W/m² 8,7 °C 6,4 km/h (2 Bft)
26.10.2016 14:25 9,8 °C 9,8 °C 93 % 1025,1 hPa 0,0 mm 1,7 km/h (1 Bft) NO 44 ° 0 min 0,000 mm 0,0 UV-I 49 W/m² 8,7 °C 3,2 km/h (1 Bft)
26.10.2016 14:26 9,8 °C 9,8 °C 93 % 1025,1 hPa 0,0 mm 1,4 km/h (1 Bft) O 79 ° 0 min 0,000 mm 0,0 UV-I 53 W/m² 8,7 °C 4,8 km/h (1 Bft)
26.10.2016 14:27 9,7 °C 9,8 °C 93 % 1025,1 hPa 0,0 mm 6,6 km/h (2 Bft) O-NO 70 ° 0 min 0,000 mm 0,0 UV-I 54 W/m² 8,6 °C 11,3 km/h (2 Bft)
26.10.2016 14:28 9,7 °C 9,7 °C 93 % 1025,1 hPa 0,0 mm 5,4 km/h (1 Bft) NO 40 ° 0 min 0,000 mm 0,0 UV-I 54 W/m² 8,6 °C 6,4 km/h (2 Bft)
26.10.2016 14:29 9,7 °C 9,7 °C 93 % 1025,1 hPa 0,0 mm 2,1 km/h (1 Bft) NO 51 ° 0 min 0,000 mm 0,0 UV-I 54 W/m² 8,6 °C 4,8 km/h (1 Bft)
26.10.2016 14:30 9,8 °C 9,8 °C 93 % 1025,1 hPa 0,0 mm 5,9 km/h (2 Bft) NO 51 ° 0 min 0,000 mm 0,0 UV-I 54 W/m² 8,7 °C 8,0 km/h (2 Bft)
26.10.2016 14:31 9,7 °C 9,8 °C 93 % 1025,1 hPa 0,0 mm 2,7 km/h (1 Bft) O-NO 61 ° 0 min 0,000 mm 0,0 UV-I 51 W/m² 8,6 °C 4,8 km/h (1 Bft)
26.10.2016 14:32 9,7 °C 9,7 °C 93 % 1025,1 hPa 0,0 mm 4,1 km/h (1 Bft) O-NO 70 ° 0 min 0,000 mm 0,0 UV-I 47 W/m² 8,6 °C 6,4 km/h (2 Bft)
26.10.2016 14:33 9,7 °C 9,7 °C 93 % 1025,1 hPa 0,0 mm 3,0 km/h (1 Bft) O-NO 58 ° 0 min 0,000 mm 0,0 UV-I 46 W/m² 8,6 °C 4,8 km/h (1 Bft)
26.10.2016 14:34 9,7 °C 9,7 °C 93 % 1025,1 hPa 0,0 mm 2,5 km/h (1 Bft) O-NO 74 ° 0 min 0,000 mm 0,0 UV-I 44 W/m² 8,6 °C 3,2 km/h (1 Bft)
26.10.2016 14:35 9,7 °C 9,7 °C 93 % 1025,1 hPa 0,0 mm 3,9 km/h (1 Bft) O-NO 77 ° 0 min 0,000 mm 0,0 UV-I 42 W/m² 8,6 °C 4,8 km/h (1 Bft)
26.10.2016 14:36 9,7 °C 9,7 °C 93 % 1025,1 hPa 0,0 mm 3,2 km/h (1 Bft) NO 52 ° 0 min 0,000 mm 0,0 UV-I 40 W/m² 8,6 °C 4,8 km/h (1 Bft)
26.10.2016 14:37 9,7 °C 9,7 °C 93 % 1025,1 hPa 0,0 mm 3,8 km/h (1 Bft) O-NO 58 ° 0 min 0,000 mm 0,0 UV-I 39 W/m² 8,6 °C 4,8 km/h (1 Bft)
26.10.2016 14:38 9,7 °C 9,7 °C 93 % 1025,1 hPa 0,0 mm 5,3 km/h (1 Bft) O-NO 57 ° 0 min 0,000 mm 0,0 UV-I 44 W/m² 8,6 °C 8,0 km/h (2 Bft)
26.10.2016 14:39 9,7 °C 9,7 °C 93 % 1025,1 hPa 0,0 mm 3,7 km/h (1 Bft) NO 37 ° 0 min 0,000 mm 0,0 UV-I 47 W/m² 8,6 °C 8,0 km/h (2 Bft)
26.10.2016 14:40 9,7 °C 9,7 °C 93 % 1025,1 hPa 0,0 mm 3,6 km/h (1 Bft) NO 51 ° 0 min 0,000 mm 0,0 UV-I 49 W/m² 8,6 °C 8,0 km/h (2 Bft)
26.10.2016 14:41 9,7 °C 9,7 °C 93 % 1025,0 hPa 0,0 mm 4,5 km/h (1 Bft) O-NO 70 ° 0 min 0,000 mm 0,0 UV-I 49 W/m² 8,6 °C 6,4 km/h (2 Bft)
26.10.2016 14:42 9,7 °C 9,7 °C 93 % 1025,1 hPa 0,0 mm 5,2 km/h (1 Bft) O-NO 77 ° 0 min 0,000 mm 0,0 UV-I 49 W/m² 8,6 °C 8,0 km/h (2 Bft)
26.10.2016 14:43 9,7 °C 9,7 °C 93 % 1025,1 hPa 0,0 mm 4,6 km/h (1 Bft) O-NO 68 ° 0 min 0,000 mm 0,0 UV-I 47 W/m² 8,6 °C 6,4 km/h (2 Bft)
26.10.2016 14:44 9,6 °C 9,7 °C 93 % 1025,1 hPa 0,0 mm 4,6 km/h (1 Bft) O 84 ° 0 min 0,000 mm 0,0 UV-I 44 W/m² 8,5 °C 8,0 km/h (2 Bft)
26.10.2016 14:45 9,7 °C 9,7 °C 93 % 1025,1 hPa 0,0 mm 5,1 km/h (1 Bft) O-NO 64 ° 0 min 0,000 mm 0,0 UV-I 42 W/m² 8,6 °C 6,4 km/h (2 Bft)
26.10.2016 14:46 9,6 °C 9,7 °C 93 % 1025,1 hPa 0,0 mm 3,1 km/h (1 Bft) NO 48 ° 0 min 0,000 mm 0,0 UV-I 39 W/m² 8,5 °C 4,8 km/h (1 Bft)
26.10.2016 14:47 9,6 °C 9,7 °C 93 % 1025,1 hPa 0,0 mm 3,6 km/h (1 Bft) NO 56 ° 0 min 0,000 mm 0,0 UV-I 37 W/m² 8,5 °C 8,0 km/h (2 Bft)
26.10.2016 14:48 9,6 °C 9,6 °C 93 % 1025,1 hPa 0,0 mm 4,4 km/h (1 Bft) NO 42 ° 0 min 0,000 mm 0,0 UV-I 35 W/m² 8,5 °C 6,4 km/h (2 Bft)
26.10.2016 14:49 9,6 °C 9,6 °C 93 % 1025,1 hPa 0,0 mm 4,6 km/h (1 Bft) O-NO 68 ° 0 min 0,000 mm 0,0 UV-I 33 W/m² 8,5 °C 6,4 km/h (2 Bft)
26.10.2016 14:50 9,6 °C 9,6 °C 93 % 1025,1 hPa 0,0 mm 3,0 km/h (1 Bft) O-NO 66 ° 0 min 0,000 mm 0,0 UV-I 35 W/m² 8,5 °C 4,8 km/h (1 Bft)
26.10.2016 14:51 9,6 °C 9,6 °C 93 % 1025,1 hPa 0,0 mm 3,7 km/h (1 Bft) O-NO 67 ° 0 min 0,000 mm 0,0 UV-I 37 W/m² 8,5 °C 4,8 km/h (1 Bft)
26.10.2016 14:52 9,6 °C 9,6 °C 93 % 1025,1 hPa 0,0 mm 3,8 km/h (1 Bft) O-NO 67 ° 0 min 0,000 mm 0,0 UV-I 39 W/m² 8,5 °C 4,8 km/h (1 Bft)
26.10.2016 14:53 9,6 °C 9,6 °C 93 % 1025,1 hPa 0,0 mm 3,6 km/h (1 Bft) O-NO 65 ° 0 min 0,000 mm 0,0 UV-I 42 W/m² 8,5 °C 6,4 km/h (2 Bft)
26.10.2016 14:54 9,6 °C 9,6 °C 93 % 1025,1 hPa 0,0 mm 3,6 km/h (1 Bft) NO 38 ° 0 min 0,000 mm 0,0 UV-I 46 W/m² 8,5 °C 4,8 km/h (1 Bft)
26.10.2016 14:55 9,6 °C 9,6 °C 93 % 1025,1 hPa 0,0 mm 2,2 km/h (1 Bft) O-NO 76 ° 0 min 0,000 mm 0,0 UV-I 56 W/m² 8,5 °C 3,2 km/h (1 Bft)
26.10.2016 14:56 9,6 °C 9,6 °C 93 % 1025,2 hPa 0,0 mm 4,6 km/h (1 Bft) O-SO 103 ° 0 min 0,000 mm 0,5 UV-I 65 W/m² 8,5 °C 6,4 km/h (2 Bft)
26.10.2016 14:57 9,6 °C 9,6 °C 93 % 1025,1 hPa 0,0 mm 2,7 km/h (1 Bft) O-SO 103 ° 0 min 0,000 mm 0,5 UV-I 77 W/m² 8,5 °C 4,8 km/h (1 Bft)
26.10.2016 14:58 9,6 °C 9,6 °C 93 % 1025,2 hPa 0,0 mm 3,2 km/h (1 Bft) O 100 ° 0 min 0,000 mm 0,5 UV-I 88 W/m² 8,5 °C 4,8 km/h (1 Bft)
26.10.2016 14:59 9,6 °C 9,6 °C 93 % 1025,1 hPa 0,0 mm 2,2 km/h (1 Bft) O 100 ° 0 min 0,000 mm 0,6 UV-I 93 W/m² 8,5 °C 4,8 km/h (1 Bft)
26.10.2016 15:00 9,6 °C 9,6 °C 93 % 1025,1 hPa 0,0 mm 3,4 km/h (1 Bft) O 87 ° 0 min 0,026 mm 0,6 UV-I 95 W/m² 8,5 °C 4,8 km/h (1 Bft)
26.10.2016 15:01 9,6 °C 9,6 °C 93 % 1025,1 hPa 0,0 mm 3,0 km/h (1 Bft) O 88 ° 0 min 0,000 mm 0,6 UV-I 93 W/m² 8,5 °C 4,8 km/h (1 Bft)
26.10.2016 15:02 9,7 °C 9,7 °C 93 % 1025,1 hPa 0,0 mm 1,5 km/h (1 Bft) O 88 ° 0 min 0,000 mm 0,6 UV-I 90 W/m² 8,6 °C 3,2 km/h (1 Bft)
26.10.2016 15:03 9,7 °C 9,7 °C 93 % 1025,1 hPa 0,0 mm 0,2 km/h (0 Bft) O 88 ° 0 min 0,000 mm 0,6 UV-I 90 W/m² 8,6 °C 1,6 km/h (1 Bft)
26.10.2016 15:04 9,7 °C 9,7 °C 93 % 1025,1 hPa 0,0 mm 1,0 km/h (0 Bft) O 88 ° 0 min 0,000 mm 0,6 UV-I 91 W/m² 8,6 °C 1,6 km/h (1 Bft)
26.10.2016 15:05 9,7 °C 9,7 °C 93 % 1025,1 hPa 0,0 mm 0,9 km/h (0 Bft) O 88 ° 0 min 0,000 mm 0,5 UV-I 91 W/m² 8,6 °C 1,6 km/h (1 Bft)
26.10.2016 15:06 9,7 °C 9,7 °C 93 % 1025,1 hPa 0,0 mm 3,2 km/h (1 Bft) O 88 ° 0 min 0,000 mm 0,5 UV-I 91 W/m² 8,6 °C 4,8 km/h (1 Bft)
26.10.2016 15:07 9,7 °C 9,8 °C 93 % 1025,1 hPa 0,0 mm 3,7 km/h (1 Bft) O 88 ° 0 min 0,000 mm 0,6 UV-I 91 W/m² 8,6 °C 4,8 km/h (1 Bft)
26.10.2016 15:08 9,7 °C 9,7 °C 93 % 1025,1 hPa 0,0 mm 1,3 km/h (1 Bft) O 88 ° 0 min 0,000 mm 0,6 UV-I 93 W/m² 8,6 °C 3,2 km/h (1 Bft)
26.10.2016 15:09 9,8 °C 9,8 °C 93 % 1025,1 hPa 0,0 mm 1,4 km/h (1 Bft) O-NO 74 ° 0 min 0,000 mm 0,7 UV-I 97 W/m² 8,7 °C 4,8 km/h (1 Bft)
26.10.2016 15:10 9,7 °C 9,8 °C 93 % 1025,1 hPa 0,0 mm 2,7 km/h (1 Bft) O-NO 61 ° 0 min 0,000 mm 0,7 UV-I 100 W/m² 8,6 °C 4,8 km/h (1 Bft)
26.10.2016 15:11 9,8 °C 9,8 °C 93 % 1025,1 hPa 0,0 mm 3,1 km/h (1 Bft) O-NO 60 ° 0 min 0,000 mm 0,7 UV-I 104 W/m² 8,7 °C 3,2 km/h (1 Bft)
26.10.2016 15:12 9,8 °C 9,8 °C 93 % 1025,1 hPa 0,0 mm 2,1 km/h (1 Bft) NO 51 ° 0 min 0,000 mm 0,6 UV-I 100 W/m² 8,7 °C 3,2 km/h (1 Bft)
26.10.2016 15:13 9,8 °C 9,8 °C 93 % 1025,1 hPa 0,0 mm 3,0 km/h (1 Bft) O-NO 59 ° 0 min 0,000 mm 0,6 UV-I 93 W/m² 8,7 °C 4,8 km/h (1 Bft)
26.10.2016 15:14 9,8 °C 9,8 °C 93 % 1025,0 hPa 0,0 mm 4,3 km/h (1 Bft) NO 53 ° 0 min 0,000 mm 0,5 UV-I 83 W/m² 8,7 °C 6,4 km/h (2 Bft)
26.10.2016 15:15 9,8 °C 9,8 °C 93 % 1025,0 hPa 0,0 mm 3,9 km/h (1 Bft) N-NO 32 ° 0 min 0,000 mm 0,0 UV-I 72 W/m² 8,7 °C 4,8 km/h (1 Bft)
26.10.2016 15:16 9,8 °C 9,8 °C 92 % 1025,1 hPa 0,0 mm 3,6 km/h (1 Bft) NO 52 ° 0 min 0,000 mm 0,0 UV-I 60 W/m² 8,6 °C 4,8 km/h (1 Bft)
26.10.2016 15:17 9,8 °C 9,8 °C 92 % 1025,1 hPa 0,0 mm 2,5 km/h (1 Bft) NO 52 ° 0 min 0,000 mm 0,0 UV-I 53 W/m² 8,6 °C 3,2 km/h (1 Bft)
26.10.2016 15:18 9,8 °C 9,8 °C 92 % 1025,1 hPa 0,0 mm 1,9 km/h (1 Bft) NO 52 ° 0 min 0,000 mm 0,0 UV-I 42 W/m² 8,6 °C 3,2 km/h (1 Bft)
26.10.2016 15:19 9,8 °C 9,8 °C 92 % 1025,1 hPa 0,0 mm 2,3 km/h (1 Bft) NO 52 ° 0 min 0,000 mm 0,0 UV-I 37 W/m² 8,6 °C 4,8 km/h (1 Bft)
26.10.2016 15:20 9,8 °C 9,8 °C 93 % 1025,1 hPa 0,0 mm 2,8 km/h (1 Bft) O 82 ° 0 min 0,000 mm 0,0 UV-I 35 W/m² 8,7 °C 6,4 km/h (2 Bft)
26.10.2016 15:21 9,8 °C 9,8 °C 93 % 1025,1 hPa 0,0 mm 3,3 km/h (1 Bft) N-NO 19 ° 0 min 0,000 mm 0,0 UV-I 35 W/m² 8,7 °C 4,8 km/h (1 Bft)
26.10.2016 15:22 9,8 °C 9,8 °C 92 % 1025,2 hPa 0,0 mm 3,6 km/h (1 Bft) O-NO 64 ° 0 min 0,000 mm 0,0 UV-I 37 W/m² 8,6 °C 4,8 km/h (1 Bft)
26.10.2016 15:23 9,8 °C 9,8 °C 92 % 1025,2 hPa 0,0 mm 5,2 km/h (1 Bft) O-NO 59 ° 0 min 0,000 mm 0,0 UV-I 39 W/m² 8,6 °C 6,4 km/h (2 Bft)
26.10.2016 15:24 9,7 °C 9,8 °C 92 % 1025,2 hPa 0,0 mm 4,2 km/h (1 Bft) N-NO 13 ° 0 min 0,000 mm 0,0 UV-I 42 W/m² 8,5 °C 6,4 km/h (2 Bft)
26.10.2016 15:25 9,7 °C 9,7 °C 92 % 1025,1 hPa 0,0 mm 3,7 km/h (1 Bft) NO 49 ° 0 min 0,000 mm 0,0 UV-I 44 W/m² 8,5 °C 4,8 km/h (1 Bft)
26.10.2016 15:26 9,7 °C 9,7 °C 93 % 1025,2 hPa 0,0 mm 3,4 km/h (1 Bft) N-NO 32 ° 0 min 0,000 mm 0,0 UV-I 44 W/m² 8,6 °C 6,4 km/h (2 Bft)
26.10.2016 15:27 9,7 °C 9,7 °C 93 % 1025,1 hPa 0,0 mm 5,0 km/h (1 Bft) NO 51 ° 0 min 0,000 mm 0,0 UV-I 47 W/m² 8,6 °C 6,4 km/h (2 Bft)
26.10.2016 15:28 9,7 °C 9,7 °C 93 % 1025,1 hPa 0,0 mm 2,5 km/h (1 Bft) NO 51 ° 0 min 0,000 mm 0,0 UV-I 49 W/m² 8,6 °C 4,8 km/h (1 Bft)
26.10.2016 15:29 9,7 °C 9,7 °C 93 % 1025,2 hPa 0,0 mm 1,4 km/h (1 Bft) NO 51 ° 0 min 0,000 mm 0,0 UV-I 53 W/m² 8,6 °C 1,6 km/h (1 Bft)
26.10.2016 15:30 9,7 °C 9,7 °C 93 % 1025,2 hPa 0,0 mm 3,2 km/h (1 Bft) NO 51 ° 0 min 0,000 mm 0,0 UV-I 54 W/m² 8,6 °C 4,8 km/h (1 Bft)
26.10.2016 15:31 9,7 °C 9,7 °C 93 % 1025,2 hPa 0,0 mm 3,7 km/h (1 Bft) NO 53 ° 0 min 0,000 mm 0,0 UV-I 53 W/m² 8,6 °C 4,8 km/h (1 Bft)
26.10.2016 15:32 9,7 °C 9,7 °C 93 % 1025,2 hPa 0,0 mm 2,2 km/h (1 Bft) NO 53 ° 0 min 0,000 mm 0,0 UV-I 53 W/m² 8,6 °C 3,2 km/h (1 Bft)
26.10.2016 15:33 9,7 °C 9,7 °C 93 % 1025,2 hPa 0,0 mm 1,4 km/h (1 Bft) NO 53 ° 0 min 0,000 mm 0,0 UV-I 54 W/m² 8,6 °C 3,2 km/h (1 Bft)
26.10.2016 15:34 9,7 °C 9,7 °C 93 % 1025,2 hPa 0,0 mm 1,9 km/h (1 Bft) NO 45 ° 0 min 0,000 mm 0,0 UV-I 54 W/m² 8,6 °C 3,2 km/h (1 Bft)
26.10.2016 15:35 9,8 °C 9,8 °C 93 % 1025,2 hPa 0,0 mm 1,9 km/h (1 Bft) NO 48 ° 0 min 0,000 mm 0,0 UV-I 53 W/m² 8,7 °C 4,8 km/h (1 Bft)
26.10.2016 15:36 9,8 °C 9,8 °C 93 % 1025,2 hPa 0,0 mm 3,0 km/h (1 Bft) NO 48 ° 0 min 0,000 mm 0,0 UV-I 49 W/m² 8,7 °C 4,8 km/h (1 Bft)
26.10.2016 15:37 9,7 °C 9,8 °C 93 % 1025,2 hPa 0,0 mm 2,8 km/h (1 Bft) NO 48 ° 0 min 0,000 mm 0,0 UV-I 47 W/m² 8,6 °C 3,2 km/h (1 Bft)
26.10.2016 15:38 9,7 °C 9,8 °C 93 % 1025,2 hPa 0,0 mm 0,7 km/h (0 Bft) NO 48 ° 0 min 0,000 mm 0,0 UV-I 47 W/m² 8,6 °C 1,6 km/h (1 Bft)
26.10.2016 15:39 9,7 °C 9,7 °C 93 % 1025,2 hPa 0,0 mm 0,2 km/h (0 Bft) NO 48 ° 0 min 0,000 mm 0,0 UV-I 47 W/m² 8,6 °C 1,6 km/h (1 Bft)
26.10.2016 15:40 9,7 °C 9,7 °C 93 % 1025,2 hPa 0,0 mm 1,0 km/h (0 Bft) NO 48 ° 0 min 0,000 mm 0,0 UV-I 47 W/m² 8,6 °C 1,6 km/h (1 Bft)
26.10.2016 15:41 9,7 °C 9,7 °C 93 % 1025,2 hPa 0,0 mm 1,0 km/h (0 Bft) NO 48 ° 0 min 0,000 mm 0,0 UV-I 44 W/m² 8,6 °C 3,2 km/h (1 Bft)
26.10.2016 15:42 9,8 °C 9,8 °C 93 % 1025,2 hPa 0,0 mm 0,4 km/h (0 Bft) NO 48 ° 0 min 0,000 mm 0,0 UV-I 39 W/m² 8,7 °C 1,6 km/h (1 Bft)
26.10.2016 15:43 9,7 °C 9,8 °C 93 % 1025,2 hPa 0,0 mm 0,5 km/h (0 Bft) NO 48 ° 0 min 0,000 mm 0,0 UV-I 35 W/m² 8,6 °C 1,6 km/h (1 Bft)
26.10.2016 15:44 9,7 °C 9,8 °C 93 % 1025,2 hPa 0,0 mm 0,0 km/h (0 Bft) NO 48 ° 0 min 0,000 mm 0,0 UV-I 33 W/m² 8,6 °C 0,0 km/h (0 Bft)
26.10.2016 15:45 9,7 °C 9,7 °C 93 % 1025,2 hPa 0,0 mm 0,0 km/h (0 Bft) NO 48 ° 0 min 0,000 mm 0,0 UV-I 30 W/m² 8,6 °C 0,0 km/h (0 Bft)
26.10.2016 15:46 9,7 °C 9,7 °C 93 % 1025,2 hPa 0,0 mm 0,0 km/h (0 Bft) NO 48 ° 0 min 0,000 mm 0,0 UV-I 26 W/m² 8,6 °C 0,0 km/h (0 Bft)
26.10.2016 15:47 9,7 °C 9,8 °C 93 % 1025,2 hPa 0,0 mm 0,8 km/h (0 Bft) NO 48 ° 0 min 0,000 mm 0,0 UV-I 25 W/m² 8,6 °C 1,6 km/h (1 Bft)
26.10.2016 15:48 9,7 °C 9,7 °C 93 % 1025,2 hPa 0,0 mm 0,6 km/h (0 Bft) NO 48 ° 0 min 0,000 mm 0,0 UV-I 21 W/m² 8,6 °C 1,6 km/h (1 Bft)
26.10.2016 15:49 9,7 °C 9,7 °C 93 % 1025,3 hPa 0,0 mm 1,9 km/h (1 Bft) NO 48 ° 0 min 0,000 mm 0,0 UV-I 21 W/m² 8,6 °C 3,2 km/h (1 Bft)
26.10.2016 15:50 9,7 °C 9,7 °C 93 % 1025,3 hPa 0,0 mm 3,2 km/h (1 Bft) NO 48 ° 0 min 0,000 mm 0,0 UV-I 19 W/m² 8,6 °C 4,8 km/h (1 Bft)
26.10.2016 15:51 9,7 °C 9,7 °C 93 % 1025,3 hPa 0,0 mm 1,5 km/h (1 Bft) NO 48 ° 0 min 0,000 mm 0,0 UV-I 18 W/m² 8,6 °C 1,6 km/h (1 Bft)
26.10.2016 15:52 9,7 °C 9,7 °C 93 % 1025,3 hPa 0,0 mm 1,9 km/h (1 Bft) NO 48 ° 0 min 0,000 mm 0,0 UV-I 16 W/m² 8,6 °C 3,2 km/h (1 Bft)
26.10.2016 15:53 9,7 °C 9,7 °C 93 % 1025,3 hPa 0,0 mm 0,3 km/h (0 Bft) NO 48 ° 0 min 0,000 mm 0,0 UV-I 16 W/m² 8,6 °C 1,6 km/h (1 Bft)
26.10.2016 15:54 9,7 °C 9,7 °C 93 % 1025,3 hPa 0,0 mm 2,1 km/h (1 Bft) NO 48 ° 0 min 0,000 mm 0,0 UV-I 18 W/m² 8,6 °C 3,2 km/h (1 Bft)
26.10.2016 15:55 9,7 °C 9,7 °C 93 % 1025,3 hPa 0,0 mm 1,9 km/h (1 Bft) NO 48 ° 0 min 0,000 mm 0,0 UV-I 18 W/m² 8,6 °C 3,2 km/h (1 Bft)
26.10.2016 15:56 9,7 °C 9,7 °C 93 % 1025,4 hPa 0,0 mm 2,1 km/h (1 Bft) NO 48 ° 0 min 0,000 mm 0,0 UV-I 19 W/m² 8,6 °C 3,2 km/h (1 Bft)
26.10.2016 15:57 9,7 °C 9,7 °C 93 % 1025,4 hPa 0,0 mm 0,6 km/h (0 Bft) NO 48 ° 0 min 0,000 mm 0,0 UV-I 19 W/m² 8,6 °C 1,6 km/h (1 Bft)
26.10.2016 15:58 9,7 °C 9,7 °C 93 % 1025,3 hPa 0,0 mm 1,5 km/h (1 Bft) NO 48 ° 0 min 0,000 mm 0,0 UV-I 21 W/m² 8,6 °C 3,2 km/h (1 Bft)
26.10.2016 15:59 9,7 °C 9,7 °C 93 % 1025,3 hPa 0,0 mm 0,4 km/h (0 Bft) NO 48 ° 0 min 0,000 mm 0,0 UV-I 26 W/m² 8,6 °C 1,6 km/h (1 Bft)
26.10.2016 16:00 9,7 °C 9,7 °C 93 % 1025,3 hPa 0,0 mm 0,0 km/h (0 Bft) NO 48 ° 0 min 0,025 mm 0,0 UV-I 28 W/m² 8,6 °C 0,0 km/h (0 Bft)
26.10.2016 16:01 9,7 °C 9,7 °C 93 % 1025,3 hPa 0,0 mm 0,0 km/h (0 Bft) NO 48 ° 0 min 0,000 mm 0,0 UV-I 30 W/m² 8,6 °C 0,0 km/h (0 Bft)
26.10.2016 16:02 9,7 °C 9,7 °C 93 % 1025,4 hPa 0,0 mm 0,0 km/h (0 Bft) NO 48 ° 0 min 0,000 mm 0,0 UV-I 30 W/m² 8,6 °C 0,0 km/h (0 Bft)
26.10.2016 16:03 9,7 °C 9,7 °C 93 % 1025,4 hPa 0,0 mm 0,0 km/h (0 Bft) NO 48 ° 0 min 0,000 mm 0,0 UV-I 30 W/m² 8,6 °C 0,0 km/h (0 Bft)
26.10.2016 16:04 9,7 °C 9,7 °C 94 % 1025,3 hPa 0,0 mm 0,0 km/h (0 Bft) NO 48 ° 0 min 0,000 mm 0,0 UV-I 32 W/m² 8,8 °C 0,0 km/h (0 Bft)
26.10.2016 16:05 9,7 °C 9,7 °C 94 % 1025,3 hPa 0,0 mm 0,0 km/h (0 Bft) NO 48 ° 0 min 0,000 mm 0,0 UV-I 32 W/m² 8,8 °C 0,0 km/h (0 Bft)
26.10.2016 16:06 9,7 °C 9,7 °C 93 % 1025,4 hPa 0,0 mm 0,0 km/h (0 Bft) NO 48 ° 0 min 0,000 mm 0,0 UV-I 33 W/m² 8,6 °C 0,0 km/h (0 Bft)
26.10.2016 16:07 9,7 °C 9,7 °C 94 % 1025,3 hPa 0,0 mm 0,6 km/h (0 Bft) NO 51 ° 0 min 0,000 mm 0,0 UV-I 35 W/m² 8,8 °C 3,2 km/h (1 Bft)
26.10.2016 16:08 9,7 °C 9,7 °C 93 % 1025,3 hPa 0,0 mm 2,6 km/h (1 Bft) NO 51 ° 0 min 0,000 mm 0,0 UV-I 39 W/m² 8,6 °C 4,8 km/h (1 Bft)
26.10.2016 16:09 9,7 °C 9,7 °C 94 % 1025,3 hPa 0,0 mm 2,0 km/h (1 Bft) O-NO 67 ° 0 min 0,000 mm 0,0 UV-I 39 W/m² 8,8 °C 3,2 km/h (1 Bft)
26.10.2016 16:10 9,7 °C 9,7 °C 93 % 1025,3 hPa 0,0 mm 0,8 km/h (0 Bft) O 82 ° 0 min 0,000 mm 0,0 UV-I 39 W/m² 8,6 °C 1,6 km/h (1 Bft)
26.10.2016 16:11 9,7 °C 9,7 °C 93 % 1025,4 hPa 0,0 mm 0,3 km/h (0 Bft) O 82 ° 0 min 0,000 mm 0,0 UV-I 39 W/m² 8,6 °C 1,6 km/h (1 Bft)
26.10.2016 16:12 9,7 °C 9,7 °C 94 % 1025,4 hPa 0,0 mm 0,4 km/h (0 Bft) O 82 ° 0 min 0,000 mm 0,0 UV-I 39 W/m² 8,8 °C 1,6 km/h (1 Bft)
26.10.2016 16:13 9,7 °C 9,7 °C 93 % 1025,4 hPa 0,0 mm 0,0 km/h (0 Bft) O 82 ° 0 min 0,000 mm 0,0 UV-I 37 W/m² 8,6 °C 0,0 km/h (0 Bft)
26.10.2016 16:14 9,7 °C 9,7 °C 93 % 1025,4 hPa 0,0 mm 0,0 km/h (0 Bft) O 82 ° 0 min 0,000 mm 0,0 UV-I 35 W/m² 8,6 °C 0,0 km/h (0 Bft)
26.10.2016 16:15 9,7 °C 9,7 °C 93 % 1025,4 hPa 0,0 mm 0,0 km/h (0 Bft) O 82 ° 0 min 0,000 mm 0,0 UV-I 33 W/m² 8,6 °C 0,0 km/h (0 Bft)
26.10.2016 16:16 9,7 °C 9,7 °C 93 % 1025,4 hPa 0,0 mm 0,0 km/h (0 Bft) O 82 ° 0 min 0,000 mm 0,0 UV-I 30 W/m² 8,6 °C 0,0 km/h (0 Bft)
26.10.2016 16:17 9,7 °C 9,7 °C 94 % 1025,4 hPa 0,0 mm 2,2 km/h (1 Bft) O 82 ° 0 min 0,000 mm 0,0 UV-I 25 W/m² 8,8 °C 3,2 km/h (1 Bft)
26.10.2016 16:18 9,7 °C 9,7 °C 94 % 1025,4 hPa 0,0 mm 3,3 km/h (1 Bft) O 82 ° 0 min 0,000 mm 0,0 UV-I 23 W/m² 8,8 °C 4,8 km/h (1 Bft)
26.10.2016 16:19 9,8 °C 9,8 °C 93 % 1025,4 hPa 0,0 mm 1,6 km/h (1 Bft) O 82 ° 0 min 0,000 mm 0,0 UV-I 23 W/m² 8,7 °C 3,2 km/h (1 Bft)
26.10.2016 16:20 9,8 °C 9,8 °C 93 % 1025,4 hPa 0,0 mm 2,4 km/h (1 Bft) O 82 ° 0 min 0,000 mm 0,0 UV-I 21 W/m² 8,7 °C 3,2 km/h (1 Bft)
26.10.2016 16:21 9,7 °C 9,8 °C 93 % 1025,4 hPa 0,0 mm 3,0 km/h (1 Bft) O 82 ° 0 min 0,000 mm 0,0 UV-I 21 W/m² 8,6 °C 4,8 km/h (1 Bft)
26.10.2016 16:22 9,7 °C 9,7 °C 93 % 1025,4 hPa 0,0 mm 3,0 km/h (1 Bft) O 82 ° 0 min 0,000 mm 0,0 UV-I 21 W/m² 8,6 °C 3,2 km/h (1 Bft)
26.10.2016 16:23 9,7 °C 9,7 °C 93 % 1025,4 hPa 0,0 mm 2,8 km/h (1 Bft) O 82 ° 0 min 0,000 mm 0,0 UV-I 19 W/m² 8,6 °C 3,2 km/h (1 Bft)
26.10.2016 16:24 9,7 °C 9,7 °C 93 % 1025,4 hPa 0,0 mm 2,1 km/h (1 Bft) O 82 ° 0 min 0,000 mm 0,0 UV-I 19 W/m² 8,6 °C 3,2 km/h (1 Bft)
26.10.2016 16:25 9,7 °C 9,8 °C 93 % 1025,4 hPa 0,0 mm 0,6 km/h (0 Bft) O 82 ° 0 min 0,000 mm 0,0 UV-I 18 W/m² 8,6 °C 1,6 km/h (1 Bft)
26.10.2016 16:26 9,7 °C 9,8 °C 93 % 1025,5 hPa 0,0 mm 0,9 km/h (0 Bft) O 82 ° 0 min 0,000 mm 0,0 UV-I 18 W/m² 8,6 °C 1,6 km/h (1 Bft)
26.10.2016 16:27 9,7 °C 9,7 °C 93 % 1025,4 hPa 0,0 mm 1,2 km/h (1 Bft) O 82 ° 0 min 0,000 mm 0,0 UV-I 16 W/m² 8,6 °C 3,2 km/h (1 Bft)
26.10.2016 16:28 9,7 °C 9,8 °C 93 % 1025,4 hPa 0,0 mm 1,3 km/h (1 Bft) O 82 ° 0 min 0,000 mm 0,0 UV-I 14 W/m² 8,6 °C 1,6 km/h (1 Bft)
26.10.2016 16:29 9,8 °C 9,8 °C 93 % 1025,5 hPa 0,0 mm 2,4 km/h (1 Bft) O 82 ° 0 min 0,000 mm 0,0 UV-I 12 W/m² 8,7 °C 3,2 km/h (1 Bft)
26.10.2016 16:30 9,7 °C 9,8 °C 93 % 1025,4 hPa 0,0 mm 2,5 km/h (1 Bft) O 81 ° 0 min 0,000 mm 0,0 UV-I 12 W/m² 8,6 °C 4,8 km/h (1 Bft)
26.10.2016 16:31 9,7 °C 9,8 °C 93 % 1025,4 hPa 0,0 mm 2,1 km/h (1 Bft) O 81 ° 0 min 0,000 mm 0,0 UV-I 11 W/m² 8,6 °C 3,2 km/h (1 Bft)
26.10.2016 16:32 9,7 °C 9,8 °C 93 % 1025,4 hPa 0,0 mm 1,2 km/h (1 Bft) O 81 ° 0 min 0,000 mm 0,0 UV-I 11 W/m² 8,6 °C 3,2 km/h (1 Bft)
26.10.2016 16:33 9,7 °C 9,8 °C 93 % 1025,4 hPa 0,0 mm 0,4 km/h (0 Bft) O 81 ° 0 min 0,000 mm 0,0 UV-I 11 W/m² 8,6 °C 1,6 km/h (1 Bft)
26.10.2016 16:34 9,7 °C 9,8 °C 93 % 1025,5 hPa 0,0 mm 0,9 km/h (0 Bft) O 82 ° 0 min 0,000 mm 0,0 UV-I 11 W/m² 8,6 °C 1,6 km/h (1 Bft)
26.10.2016 16:35 9,7 °C 9,8 °C 94 % 1025,5 hPa 0,0 mm 0,9 km/h (0 Bft) O 81 ° 0 min 0,000 mm 0,0 UV-I 12 W/m² 8,8 °C 1,6 km/h (1 Bft)
26.10.2016 16:36 9,8 °C 9,8 °C 94 % 1025,4 hPa 0,0 mm 0,5 km/h (0 Bft) O 81 ° 0 min 0,000 mm 0,0 UV-I 12 W/m² 8,9 °C 1,6 km/h (1 Bft)
26.10.2016 16:37 9,7 °C 9,8 °C 93 % 1025,5 hPa 0,0 mm 0,0 km/h (0 Bft) O 81 ° 0 min 0,000 mm 0,0 UV-I 16 W/m² 8,6 °C 0,0 km/h (0 Bft)
26.10.2016 16:38 9,7 °C 9,8 °C 94 % 1025,5 hPa 0,0 mm 0,0 km/h (0 Bft) O 81 ° 0 min 0,000 mm 0,0 UV-I 18 W/m² 8,8 °C 0,0 km/h (0 Bft)
26.10.2016 16:39 9,7 °C 9,7 °C 94 % 1025,5 hPa 0,0 mm 1,0 km/h (0 Bft) O 81 ° 0 min 0,000 mm 0,0 UV-I 19 W/m² 8,8 °C 3,2 km/h (1 Bft)
26.10.2016 16:40 9,7 °C 9,7 °C 94 % 1025,5 hPa 0,0 mm 1,6 km/h (1 Bft) O 81 ° 0 min 0,000 mm 0,0 UV-I 19 W/m² 8,8 °C 3,2 km/h (1 Bft)
26.10.2016 16:41 9,7 °C 9,7 °C 94 % 1025,5 hPa 0,0 mm 0,3 km/h (0 Bft) O 81 ° 0 min 0,000 mm 0,0 UV-I 21 W/m² 8,8 °C 1,6 km/h (1 Bft)
26.10.2016 16:42 9,7 °C 9,7 °C 94 % 1025,5 hPa 0,0 mm 0,0 km/h (0 Bft) O 81 ° 0 min 0,000 mm 0,0 UV-I 25 W/m² 8,8 °C 0,0 km/h (0 Bft)
26.10.2016 16:43 9,7 °C 9,7 °C 94 % 1025,6 hPa 0,0 mm 0,8 km/h (0 Bft) O 81 ° 0 min 0,000 mm 0,0 UV-I 26 W/m² 8,8 °C 3,2 km/h (1 Bft)
26.10.2016 16:44 9,7 °C 9,7 °C 94 % 1025,5 hPa 0,0 mm 1,9 km/h (1 Bft) O 81 ° 0 min 0,000 mm 0,0 UV-I 26 W/m² 8,8 °C 3,2 km/h (1 Bft)
26.10.2016 16:45 9,7 °C 9,7 °C 94 % 1025,6 hPa 0,0 mm 2,8 km/h (1 Bft) NO 39 ° 0 min 0,000 mm 0,0 UV-I 25 W/m² 8,8 °C 4,8 km/h (1 Bft)
26.10.2016 16:46 9,7 °C 9,7 °C 94 % 1025,6 hPa 0,0 mm 0,9 km/h (0 Bft) NO 39 ° 0 min 0,000 mm 0,0 UV-I 21 W/m² 8,8 °C 1,6 km/h (1 Bft)
26.10.2016 16:47 9,7 °C 9,7 °C 94 % 1025,6 hPa 0,0 mm 1,0 km/h (0 Bft) NO 39 ° 0 min 0,000 mm 0,0 UV-I 18 W/m² 8,8 °C 3,2 km/h (1 Bft)
26.10.2016 16:48 9,7 °C 9,7 °C 94 % 1025,6 hPa 0,0 mm 1,0 km/h (0 Bft) NO 39 ° 0 min 0,000 mm 0,0 UV-I 16 W/m² 8,8 °C 1,6 km/h (1 Bft)
26.10.2016 16:49 9,7 °C 9,7 °C 94 % 1025,6 hPa 0,0 mm 0,8 km/h (0 Bft) NO 39 ° 0 min 0,000 mm 0,0 UV-I 14 W/m² 8,8 °C 1,6 km/h (1 Bft)
26.10.2016 16:50 9,7 °C 9,7 °C 94 % 1025,6 hPa 0,0 mm 0,1 km/h (0 Bft) NO 39 ° 0 min 0,000 mm 0,0 UV-I 12 W/m² 8,8 °C 1,6 km/h (1 Bft)
26.10.2016 16:51 9,7 °C 9,8 °C 94 % 1025,6 hPa 0,0 mm 0,9 km/h (0 Bft) NO 39 ° 0 min 0,000 mm 0,0 UV-I 12 W/m² 8,8 °C 3,2 km/h (1 Bft)
26.10.2016 16:52 9,7 °C 9,7 °C 94 % 1025,6 hPa 0,0 mm 0,9 km/h (0 Bft) NO 39 ° 0 min 0,000 mm 0,0 UV-I 12 W/m² 8,8 °C 3,2 km/h (1 Bft)
26.10.2016 16:53 9,7 °C 9,7 °C 93 % 1025,6 hPa 0,0 mm 0,9 km/h (0 Bft) NO 39 ° 0 min 0,000 mm 0,0 UV-I 12 W/m² 8,6 °C 1,6 km/h (1 Bft)
26.10.2016 16:54 9,7 °C 9,7 °C 94 % 1025,7 hPa 0,0 mm 1,3 km/h (1 Bft) NO 39 ° 0 min 0,000 mm 0,0 UV-I 12 W/m² 8,8 °C 1,6 km/h (1 Bft)
26.10.2016 16:55 9,7 °C 9,7 °C 94 % 1025,7 hPa 0,0 mm 0,9 km/h (0 Bft) NO 39 ° 0 min 0,000 mm 0,0 UV-I 14 W/m² 8,8 °C 1,6 km/h (1 Bft)
26.10.2016 16:56 9,7 °C 9,7 °C 94 % 1025,6 hPa 0,0 mm 1,0 km/h (0 Bft) NO 39 ° 0 min 0,000 mm 0,0 UV-I 14 W/m² 8,8 °C 1,6 km/h (1 Bft)
26.10.2016 16:57 9,7 °C 9,7 °C 94 % 1025,7 hPa 0,0 mm 0,8 km/h (0 Bft) NO 39 ° 0 min 0,000 mm 0,0 UV-I 14 W/m² 8,8 °C 1,6 km/h (1 Bft)
26.10.2016 16:58 9,7 °C 9,7 °C 94 % 1025,7 hPa 0,0 mm 1,4 km/h (1 Bft) NO 39 ° 0 min 0,000 mm 0,0 UV-I 16 W/m² 8,8 °C 3,2 km/h (1 Bft)
26.10.2016 16:59 9,7 °C 9,8 °C 94 % 1025,7 hPa 0,0 mm 1,3 km/h (1 Bft) NO 39 ° 0 min 0,000 mm 0,0 UV-I 16 W/m² 8,8 °C 3,2 km/h (1 Bft)
26.10.2016 17:00 9,7 °C 9,7 °C 94 % 1025,7 hPa 0,0 mm 1,4 km/h (1 Bft) NO 39 ° 0 min 0,000 mm 0,0 UV-I 16 W/m² 8,8 °C 3,2 km/h (1 Bft)
26.10.2016 17:01 9,7 °C 9,7 °C 94 % 1025,7 hPa 0,0 mm 0,1 km/h (0 Bft) NO 39 ° 0 min 0,000 mm 0,0 UV-I 16 W/m² 8,8 °C 1,6 km/h (1 Bft)
26.10.2016 17:02 9,7 °C 9,7 °C 94 % 1025,7 hPa 0,0 mm 0,0 km/h (0 Bft) NO 39 ° 0 min 0,000 mm 0,0 UV-I 16 W/m² 8,8 °C 0,0 km/h (0 Bft)
26.10.2016 17:03 9,7 °C 9,7 °C 94 % 1025,7 hPa 0,0 mm 0,4 km/h (0 Bft) NO 39 ° 0 min 0,000 mm 0,0 UV-I 16 W/m² 8,8 °C 1,6 km/h (1 Bft)
26.10.2016 17:04 9,7 °C 9,7 °C 94 % 1025,7 hPa 0,0 mm 0,3 km/h (0 Bft) NO 39 ° 0 min 0,000 mm 0,0 UV-I 14 W/m² 8,8 °C 1,6 km/h (1 Bft)
26.10.2016 17:05 9,7 °C 9,7 °C 94 % 1025,7 hPa 0,0 mm 0,0 km/h (0 Bft) NO 39 ° 0 min 0,000 mm 0,0 UV-I 14 W/m² 8,8 °C 0,0 km/h (0 Bft)
26.10.2016 17:06 9,7 °C 9,7 °C 94 % 1025,8 hPa 0,0 mm 0,0 km/h (0 Bft) NO 39 ° 0 min 0,000 mm 0,0 UV-I 14 W/m² 8,8 °C 0,0 km/h (0 Bft)
26.10.2016 17:07 9,7 °C 9,7 °C 94 % 1025,8 hPa 0,0 mm 0,4 km/h (0 Bft) NO 39 ° 0 min 0,000 mm 0,0 UV-I 14 W/m² 8,8 °C 1,6 km/h (1 Bft)
26.10.2016 17:08 9,7 °C 9,7 °C 94 % 1025,7 hPa 0,0 mm 0,7 km/h (0 Bft) NO 39 ° 0 min 0,000 mm 0,0 UV-I 16 W/m² 8,8 °C 1,6 km/h (1 Bft)
26.10.2016 17:09 9,7 °C 9,7 °C 94 % 1025,8 hPa 0,0 mm 0,0 km/h (0 Bft) NO 39 ° 0 min 0,000 mm 0,0 UV-I 16 W/m² 8,8 °C 0,0 km/h (0 Bft)
26.10.2016 17:10 9,7 °C 9,7 °C 94 % 1025,8 hPa 0,0 mm 0,4 km/h (0 Bft) NO 39 ° 0 min 0,000 mm 0,0 UV-I 16 W/m² 8,8 °C 1,6 km/h (1 Bft)
26.10.2016 17:11 9,7 °C 9,7 °C 94 % 1025,7 hPa 0,0 mm 0,0 km/h (0 Bft) NO 39 ° 0 min 0,000 mm 0,0 UV-I 18 W/m² 8,8 °C 0,0 km/h (0 Bft)
26.10.2016 17:12 9,7 °C 9,7 °C 94 % 1025,8 hPa 0,0 mm 0,0 km/h (0 Bft) NO 39 ° 0 min 0,000 mm 0,0 UV-I 18 W/m² 8,8 °C 0,0 km/h (0 Bft)
26.10.2016 17:13 9,7 °C 9,7 °C 94 % 1025,8 hPa 0,0 mm 0,4 km/h (0 Bft) NO 39 ° 0 min 0,000 mm 0,0 UV-I 18 W/m² 8,8 °C 1,6 km/h (1 Bft)
26.10.2016 17:14 9,6 °C 9,7 °C 94 % 1025,8 hPa 0,0 mm 0,1 km/h (0 Bft) NO 39 ° 0 min 0,000 mm 0,0 UV-I 19 W/m² 8,7 °C 1,6 km/h (1 Bft)
26.10.2016 17:15 9,6 °C 9,6 °C 94 % 1025,8 hPa 0,0 mm 0,0 km/h (0 Bft) NO 39 ° 0 min 0,000 mm 0,0 UV-I 21 W/m² 8,7 °C 0,0 km/h (0 Bft)
26.10.2016 17:16 9,6 °C 9,7 °C 94 % 1025,8 hPa 0,0 mm 0,0 km/h (0 Bft) NO 39 ° 0 min 0,000 mm 0,0 UV-I 19 W/m² 8,7 °C 0,0 km/h (0 Bft)
26.10.2016 17:17 9,6 °C 9,6 °C 94 % 1025,8 hPa 0,0 mm 0,0 km/h (0 Bft) NO 39 ° 0 min 0,000 mm 0,0 UV-I 18 W/m² 8,7 °C 0,0 km/h (0 Bft)
26.10.2016 17:18 9,6 °C 9,6 °C 94 % 1025,8 hPa 0,0 mm 0,0 km/h (0 Bft) NO 39 ° 0 min 0,000 mm 0,0 UV-I 16 W/m² 8,7 °C 0,0 km/h (0 Bft)
26.10.2016 17:19 9,6 °C 9,7 °C 94 % 1025,9 hPa 0,0 mm 0,2 km/h (0 Bft) NO 39 ° 0 min 0,000 mm 0,0 UV-I 14 W/m² 8,7 °C 1,6 km/h (1 Bft)
26.10.2016 17:20 9,7 °C 9,7 °C 94 % 1025,9 hPa 0,0 mm 0,0 km/h (0 Bft) NO 39 ° 0 min 0,000 mm 0,0 UV-I 14 W/m² 8,8 °C 0,0 km/h (0 Bft)
26.10.2016 17:21 9,6 °C 9,7 °C 94 % 1025,9 hPa 0,0 mm 0,0 km/h (0 Bft) NO 39 ° 0 min 0,000 mm 0,0 UV-I 12 W/m² 8,7 °C 0,0 km/h (0 Bft)
26.10.2016 17:22 9,6 °C 9,6 °C 94 % 1025,9 hPa 0,0 mm 0,0 km/h (0 Bft) NO 39 ° 0 min 0,000 mm 0,0 UV-I 12 W/m² 8,7 °C 0,0 km/h (0 Bft)
26.10.2016 17:23 9,6 °C 9,7 °C 94 % 1025,9 hPa 0,0 mm 0,8 km/h (0 Bft) NO 39 ° 0 min 0,000 mm 0,0 UV-I 11 W/m² 8,7 °C 3,2 km/h (1 Bft)
26.10.2016 17:24 9,6 °C 9,7 °C 94 % 1025,9 hPa 0,0 mm 2,7 km/h (1 Bft) NO 39 ° 0 min 0,000 mm 0,0 UV-I 11 W/m² 8,7 °C 4,8 km/h (1 Bft)
26.10.2016 17:25 9,7 °C 9,7 °C 95 % 1025,9 hPa 0,0 mm 2,4 km/h (1 Bft) NO 39 ° 0 min 0,000 mm 0,0 UV-I 9 W/m² 8,9 °C 4,8 km/h (1 Bft)
26.10.2016 17:26 9,7 °C 9,7 °C 95 % 1025,9 hPa 0,0 mm 2,1 km/h (1 Bft) NO 39 ° 0 min 0,000 mm 0,0 UV-I 9 W/m² 8,9 °C 3,2 km/h (1 Bft)
26.10.2016 17:27 9,7 °C 9,7 °C 95 % 1025,9 hPa 0,0 mm 0,2 km/h (0 Bft) NO 39 ° 0 min 0,000 mm 0,0 UV-I 7 W/m² 8,9 °C 1,6 km/h (1 Bft)
26.10.2016 17:28 9,7 °C 9,7 °C 95 % 1025,9 hPa 0,0 mm 1,4 km/h (1 Bft) NO 39 ° 0 min 0,000 mm 0,0 UV-I 5 W/m² 8,9 °C 3,2 km/h (1 Bft)
26.10.2016 17:29 9,7 °C 9,7 °C 95 % 1025,9 hPa 0,0 mm 0,4 km/h (0 Bft) NO 39 ° 0 min 0,000 mm 0,0 UV-I 5 W/m² 8,9 °C 1,6 km/h (1 Bft)
26.10.2016 17:30 9,7 °C 9,7 °C 95 % 1025,9 hPa 0,0 mm 0,0 km/h (0 Bft) NO 39 ° 0 min 0,000 mm 0,0 UV-I 5 W/m² 8,9 °C 0,0 km/h (0 Bft)
26.10.2016 17:31 9,7 °C 9,7 °C 95 % 1025,9 hPa 0,0 mm 0,0 km/h (0 Bft) NO 39 ° 0 min 0,000 mm 0,0 UV-I 5 W/m² 8,9 °C 0,0 km/h (0 Bft)
26.10.2016 17:32 9,7 °C 9,7 °C 95 % 1025,9 hPa 0,0 mm 0,2 km/h (0 Bft) NO 39 ° 0 min 0,000 mm 0,0 UV-I 5 W/m² 8,9 °C 1,6 km/h (1 Bft)
26.10.2016 17:33 9,6 °C 9,7 °C 95 % 1025,9 hPa 0,0 mm 0,0 km/h (0 Bft) NO 39 ° 0 min 0,000 mm 0,0 UV-I 5 W/m² 8,8 °C 0,0 km/h (0 Bft)
26.10.2016 17:34 9,6 °C 9,7 °C 95 % 1025,9 hPa 0,0 mm 2,5 km/h (1 Bft) NO 39 ° 0 min 0,000 mm 0,0 UV-I 0 W/m² 8,8 °C 4,8 km/h (1 Bft)
26.10.2016 17:35 9,6 °C 9,7 °C 95 % 1025,9 hPa 0,0 mm 2,0 km/h (1 Bft) NO 39 ° 0 min 0,000 mm 0,0 UV-I 0 W/m² 8,8 °C 3,2 km/h (1 Bft)
26.10.2016 17:36 9,7 °C 9,7 °C 95 % 1025,9 hPa 0,0 mm 2,8 km/h (1 Bft) NO 39 ° 0 min 0,000 mm 0,0 UV-I 0 W/m² 8,9 °C 3,2 km/h (1 Bft)
26.10.2016 17:37 9,6 °C 9,7 °C 95 % 1025,9 hPa 0,0 mm 1,8 km/h (1 Bft) NO 39 ° 0 min 0,000 mm 0,0 UV-I 0 W/m² 8,8 °C 3,2 km/h (1 Bft)
26.10.2016 17:38 9,6 °C 9,7 °C 95 % 1025,9 hPa 0,0 mm 0,9 km/h (0 Bft) NO 39 ° 0 min 0,000 mm 0,0 UV-I 0 W/m² 8,8 °C 1,6 km/h (1 Bft)
26.10.2016 17:39 9,6 °C 9,7 °C 95 % 1025,9 hPa 0,0 mm 0,0 km/h (0 Bft) NO 39 ° 0 min 0,000 mm 0,0 UV-I 0 W/m² 8,8 °C 0,0 km/h (0 Bft)
26.10.2016 17:40 9,6 °C 9,6 °C 95 % 1025,9 hPa 0,0 mm 0,7 km/h (0 Bft) NO 39 ° 0 min 0,000 mm 0,0 UV-I 0 W/m² 8,8 °C 1,6 km/h (1 Bft)
26.10.2016 17:41 9,6 °C 9,6 °C 95 % 1025,9 hPa 0,0 mm 0,8 km/h (0 Bft) NO 39 ° 0 min 0,000 mm 0,0 UV-I 0 W/m² 8,8 °C 1,6 km/h (1 Bft)
26.10.2016 17:42 9,6 °C 9,6 °C 94 % 1025,9 hPa 0,0 mm 0,2 km/h (0 Bft) NO 39 ° 0 min 0,000 mm 0,0 UV-I 0 W/m² 8,7 °C 1,6 km/h (1 Bft)
26.10.2016 17:43 9,6 °C 9,6 °C 94 % 1025,9 hPa 0,0 mm 0,5 km/h (0 Bft) NO 39 ° 0 min 0,000 mm 0,0 UV-I 0 W/m² 8,7 °C 1,6 km/h (1 Bft)
26.10.2016 17:44 9,6 °C 9,6 °C 94 % 1025,9 hPa 0,0 mm 0,8 km/h (0 Bft) NO 39 ° 0 min 0,000 mm 0,0 UV-I 0 W/m² 8,7 °C 1,6 km/h (1 Bft)
26.10.2016 17:45 9,6 °C 9,6 °C 94 % 1025,9 hPa 0,0 mm 0,3 km/h (0 Bft) NO 39 ° 0 min 0,000 mm 0,0 UV-I 0 W/m² 8,7 °C 1,6 km/h (1 Bft)
26.10.2016 17:46 9,6 °C 9,6 °C 94 % 1025,9 hPa 0,0 mm 1,0 km/h (0 Bft) NO 39 ° 0 min 0,000 mm 0,0 UV-I 0 W/m² 8,7 °C 1,6 km/h (1 Bft)
26.10.2016 17:47 9,6 °C 9,6 °C 94 % 1025,9 hPa 0,0 mm 0,0 km/h (0 Bft) NO 39 ° 0 min 0,000 mm 0,0 UV-I 0 W/m² 8,7 °C 0,0 km/h (0 Bft)
26.10.2016 17:48 9,6 °C 9,6 °C 94 % 1025,9 hPa 0,0 mm 0,0 km/h (0 Bft) NO 39 ° 0 min 0,000 mm 0,0 UV-I 0 W/m² 8,7 °C 0,0 km/h (0 Bft)
26.10.2016 17:49 9,6 °C 9,6 °C 94 % 1025,9 hPa 0,0 mm 0,3 km/h (0 Bft) NO 39 ° 0 min 0,000 mm 0,0 UV-I 0 W/m² 8,7 °C 1,6 km/h (1 Bft)
26.10.2016 17:50 9,6 °C 9,6 °C 94 % 1025,9 hPa 0,0 mm 0,2 km/h (0 Bft) NO 39 ° 0 min 0,000 mm 0,0 UV-I 0 W/m² 8,7 °C 1,6 km/h (1 Bft)
26.10.2016 17:51 9,6 °C 9,6 °C 94 % 1025,9 hPa 0,0 mm 0,7 km/h (0 Bft) NO 39 ° 0 min 0,000 mm 0,0 UV-I 0 W/m² 8,7 °C 1,6 km/h (1 Bft)
26.10.2016 17:52 9,6 °C 9,6 °C 94 % 1025,9 hPa 0,0 mm 3,0 km/h (1 Bft) NO 52 ° 0 min 0,000 mm 0,0 UV-I 0 W/m² 8,7 °C 3,2 km/h (1 Bft)
26.10.2016 17:53 9,6 °C 9,6 °C 94 % 1025,9 hPa 0,0 mm 2,3 km/h (1 Bft) NO 52 ° 0 min 0,000 mm 0,0 UV-I 0 W/m² 8,7 °C 3,2 km/h (1 Bft)
26.10.2016 17:54 9,6 °C 9,6 °C 95 % 1025,9 hPa 0,0 mm 0,8 km/h (0 Bft) NO 52 ° 0 min 0,000 mm 0,0 UV-I 0 W/m² 8,8 °C 1,6 km/h (1 Bft)
26.10.2016 17:55 9,5 °C 9,6 °C 95 % 1025,9 hPa 0,0 mm 0,0 km/h (0 Bft) NO 52 ° 0 min 0,000 mm 0,0 UV-I 0 W/m² 8,7 °C 0,0 km/h (0 Bft)
26.10.2016 17:56 9,5 °C 9,5 °C 95 % 1025,9 hPa 0,0 mm 0,0 km/h (0 Bft) NO 52 ° 0 min 0,000 mm 0,0 UV-I 0 W/m² 8,7 °C 0,0 km/h (0 Bft)
26.10.2016 17:57 9,5 °C 9,5 °C 94 % 1025,9 hPa 0,0 mm 0,2 km/h (0 Bft) NO 52 ° 0 min 0,000 mm 0,0 UV-I 0 W/m² 8,6 °C 1,6 km/h (1 Bft)
26.10.2016 17:58 9,4 °C 9,5 °C 94 % 1025,9 hPa 0,0 mm 0,8 km/h (0 Bft) NO 52 ° 0 min 0,000 mm 0,0 UV-I 0 W/m² 8,5 °C 3,2 km/h (1 Bft)
26.10.2016 17:59 9,5 °C 9,5 °C 94 % 1025,9 hPa 0,0 mm 1,9 km/h (1 Bft) NO 52 ° 0 min 0,000 mm 0,0 UV-I 0 W/m² 8,6 °C 3,2 km/h (1 Bft)
26.10.2016 18:00 9,4 °C 9,5 °C 94 % 1025,9 hPa 0,0 mm 2,7 km/h (1 Bft) NO 52 ° 0 min 0,000 mm 0,0 UV-I 0 W/m² 8,5 °C 4,8 km/h (1 Bft)
26.10.2016 18:01 9,5 °C 9,5 °C 94 % 1025,9 hPa 0,0 mm 2,6 km/h (1 Bft) NO 52 ° 0 min 0,000 mm 0,0 UV-I 0 W/m² 8,6 °C 3,2 km/h (1 Bft)
26.10.2016 18:02 9,5 °C 9,5 °C 94 % 1025,9 hPa 0,0 mm 2,0 km/h (1 Bft) NO 52 ° 0 min 0,000 mm 0,0 UV-I 0 W/m² 8,6 °C 3,2 km/h (1 Bft)
26.10.2016 18:03 9,5 °C 9,5 °C 94 % 1026,0 hPa 0,0 mm 3,9 km/h (1 Bft) NO 52 ° 0 min 0,000 mm 0,0 UV-I 0 W/m² 8,6 °C 4,8 km/h (1 Bft)
26.10.2016 18:04 9,5 °C 9,5 °C 94 % 1026,0 hPa 0,0 mm 1,7 km/h (1 Bft) NO 52 ° 0 min 0,000 mm 0,0 UV-I 0 W/m² 8,6 °C 3,2 km/h (1 Bft)
26.10.2016 18:05 9,5 °C 9,5 °C 94 % 1026,0 hPa 0,0 mm 4,7 km/h (1 Bft) O-NO 72 ° 0 min 0,000 mm 0,0 UV-I 0 W/m² 8,6 °C 6,4 km/h (2 Bft)
26.10.2016 18:06 9,5 °C 9,5 °C 94 % 1026,0 hPa 0,0 mm 2,6 km/h (1 Bft) NO 40 ° 0 min 0,000 mm 0,0 UV-I 0 W/m² 8,6 °C 4,8 km/h (1 Bft)
26.10.2016 18:07 9,5 °C 9,5 °C 94 % 1026,0 hPa 0,0 mm 2,3 km/h (1 Bft) NO 40 ° 0 min 0,000 mm 0,0 UV-I 0 W/m² 8,6 °C 6,4 km/h (2 Bft)
26.10.2016 18:08 9,4 °C 9,5 °C 94 % 1026,0 hPa 0,0 mm 2,2 km/h (1 Bft) O-NO 60 ° 0 min 0,000 mm 0,0 UV-I 0 W/m² 8,5 °C 3,2 km/h (1 Bft)
26.10.2016 18:09 9,5 °C 9,5 °C 94 % 1026,1 hPa 0,0 mm 1,2 km/h (1 Bft) O-NO 60 ° 0 min 0,000 mm 0,0 UV-I 0 W/m² 8,6 °C 1,6 km/h (1 Bft)
26.10.2016 18:10 9,5 °C 9,5 °C 94 % 1026,1 hPa 0,0 mm 1,5 km/h (1 Bft) O-NO 60 ° 0 min 0,000 mm 0,0 UV-I 0 W/m² 8,6 °C 3,2 km/h (1 Bft)
26.10.2016 18:11 9,4 °C 9,5 °C 94 % 1026,1 hPa 0,0 mm 0,0 km/h (0 Bft) O-NO 60 ° 0 min 0,000 mm 0,0 UV-I 0 W/m² 8,5 °C 0,0 km/h (0 Bft)
26.10.2016 18:12 9,4 °C 9,4 °C 94 % 1026,1 hPa 0,0 mm 1,3 km/h (1 Bft) O-NO 60 ° 0 min 0,000 mm 0,0 UV-I 0 W/m² 8,5 °C 3,2 km/h (1 Bft)
26.10.2016 18:13 9,4 °C 9,4 °C 94 % 1026,1 hPa 0,0 mm 1,2 km/h (1 Bft) O-NO 60 ° 0 min 0,000 mm 0,0 UV-I 0 W/m² 8,5 °C 3,2 km/h (1 Bft)
26.10.2016 18:14 9,4 °C 9,4 °C 94 % 1026,2 hPa 0,0 mm 2,4 km/h (1 Bft) O-NO 60 ° 0 min 0,000 mm 0,0 UV-I 0 W/m² 8,5 °C 3,2 km/h (1 Bft)
26.10.2016 18:15 9,4 °C 9,4 °C 94 % 1026,2 hPa 0,0 mm 2,2 km/h (1 Bft) O-NO 60 ° 0 min 0,000 mm 0,0 UV-I 0 W/m² 8,5 °C 3,2 km/h (1 Bft)
26.10.2016 18:16 9,4 °C 9,4 °C 94 % 1026,2 hPa 0,0 mm 1,8 km/h (1 Bft) O-NO 60 ° 0 min 0,000 mm 0,0 UV-I 0 W/m² 8,5 °C 3,2 km/h (1 Bft)
26.10.2016 18:17 9,4 °C 9,4 °C 94 % 1026,3 hPa 0,0 mm 3,0 km/h (1 Bft) O-NO 60 ° 0 min 0,000 mm 0,0 UV-I 0 W/m² 8,5 °C 4,8 km/h (1 Bft)
26.10.2016 18:18 9,4 °C 9,4 °C 94 % 1026,2 hPa 0,0 mm 2,7 km/h (1 Bft) O-NO 60 ° 0 min 0,000 mm 0,0 UV-I 0 W/m² 8,5 °C 3,2 km/h (1 Bft)
26.10.2016 18:19 9,4 °C 9,4 °C 94 % 1026,2 hPa 0,0 mm 2,4 km/h (1 Bft) O-NO 60 ° 0 min 0,000 mm 0,0 UV-I 0 W/m² 8,5 °C 3,2 km/h (1 Bft)
26.10.2016 18:20 9,4 °C 9,4 °C 94 % 1026,2 hPa 0,0 mm 1,4 km/h (1 Bft) O-NO 60 ° 0 min 0,000 mm 0,0 UV-I 0 W/m² 8,5 °C 1,6 km/h (1 Bft)
26.10.2016 18:21 9,4 °C 9,4 °C 94 % 1026,2 hPa 0,0 mm 0,7 km/h (0 Bft) O-NO 60 ° 0 min 0,000 mm 0,0 UV-I 0 W/m² 8,5 °C 3,2 km/h (1 Bft)
26.10.2016 18:22 9,4 °C 9,4 °C 94 % 1026,2 hPa 0,0 mm 1,7 km/h (1 Bft) O-NO 60 ° 0 min 0,000 mm 0,0 UV-I 0 W/m² 8,5 °C 3,2 km/h (1 Bft)
26.10.2016 18:23 9,4 °C 9,4 °C 95 % 1026,2 hPa 0,0 mm 1,4 km/h (1 Bft) O-NO 60 ° 0 min 0,000 mm 0,0 UV-I 0 W/m² 8,6 °C 3,2 km/h (1 Bft)
26.10.2016 18:24 9,4 °C 9,4 °C 95 % 1026,2 hPa 0,0 mm 0,0 km/h (0 Bft) O-NO 60 ° 0 min 0,000 mm 0,0 UV-I 0 W/m² 8,6 °C 0,0 km/h (0 Bft)
26.10.2016 18:25 9,4 °C 9,4 °C 95 % 1026,3 hPa 0,0 mm 0,0 km/h (0 Bft) O-NO 60 ° 0 min 0,000 mm 0,0 UV-I 0 W/m² 8,6 °C 0,0 km/h (0 Bft)
26.10.2016 18:26 9,4 °C 9,4 °C 95 % 1026,3 hPa 0,0 mm 1,3 km/h (1 Bft) NO 56 ° 0 min 0,000 mm 0,0 UV-I 0 W/m² 8,6 °C 3,2 km/h (1 Bft)
26.10.2016 18:27 9,3 °C 9,4 °C 95 % 1026,3 hPa 0,0 mm 0,3 km/h (0 Bft) NO 56 ° 0 min 0,000 mm 0,0 UV-I 0 W/m² 8,5 °C 1,6 km/h (1 Bft)
26.10.2016 18:28 9,4 °C 9,4 °C 95 % 1026,3 hPa 0,0 mm 3,1 km/h (1 Bft) O-NO 57 ° 0 min 0,000 mm 0,0 UV-I 0 W/m² 8,6 °C 4,8 km/h (1 Bft)
26.10.2016 18:29 9,4 °C 9,4 °C 95 % 1026,2 hPa 0,0 mm 3,8 km/h (1 Bft) O-NO 74 ° 0 min 0,000 mm 0,0 UV-I 0 W/m² 8,6 °C 4,8 km/h (1 Bft)
26.10.2016 18:30 9,4 °C 9,4 °C 95 % 1026,3 hPa 0,0 mm 1,9 km/h (1 Bft) O-NO 74 ° 0 min 0,000 mm 0,0 UV-I 0 W/m² 8,6 °C 3,2 km/h (1 Bft)
26.10.2016 18:31 9,3 °C 9,4 °C 95 % 1026,3 hPa 0,0 mm 1,8 km/h (1 Bft) O-NO 74 ° 0 min 0,000 mm 0,0 UV-I 0 W/m² 8,5 °C 3,2 km/h (1 Bft)
26.10.2016 18:32 9,3 °C 9,4 °C 95 % 1026,3 hPa 0,0 mm 2,0 km/h (1 Bft) O-NO 74 ° 0 min 0,000 mm 0,0 UV-I 0 W/m² 8,5 °C 3,2 km/h (1 Bft)
26.10.2016 18:33 9,4 °C 9,4 °C 95 % 1026,3 hPa 0,0 mm 2,4 km/h (1 Bft) O-NO 74 ° 0 min 0,000 mm 0,0 UV-I 0 W/m² 8,6 °C 3,2 km/h (1 Bft)
26.10.2016 18:34 9,4 °C 9,4 °C 95 % 1026,3 hPa 0,0 mm 1,9 km/h (1 Bft) O-NO 74 ° 0 min 0,000 mm 0,0 UV-I 0 W/m² 8,6 °C 3,2 km/h (1 Bft)
26.10.2016 18:35 9,3 °C 9,4 °C 95 % 1026,3 hPa 0,0 mm 1,7 km/h (1 Bft) O-NO 74 ° 0 min 0,000 mm 0,0 UV-I 0 W/m² 8,5 °C 3,2 km/h (1 Bft)
26.10.2016 18:36 9,3 °C 9,3 °C 95 % 1026,3 hPa 0,0 mm 1,8 km/h (1 Bft) O-NO 74 ° 0 min 0,000 mm 0,0 UV-I 0 W/m² 8,5 °C 3,2 km/h (1 Bft)
26.10.2016 18:37 9,3 °C 9,3 °C 95 % 1026,4 hPa 0,0 mm 0,8 km/h (0 Bft) O-NO 71 ° 0 min 0,000 mm 0,0 UV-I 0 W/m² 8,5 °C 1,6 km/h (1 Bft)
26.10.2016 18:38 9,3 °C 9,4 °C 95 % 1026,4 hPa 0,0 mm 2,6 km/h (1 Bft) O-NO 63 ° 0 min 0,000 mm 0,0 UV-I 0 W/m² 8,5 °C 4,8 km/h (1 Bft)
26.10.2016 18:39 9,3 °C 9,3 °C 95 % 1026,4 hPa 0,0 mm 2,6 km/h (1 Bft) NO 45 ° 0 min 0,000 mm 0,0 UV-I 0 W/m² 8,5 °C 3,2 km/h (1 Bft)
26.10.2016 18:40 9,3 °C 9,3 °C 95 % 1026,4 hPa 0,0 mm 1,8 km/h (1 Bft) NO 45 ° 0 min 0,000 mm 0,0 UV-I 0 W/m² 8,5 °C 3,2 km/h (1 Bft)
26.10.2016 18:41 9,3 °C 9,3 °C 95 % 1026,4 hPa 0,0 mm 2,7 km/h (1 Bft) NO 45 ° 0 min 0,000 mm 0,0 UV-I 0 W/m² 8,5 °C 4,8 km/h (1 Bft)
26.10.2016 18:42 9,3 °C 9,3 °C 95 % 1026,3 hPa 0,0 mm 0,4 km/h (0 Bft) NO 45 ° 0 min 0,000 mm 0,0 UV-I 0 W/m² 8,5 °C 1,6 km/h (1 Bft)
26.10.2016 18:43 9,3 °C 9,3 °C 95 % 1026,4 hPa 0,0 mm 1,4 km/h (1 Bft) NO 45 ° 0 min 0,000 mm 0,0 UV-I 0 W/m² 8,5 °C 3,2 km/h (1 Bft)
26.10.2016 18:44 9,3 °C 9,3 °C 95 % 1026,5 hPa 0,0 mm 3,5 km/h (1 Bft) NO 50 ° 0 min 0,000 mm 0,0 UV-I 0 W/m² 8,5 °C 4,8 km/h (1 Bft)
26.10.2016 18:45 9,3 °C 9,3 °C 95 % 1026,4 hPa 0,0 mm 3,4 km/h (1 Bft) NO 38 ° 0 min 0,000 mm 0,0 UV-I 0 W/m² 8,5 °C 6,4 km/h (2 Bft)
26.10.2016 18:46 9,3 °C 9,3 °C 95 % 1026,5 hPa 0,0 mm 5,2 km/h (1 Bft) O-NO 78 ° 0 min 0,000 mm 0,0 UV-I 0 W/m² 8,5 °C 8,0 km/h (2 Bft)
26.10.2016 18:47 9,2 °C 9,3 °C 94 % 1026,6 hPa 0,0 mm 4,3 km/h (1 Bft) O-NO 64 ° 0 min 0,000 mm 0,0 UV-I 0 W/m² 8,3 °C 6,4 km/h (2 Bft)
26.10.2016 18:48 9,2 °C 9,2 °C 95 % 1026,6 hPa 0,0 mm 4,1 km/h (1 Bft) O-NO 71 ° 0 min 0,000 mm 0,0 UV-I 0 W/m² 8,4 °C 6,4 km/h (2 Bft)
26.10.2016 18:49 9,2 °C 9,2 °C 94 % 1026,5 hPa 0,0 mm 3,3 km/h (1 Bft) O-NO 70 ° 0 min 0,000 mm 0,0 UV-I 0 W/m² 8,3 °C 4,8 km/h (1 Bft)
26.10.2016 18:50 9,2 °C 9,2 °C 94 % 1026,6 hPa 0,0 mm 3,7 km/h (1 Bft) O-NO 62 ° 0 min 0,000 mm 0,0 UV-I 0 W/m² 8,3 °C 4,8 km/h (1 Bft)
26.10.2016 18:51 9,2 °C 9,2 °C 94 % 1026,5 hPa 0,0 mm 3,2 km/h (1 Bft) O-NO 74 ° 0 min 0,000 mm 0,0 UV-I 0 W/m² 8,3 °C 4,8 km/h (1 Bft)
26.10.2016 18:52 9,2 °C 9,2 °C 94 % 1026,6 hPa 0,0 mm 4,5 km/h (1 Bft) O 85 ° 0 min 0,000 mm 0,0 UV-I 0 W/m² 8,3 °C 6,4 km/h (2 Bft)
26.10.2016 18:53 9,2 °C 9,2 °C 95 % 1026,6 hPa 0,0 mm 2,6 km/h (1 Bft) NO 47 ° 0 min 0,000 mm 0,0 UV-I 0 W/m² 8,4 °C 3,2 km/h (1 Bft)
26.10.2016 18:54 9,2 °C 9,2 °C 95 % 1026,6 hPa 0,0 mm 3,2 km/h (1 Bft) NO 54 ° 0 min 0,000 mm 0,0 UV-I 0 W/m² 8,4 °C 3,2 km/h (1 Bft)
26.10.2016 18:55 9,2 °C 9,2 °C 95 % 1026,6 hPa 0,0 mm 2,4 km/h (1 Bft) NO 54 ° 0 min 0,000 mm 0,0 UV-I 0 W/m² 8,4 °C 4,8 km/h (1 Bft)
26.10.2016 18:56 9,2 °C 9,2 °C 95 % 1026,6 hPa 0,0 mm 3,4 km/h (1 Bft) O-NO 70 ° 0 min 0,000 mm 0,0 UV-I 0 W/m² 8,4 °C 4,8 km/h (1 Bft)
26.10.2016 18:57 9,1 °C 9,2 °C 95 % 1026,7 hPa 0,0 mm 2,9 km/h (1 Bft) O-NO 70 ° 0 min 0,000 mm 0,0 UV-I 0 W/m² 8,3 °C 4,8 km/h (1 Bft)
26.10.2016 18:58 9,1 °C 9,2 °C 95 % 1026,7 hPa 0,0 mm 3,5 km/h (1 Bft) O-NO 57 ° 0 min 0,000 mm 0,0 UV-I 0 W/m² 8,3 °C 4,8 km/h (1 Bft)
26.10.2016 18:59 9,1 °C 9,1 °C 95 % 1026,7 hPa 0,0 mm 0,9 km/h (0 Bft) O-NO 57 ° 0 min 0,000 mm 0,0 UV-I 0 W/m² 8,3 °C 1,6 km/h (1 Bft)
26.10.2016 19:00 9,1 °C 9,1 °C 95 % 1026,7 hPa 0,0 mm 1,9 km/h (1 Bft) O-NO 57 ° 0 min 0,000 mm 0,0 UV-I 0 W/m² 8,3 °C 4,8 km/h (1 Bft)
26.10.2016 19:01 9,1 °C 9,1 °C 95 % 1026,7 hPa 0,0 mm 3,8 km/h (1 Bft) NO 43 ° 0 min 0,000 mm 0,0 UV-I 0 W/m² 8,3 °C 4,8 km/h (1 Bft)
26.10.2016 19:02 9,1 °C 9,1 °C 95 % 1026,7 hPa 0,0 mm 3,0 km/h (1 Bft) NO 43 ° 0 min 0,000 mm 0,0 UV-I 0 W/m² 8,3 °C 4,8 km/h (1 Bft)
26.10.2016 19:03 9,1 °C 9,1 °C 95 % 1026,7 hPa 0,0 mm 4,3 km/h (1 Bft) O-NO 63 ° 0 min 0,000 mm 0,0 UV-I 0 W/m² 8,3 °C 6,4 km/h (2 Bft)
26.10.2016 19:04 9,1 °C 9,1 °C 95 % 1026,7 hPa 0,0 mm 2,4 km/h (1 Bft) O-NO 63 ° 0 min 0,000 mm 0,0 UV-I 0 W/m² 8,3 °C 4,8 km/h (1 Bft)
26.10.2016 19:05 9,1 °C 9,1 °C 95 % 1026,7 hPa 0,0 mm 3,2 km/h (1 Bft) O-NO 61 ° 0 min 0,000 mm 0,0 UV-I 0 W/m² 8,3 °C 4,8 km/h (1 Bft)
26.10.2016 19:06 9,1 °C 9,1 °C 95 % 1026,7 hPa 0,0 mm 3,2 km/h (1 Bft) O-NO 61 ° 0 min 0,000 mm 0,0 UV-I 0 W/m² 8,3 °C 4,8 km/h (1 Bft)
26.10.2016 19:07 9,1 °C 9,1 °C 95 % 1026,7 hPa 0,0 mm 1,8 km/h (1 Bft) O-NO 61 ° 0 min 0,000 mm 0,0 UV-I 0 W/m² 8,3 °C 3,2 km/h (1 Bft)
26.10.2016 19:08 9,1 °C 9,1 °C 95 % 1026,8 hPa 0,0 mm 0,4 km/h (0 Bft) O-NO 61 ° 0 min 0,000 mm 0,0 UV-I 0 W/m² 8,3 °C 1,6 km/h (1 Bft)
26.10.2016 19:09 9,1 °C 9,1 °C 95 % 1026,8 hPa 0,0 mm 0,9 km/h (0 Bft) O-NO 61 ° 0 min 0,000 mm 0,0 UV-I 0 W/m² 8,3 °C 1,6 km/h (1 Bft)
26.10.2016 19:10 9,1 °C 9,1 °C 95 % 1026,8 hPa 0,0 mm 1,0 km/h (0 Bft) O-NO 61 ° 0 min 0,000 mm 0,0 UV-I 0 W/m² 8,3 °C 1,6 km/h (1 Bft)
26.10.2016 19:11 9,1 °C 9,1 °C 95 % 1026,8 hPa 0,0 mm 1,1 km/h (1 Bft) O-NO 61 ° 0 min 0,000 mm 0,0 UV-I 0 W/m² 8,3 °C 1,6 km/h (1 Bft)
26.10.2016 19:12 9,1 °C 9,1 °C 95 % 1026,9 hPa 0,0 mm 0,9 km/h (0 Bft) O-NO 61 ° 0 min 0,000 mm 0,0 UV-I 0 W/m² 8,3 °C 1,6 km/h (1 Bft)
26.10.2016 19:13 9,1 °C 9,1 °C 95 % 1026,9 hPa 0,2 mm 2,5 km/h (1 Bft) N-NO 19 ° 0 min 0,000 mm 0,0 UV-I 0 W/m² 8,3 °C 6,4 km/h (2 Bft)
26.10.2016 19:14 9,1 °C 9,1 °C 95 % 1026,9 hPa 0,0 mm 1,0 km/h (0 Bft) N-NO 19 ° 0 min 0,000 mm 0,0 UV-I 0 W/m² 8,3 °C 3,2 km/h (1 Bft)
26.10.2016 19:15 9,0 °C 9,1 °C 95 % 1026,9 hPa 0,0 mm 0,5 km/h (0 Bft) N-NO 18 ° 0 min 0,000 mm 0,0 UV-I 0 W/m² 8,2 °C 1,6 km/h (1 Bft)
26.10.2016 19:16 9,1 °C 9,1 °C 95 % 1026,9 hPa 0,0 mm 3,5 km/h (1 Bft) N-NW 346 ° 0 min 0,000 mm 0,0 UV-I 0 W/m² 8,3 °C 6,4 km/h (2 Bft)
26.10.2016 19:17 9,0 °C 9,1 °C 95 % 1026,9 hPa 0,0 mm 3,6 km/h (1 Bft) NO 42 ° 0 min 0,000 mm 0,0 UV-I 0 W/m² 8,2 °C 4,8 km/h (1 Bft)
26.10.2016 19:18 9,0 °C 9,0 °C 95 % 1026,9 hPa 0,0 mm 3,9 km/h (1 Bft) NO 53 ° 0 min 0,000 mm 0,0 UV-I 0 W/m² 8,2 °C 4,8 km/h (1 Bft)
26.10.2016 19:19 9,0 °C 9,0 °C 95 % 1026,9 hPa 0,0 mm 3,1 km/h (1 Bft) N-NO 23 ° 0 min 0,000 mm 0,0 UV-I 0 W/m² 8,2 °C 4,8 km/h (1 Bft)
26.10.2016 19:20 9,0 °C 9,0 °C 95 % 1026,9 hPa 0,0 mm 1,5 km/h (1 Bft) N-NO 23 ° 0 min 0,000 mm 0,0 UV-I 0 W/m² 8,2 °C 3,2 km/h (1 Bft)
26.10.2016 19:21 9,0 °C 9,0 °C 95 % 1026,9 hPa 0,0 mm 2,3 km/h (1 Bft) N-NO 23 ° 0 min 0,000 mm 0,0 UV-I 0 W/m² 8,2 °C 3,2 km/h (1 Bft)
26.10.2016 19:22 9,0 °C 9,0 °C 95 % 1026,9 hPa 0,0 mm 2,8 km/h (1 Bft) N-NO 23 ° 0 min 0,000 mm 0,0 UV-I 0 W/m² 8,2 °C 3,2 km/h (1 Bft)
26.10.2016 19:23 8,9 °C 9,0 °C 95 % 1027,0 hPa 0,0 mm 2,7 km/h (1 Bft) NO 53 ° 0 min 0,000 mm 0,0 UV-I 0 W/m² 8,1 °C 4,8 km/h (1 Bft)
26.10.2016 19:24 9,0 °C 9,0 °C 95 % 1027,0 hPa 0,0 mm 2,6 km/h (1 Bft) NO 51 ° 0 min 0,000 mm 0,0 UV-I 0 W/m² 8,2 °C 3,2 km/h (1 Bft)
26.10.2016 19:25 9,0 °C 9,0 °C 95 % 1027,0 hPa 0,0 mm 4,2 km/h (1 Bft) NO 53 ° 0 min 0,000 mm 0,0 UV-I 0 W/m² 8,2 °C 6,4 km/h (2 Bft)
26.10.2016 19:26 9,0 °C 9,0 °C 95 % 1027,0 hPa 0,0 mm 5,3 km/h (1 Bft) N-NO 24 ° 0 min 0,000 mm 0,0 UV-I 0 W/m² 8,2 °C 8,0 km/h (2 Bft)
26.10.2016 19:27 8,9 °C 9,0 °C 95 % 1027,0 hPa 0,0 mm 5,3 km/h (1 Bft) O 84 ° 0 min 0,000 mm 0,0 UV-I 0 W/m² 8,1 °C 6,4 km/h (2 Bft)
26.10.2016 19:28 8,9 °C 8,9 °C 95 % 1027,1 hPa 0,0 mm 7,9 km/h (2 Bft) O-NO 72 ° 0 min 0,000 mm 0,0 UV-I 0 W/m² 8,1 °C 11,3 km/h (2 Bft)
26.10.2016 19:29 8,9 °C 8,9 °C 95 % 1027,0 hPa 0,0 mm 6,8 km/h (2 Bft) O-NO 75 ° 0 min 0,000 mm 0,0 UV-I 0 W/m² 8,1 °C 8,0 km/h (2 Bft)
26.10.2016 19:30 8,9 °C 8,9 °C 95 % 1027,1 hPa 0,0 mm 5,4 km/h (1 Bft) NO 49 ° 0 min 0,000 mm 0,0 UV-I 0 W/m² 8,1 °C 6,4 km/h (2 Bft)
26.10.2016 19:31 8,8 °C 8,9 °C 95 % 1027,1 hPa 0,0 mm 6,7 km/h (2 Bft) O-NO 76 ° 0 min 0,000 mm 0,0 UV-I 0 W/m² 8,0 °C 11,3 km/h (2 Bft)
26.10.2016 19:32 8,8 °C 8,8 °C 95 % 1027,0 hPa 0,0 mm 6,4 km/h (2 Bft) O-NO 69 ° 0 min 0,000 mm 0,0 UV-I 0 W/m² 8,0 °C 9,7 km/h (2 Bft)
26.10.2016 19:33 8,8 °C 8,8 °C 95 % 1027,0 hPa 0,0 mm 7,1 km/h (2 Bft) N-NO 22 ° 0 min 0,000 mm 0,0 UV-I 0 W/m² 8,0 °C 9,7 km/h (2 Bft)
26.10.2016 19:34 8,8 °C 8,8 °C 95 % 1027,1 hPa 0,0 mm 5,2 km/h (1 Bft) O-NO 62 ° 0 min 0,000 mm 0,0 UV-I 0 W/m² 8,0 °C 6,4 km/h (2 Bft)
26.10.2016 19:35 8,8 °C 8,8 °C 95 % 1027,1 hPa 0,0 mm 5,1 km/h (1 Bft) NO 47 ° 0 min 0,000 mm 0,0 UV-I 0 W/m² 8,0 °C 8,0 km/h (2 Bft)
26.10.2016 19:36 8,7 °C 8,8 °C 95 % 1027,1 hPa 0,0 mm 4,1 km/h (1 Bft) O-NO 64 ° 0 min 0,000 mm 0,0 UV-I 0 W/m² 7,9 °C 6,4 km/h (2 Bft)
26.10.2016 19:37 8,8 °C 8,8 °C 95 % 1027,1 hPa 0,0 mm 4,1 km/h (1 Bft) O-NO 71 ° 0 min 0,000 mm 0,0 UV-I 0 W/m² 8,0 °C 8,0 km/h (2 Bft)
26.10.2016 19:38 8,8 °C 8,8 °C 95 % 1027,1 hPa 0,0 mm 4,5 km/h (1 Bft) O-NO 61 ° 0 min 0,000 mm 0,0 UV-I 0 W/m² 8,0 °C 6,4 km/h (2 Bft)
26.10.2016 19:39 8,7 °C 8,8 °C 95 % 1027,1 hPa 0,0 mm 3,6 km/h (1 Bft) O-NO 67 ° 0 min 0,000 mm 0,0 UV-I 0 W/m² 7,9 °C 6,4 km/h (2 Bft)
26.10.2016 19:40 8,7 °C 8,7 °C 95 % 1027,1 hPa 0,0 mm 3,9 km/h (1 Bft) NO 56 ° 0 min 0,000 mm 0,0 UV-I 0 W/m² 7,9 °C 6,4 km/h (2 Bft)
26.10.2016 19:41 8,7 °C 8,7 °C 95 % 1027,1 hPa 0,0 mm 2,9 km/h (1 Bft) NO 56 ° 0 min 0,000 mm 0,0 UV-I 0 W/m² 7,9 °C 4,8 km/h (1 Bft)
26.10.2016 19:42 8,6 °C 8,7 °C 95 % 1027,2 hPa 0,0 mm 1,9 km/h (1 Bft) O-NO 57 ° 0 min 0,000 mm 0,0 UV-I 0 W/m² 7,8 °C 3,2 km/h (1 Bft)
26.10.2016 19:43 8,6 °C 8,7 °C 95 % 1027,2 hPa 0,2 mm 4,8 km/h (1 Bft) O-NO 58 ° 0 min 0,000 mm 0,0 UV-I 0 W/m² 7,8 °C 6,4 km/h (2 Bft)
26.10.2016 19:44 8,6 °C 8,7 °C 95 % 1027,2 hPa 0,0 mm 3,1 km/h (1 Bft) O-NO 59 ° 0 min 0,000 mm 0,0 UV-I 0 W/m² 7,8 °C 4,8 km/h (1 Bft)
26.10.2016 19:45 8,6 °C 8,6 °C 95 % 1027,3 hPa 0,0 mm 3,7 km/h (1 Bft) NO 54 ° 0 min 0,000 mm 0,0 UV-I 0 W/m² 7,8 °C 6,4 km/h (2 Bft)
26.10.2016 19:46 8,6 °C 8,6 °C 95 % 1027,2 hPa 0,0 mm 1,4 km/h (1 Bft) NO 54 ° 0 min 0,000 mm 0,0 UV-I 0 W/m² 7,8 °C 3,2 km/h (1 Bft)
26.10.2016 19:47 8,6 °C 8,6 °C 95 % 1027,2 hPa 0,0 mm 1,7 km/h (1 Bft) NO 54 ° 0 min 0,000 mm 0,0 UV-I 0 W/m² 7,8 °C 3,2 km/h (1 Bft)
26.10.2016 19:48 8,6 °C 8,6 °C 95 % 1027,2 hPa 0,0 mm 1,1 km/h (1 Bft) NO 54 ° 0 min 0,000 mm 0,0 UV-I 0 W/m² 7,8 °C 1,6 km/h (1 Bft)
26.10.2016 19:49 8,6 °C 8,6 °C 95 % 1027,2 hPa 0,0 mm 0,1 km/h (0 Bft) NO 54 ° 0 min 0,000 mm 0,0 UV-I 0 W/m² 7,8 °C 1,6 km/h (1 Bft)
26.10.2016 19:50 8,6 °C 8,6 °C 95 % 1027,3 hPa 0,0 mm 0,0 km/h (0 Bft) NO 54 ° 0 min 0,000 mm 0,0 UV-I 0 W/m² 7,8 °C 0,0 km/h (0 Bft)
26.10.2016 19:51 8,6 °C 8,6 °C 95 % 1027,2 hPa 0,0 mm 0,3 km/h (0 Bft) NO 54 ° 0 min 0,000 mm 0,0 UV-I 0 W/m² 7,8 °C 1,6 km/h (1 Bft)
26.10.2016 19:52 8,6 °C 8,6 °C 95 % 1027,3 hPa 0,0 mm 1,3 km/h (1 Bft) NO 54 ° 0 min 0,000 mm 0,0 UV-I 0 W/m² 7,8 °C 1,6 km/h (1 Bft)
26.10.2016 19:53 8,5 °C 8,6 °C 95 % 1027,3 hPa 0,0 mm 0,0 km/h (0 Bft) NO 54 ° 0 min 0,000 mm 0,0 UV-I 0 W/m² 7,7 °C 0,0 km/h (0 Bft)
26.10.2016 19:54 8,6 °C 8,6 °C 95 % 1027,3 hPa 0,0 mm 1,1 km/h (1 Bft) NO 54 ° 0 min 0,000 mm 0,0 UV-I 0 W/m² 7,8 °C 1,6 km/h (1 Bft)
26.10.2016 19:55 8,5 °C 8,6 °C 95 % 1027,3 hPa 0,0 mm 0,0 km/h (0 Bft) NO 54 ° 0 min 0,000 mm 0,0 UV-I 0 W/m² 7,7 °C 0,0 km/h (0 Bft)
26.10.2016 19:56 8,5 °C 8,5 °C 95 % 1027,3 hPa 0,0 mm 0,0 km/h (0 Bft) NO 54 ° 0 min 0,000 mm 0,0 UV-I 0 W/m² 7,7 °C 0,0 km/h (0 Bft)
26.10.2016 19:57 8,5 °C 8,5 °C 95 % 1027,3 hPa 0,0 mm 0,0 km/h (0 Bft) NO 54 ° 0 min 0,000 mm 0,0 UV-I 0 W/m² 7,7 °C 0,0 km/h (0 Bft)
26.10.2016 19:58 8,5 °C 8,5 °C 95 % 1027,3 hPa 0,0 mm 0,0 km/h (0 Bft) NO 54 ° 0 min 0,000 mm 0,0 UV-I 0 W/m² 7,7 °C 0,0 km/h (0 Bft)
26.10.2016 19:59 8,5 °C 8,5 °C 95 % 1027,3 hPa 0,0 mm 0,0 km/h (0 Bft) NO 54 ° 0 min 0,000 mm 0,0 UV-I 0 W/m² 7,7 °C 0,0 km/h (0 Bft)
26.10.2016 20:00 8,5 °C 8,5 °C 95 % 1027,3 hPa 0,0 mm 0,3 km/h (0 Bft) NO 54 ° 0 min 0,000 mm 0,0 UV-I 0 W/m² 7,7 °C 1,6 km/h (1 Bft)
26.10.2016 20:01 8,5 °C 8,5 °C 95 % 1027,3 hPa 0,0 mm 0,5 km/h (0 Bft) NO 54 ° 0 min 0,000 mm 0,0 UV-I 0 W/m² 7,7 °C 1,6 km/h (1 Bft)
26.10.2016 20:02 8,5 °C 8,5 °C 95 % 1027,3 hPa 0,0 mm 0,1 km/h (0 Bft) NO 54 ° 0 min 0,000 mm 0,0 UV-I 0 W/m² 7,7 °C 1,6 km/h (1 Bft)
26.10.2016 20:03 8,4 °C 8,5 °C 95 % 1027,3 hPa 0,0 mm 0,0 km/h (0 Bft) NO 54 ° 0 min 0,000 mm 0,0 UV-I 0 W/m² 7,6 °C 0,0 km/h (0 Bft)
26.10.2016 20:04 8,4 °C 8,5 °C 95 % 1027,4 hPa 0,0 mm 0,1 km/h (0 Bft) NO 54 ° 0 min 0,000 mm 0,0 UV-I 0 W/m² 7,6 °C 1,6 km/h (1 Bft)
26.10.2016 20:05 8,5 °C 8,5 °C 95 % 1027,4 hPa 0,0 mm 0,0 km/h (0 Bft) NO 54 ° 0 min 0,000 mm 0,0 UV-I 0 W/m² 7,7 °C 0,0 km/h (0 Bft)
26.10.2016 20:06 8,4 °C 8,5 °C 95 % 1027,3 hPa 0,0 mm 0,6 km/h (0 Bft) NO 54 ° 0 min 0,000 mm 0,0 UV-I 0 W/m² 7,6 °C 1,6 km/h (1 Bft)
26.10.2016 20:07 8,4 °C 8,4 °C 95 % 1027,4 hPa 0,0 mm 0,1 km/h (0 Bft) NO 54 ° 0 min 0,000 mm 0,0 UV-I 0 W/m² 7,6 °C 1,6 km/h (1 Bft)
26.10.2016 20:08 8,4 °C 8,4 °C 95 % 1027,4 hPa 0,0 mm 0,3 km/h (0 Bft) NO 54 ° 0 min 0,000 mm 0,0 UV-I 0 W/m² 7,6 °C 1,6 km/h (1 Bft)
26.10.2016 20:09 8,4 °C 8,4 °C 95 % 1027,4 hPa 0,0 mm 0,9 km/h (0 Bft) NO 54 ° 0 min 0,000 mm 0,0 UV-I 0 W/m² 7,6 °C 1,6 km/h (1 Bft)
26.10.2016 20:10 8,4 °C 8,4 °C 95 % 1027,3 hPa 0,0 mm 0,0 km/h (0 Bft) NO 54 ° 0 min 0,000 mm 0,0 UV-I 0 W/m² 7,6 °C 0,0 km/h (0 Bft)
26.10.2016 20:11 8,4 °C 8,4 °C 95 % 1027,3 hPa 0,0 mm 0,1 km/h (0 Bft) NO 54 ° 0 min 0,000 mm 0,0 UV-I 0 W/m² 7,6 °C 1,6 km/h (1 Bft)
26.10.2016 20:12 8,4 °C 8,4 °C 95 % 1027,3 hPa 0,0 mm 1,9 km/h (1 Bft) NO 54 ° 0 min 0,000 mm 0,0 UV-I 0 W/m² 7,6 °C 3,2 km/h (1 Bft)
26.10.2016 20:13 8,4 °C 8,4 °C 95 % 1027,3 hPa 0,0 mm 1,6 km/h (1 Bft) NO 54 ° 0 min 0,000 mm 0,0 UV-I 0 W/m² 7,6 °C 3,2 km/h (1 Bft)
26.10.2016 20:14 8,4 °C 8,4 °C 95 % 1027,4 hPa 0,0 mm 0,3 km/h (0 Bft) NO 54 ° 0 min 0,000 mm 0,0 UV-I 0 W/m² 7,6 °C 1,6 km/h (1 Bft)
26.10.2016 20:15 8,4 °C 8,4 °C 95 % 1027,3 hPa 0,0 mm 1,8 km/h (1 Bft) O-NO 69 ° 0 min 0,000 mm 0,0 UV-I 0 W/m² 7,6 °C 3,2 km/h (1 Bft)
26.10.2016 20:16 8,4 °C 8,4 °C 95 % 1027,3 hPa 0,0 mm 1,1 km/h (1 Bft) O-NO 69 ° 0 min 0,000 mm 0,0 UV-I 0 W/m² 7,6 °C 1,6 km/h (1 Bft)
26.10.2016 20:17 8,4 °C 8,4 °C 96 % 1027,3 hPa 0,0 mm 1,6 km/h (1 Bft) O-NO 69 ° 0 min 0,000 mm 0,0 UV-I 0 W/m² 7,8 °C 3,2 km/h (1 Bft)
26.10.2016 20:18 8,4 °C 8,4 °C 95 % 1027,3 hPa 0,0 mm 1,5 km/h (1 Bft) O 84 ° 0 min 0,000 mm 0,0 UV-I 0 W/m² 7,6 °C 3,2 km/h (1 Bft)
26.10.2016 20:19 8,4 °C 8,4 °C 96 % 1027,3 hPa 0,0 mm 1,3 km/h (1 Bft) O 84 ° 0 min 0,000 mm 0,0 UV-I 0 W/m² 7,8 °C 1,6 km/h (1 Bft)
26.10.2016 20:20 8,4 °C 8,4 °C 95 % 1027,4 hPa 0,0 mm 2,5 km/h (1 Bft) O-NO 61 ° 0 min 0,000 mm 0,0 UV-I 0 W/m² 7,6 °C 4,8 km/h (1 Bft)
26.10.2016 20:21 8,4 °C 8,4 °C 96 % 1027,3 hPa 0,0 mm 1,3 km/h (1 Bft) O-NO 61 ° 0 min 0,000 mm 0,0 UV-I 0 W/m² 7,8 °C 1,6 km/h (1 Bft)
26.10.2016 20:22 8,4 °C 8,4 °C 96 % 1027,3 hPa 0,0 mm 3,0 km/h (1 Bft) O 82 ° 0 min 0,000 mm 0,0 UV-I 0 W/m² 7,8 °C 6,4 km/h (2 Bft)
26.10.2016 20:23 8,4 °C 8,4 °C 96 % 1027,4 hPa 0,0 mm 3,7 km/h (1 Bft) NO 43 ° 0 min 0,000 mm 0,0 UV-I 0 W/m² 7,8 °C 6,4 km/h (2 Bft)
26.10.2016 20:24 8,4 °C 8,4 °C 96 % 1027,4 hPa 0,0 mm 2,9 km/h (1 Bft) O-SO 104 ° 0 min 0,000 mm 0,0 UV-I 0 W/m² 7,8 °C 6,4 km/h (2 Bft)
26.10.2016 20:25 8,4 °C 8,4 °C 96 % 1027,4 hPa 0,0 mm 3,6 km/h (1 Bft) NO 55 ° 0 min 0,000 mm 0,0 UV-I 0 W/m² 7,8 °C 4,8 km/h (1 Bft)
26.10.2016 20:26 8,5 °C 8,5 °C 96 % 1027,4 hPa 0,0 mm 2,7 km/h (1 Bft) O 80 ° 0 min 0,000 mm 0,0 UV-I 0 W/m² 7,9 °C 4,8 km/h (1 Bft)
26.10.2016 20:27 8,4 °C 8,5 °C 96 % 1027,4 hPa 0,0 mm 0,8 km/h (0 Bft) O 80 ° 0 min 0,000 mm 0,0 UV-I 0 W/m² 7,8 °C 3,2 km/h (1 Bft)
26.10.2016 20:28 8,5 °C 8,5 °C 96 % 1027,4 hPa 0,0 mm 1,9 km/h (1 Bft) O-NO 71 ° 0 min 0,000 mm 0,0 UV-I 0 W/m² 7,9 °C 4,8 km/h (1 Bft)
26.10.2016 20:29 8,4 °C 8,5 °C 95 % 1027,4 hPa 0,0 mm 3,0 km/h (1 Bft) O-NO 71 ° 0 min 0,000 mm 0,0 UV-I 0 W/m² 7,6 °C 4,8 km/h (1 Bft)
26.10.2016 20:30 8,5 °C 8,5 °C 95 % 1027,4 hPa 0,0 mm 1,1 km/h (1 Bft) O-NO 71 ° 0 min 0,000 mm 0,0 UV-I 0 W/m² 7,7 °C 3,2 km/h (1 Bft)
26.10.2016 20:31 8,4 °C 8,5 °C 95 % 1027,4 hPa 0,0 mm 1,1 km/h (1 Bft) O-NO 67 ° 0 min 0,000 mm 0,0 UV-I 0 W/m² 7,6 °C 1,6 km/h (1 Bft)
26.10.2016 20:32 8,4 °C 8,4 °C 95 % 1027,4 hPa 0,0 mm 1,6 km/h (1 Bft) O-NO 67 ° 0 min 0,000 mm 0,0 UV-I 0 W/m² 7,6 °C 3,2 km/h (1 Bft)
26.10.2016 20:33 8,5 °C 8,5 °C 95 % 1027,4 hPa 0,0 mm 0,1 km/h (0 Bft) O-NO 67 ° 0 min 0,000 mm 0,0 UV-I 0 W/m² 7,7 °C 1,6 km/h (1 Bft)
26.10.2016 20:34 8,5 °C 8,5 °C 95 % 1027,4 hPa 0,0 mm 0,3 km/h (0 Bft) O-NO 67 ° 0 min 0,000 mm 0,0 UV-I 0 W/m² 7,7 °C 1,6 km/h (1 Bft)
26.10.2016 20:35 8,5 °C 8,5 °C 95 % 1027,4 hPa 0,0 mm 1,1 km/h (1 Bft) O-NO 67 ° 0 min 0,000 mm 0,0 UV-I 0 W/m² 7,7 °C 1,6 km/h (1 Bft)
26.10.2016 20:36 8,5 °C 8,5 °C 95 % 1027,4 hPa 0,0 mm 0,7 km/h (0 Bft) O-NO 67 ° 0 min 0,000 mm 0,0 UV-I 0 W/m² 7,7 °C 1,6 km/h (1 Bft)
26.10.2016 20:37 8,5 °C 8,5 °C 95 % 1027,5 hPa 0,0 mm 0,7 km/h (0 Bft) O-NO 67 ° 0 min 0,000 mm 0,0 UV-I 0 W/m² 7,7 °C 1,6 km/h (1 Bft)
26.10.2016 20:38 8,4 °C 8,5 °C 95 % 1027,4 hPa 0,0 mm 1,3 km/h (1 Bft) O-NO 67 ° 0 min 0,000 mm 0,0 UV-I 0 W/m² 7,6 °C 3,2 km/h (1 Bft)
26.10.2016 20:39 8,5 °C 8,5 °C 95 % 1027,5 hPa 0,0 mm 2,0 km/h (1 Bft) O-NO 67 ° 0 min 0,000 mm 0,0 UV-I 0 W/m² 7,7 °C 3,2 km/h (1 Bft)
26.10.2016 20:40 8,5 °C 8,5 °C 95 % 1027,5 hPa 0,0 mm 0,3 km/h (0 Bft) O-NO 67 ° 0 min 0,000 mm 0,0 UV-I 0 W/m² 7,7 °C 1,6 km/h (1 Bft)
26.10.2016 20:41 8,5 °C 8,5 °C 95 % 1027,5 hPa 0,0 mm 0,0 km/h (0 Bft) O-NO 67 ° 0 min 0,000 mm 0,0 UV-I 0 W/m² 7,7 °C 0,0 km/h (0 Bft)
26.10.2016 20:42 8,5 °C 8,6 °C 95 % 1027,5 hPa 0,0 mm 0,0 km/h (0 Bft) O-NO 67 ° 0 min 0,000 mm 0,0 UV-I 0 W/m² 7,7 °C 0,0 km/h (0 Bft)
26.10.2016 20:43 8,5 °C 8,5 °C 95 % 1027,5 hPa 0,0 mm 0,7 km/h (0 Bft) O-NO 67 ° 0 min 0,000 mm 0,0 UV-I 0 W/m² 7,7 °C 1,6 km/h (1 Bft)
26.10.2016 20:44 8,5 °C 8,5 °C 95 % 1027,5 hPa 0,0 mm 0,0 km/h (0 Bft) O-NO 67 ° 0 min 0,000 mm 0,0 UV-I 0 W/m² 7,7 °C 0,0 km/h (0 Bft)
26.10.2016 20:45 8,5 °C 8,5 °C 95 % 1027,6 hPa 0,0 mm 0,0 km/h (0 Bft) O-NO 67 ° 0 min 0,000 mm 0,0 UV-I 0 W/m² 7,7 °C 0,0 km/h (0 Bft)
26.10.2016 20:46 8,4 °C 8,5 °C 95 % 1027,6 hPa 0,0 mm 0,1 km/h (0 Bft) O-NO 67 ° 0 min 0,000 mm 0,0 UV-I 0 W/m² 7,6 °C 1,6 km/h (1 Bft)
26.10.2016 20:47 8,4 °C 8,5 °C 95 % 1027,6 hPa 0,0 mm 0,2 km/h (0 Bft) O-NO 67 ° 0 min 0,000 mm 0,0 UV-I 0 W/m² 7,6 °C 1,6 km/h (1 Bft)
26.10.2016 20:48 8,4 °C 8,5 °C 95 % 1027,6 hPa 0,0 mm 0,1 km/h (0 Bft) O-NO 67 ° 0 min 0,000 mm 0,0 UV-I 0 W/m² 7,6 °C 1,6 km/h (1 Bft)
26.10.2016 20:49 8,5 °C 8,5 °C 95 % 1027,6 hPa 0,0 mm 0,1 km/h (0 Bft) O-NO 67 ° 0 min 0,000 mm 0,0 UV-I 0 W/m² 7,7 °C 1,6 km/h (1 Bft)
26.10.2016 20:50 8,4 °C 8,5 °C 95 % 1027,6 hPa 0,0 mm 0,0 km/h (0 Bft) O-NO 67 ° 0 min 0,000 mm 0,0 UV-I 0 W/m² 7,6 °C 0,0 km/h (0 Bft)
26.10.2016 20:51 8,5 °C 8,5 °C 95 % 1027,7 hPa 0,0 mm 0,0 km/h (0 Bft) O-NO 67 ° 0 min 0,000 mm 0,0 UV-I 0 W/m² 7,7 °C 0,0 km/h (0 Bft)
26.10.2016 20:52 8,4 °C 8,5 °C 95 % 1027,6 hPa 0,0 mm 0,0 km/h (0 Bft) O-NO 67 ° 0 min 0,000 mm 0,0 UV-I 0 W/m² 7,6 °C 0,0 km/h (0 Bft)
26.10.2016 20:53 8,4 °C 8,4 °C 95 % 1027,7 hPa 0,0 mm 0,0 km/h (0 Bft) O-NO 67 ° 0 min 0,000 mm 0,0 UV-I 0 W/m² 7,6 °C 0,0 km/h (0 Bft)
26.10.2016 20:54 8,4 °C 8,5 °C 95 % 1027,7 hPa 0,0 mm 0,0 km/h (0 Bft) O-NO 67 ° 0 min 0,000 mm 0,0 UV-I 0 W/m² 7,6 °C 0,0 km/h (0 Bft)
26.10.2016 20:55 8,5 °C 8,5 °C 95 % 1027,7 hPa 0,0 mm 0,0 km/h (0 Bft) O-NO 67 ° 0 min 0,000 mm 0,0 UV-I 0 W/m² 7,7 °C 0,0 km/h (0 Bft)
26.10.2016 20:56 8,5 °C 8,5 °C 95 % 1027,7 hPa 0,0 mm 0,0 km/h (0 Bft) O-NO 67 ° 0 min 0,000 mm 0,0 UV-I 0 W/m² 7,7 °C 0,0 km/h (0 Bft)
26.10.2016 20:57 8,4 °C 8,5 °C 95 % 1027,7 hPa 0,0 mm 0,0 km/h (0 Bft) O-NO 67 ° 0 min 0,000 mm 0,0 UV-I 0 W/m² 7,6 °C 0,0 km/h (0 Bft)
26.10.2016 20:58 8,4 °C 8,4 °C 95 % 1027,7 hPa 0,0 mm 0,0 km/h (0 Bft) O-NO 67 ° 0 min 0,000 mm 0,0 UV-I 0 W/m² 7,6 °C 0,0 km/h (0 Bft)
26.10.2016 20:59 8,4 °C 8,4 °C 95 % 1027,7 hPa 0,0 mm 0,0 km/h (0 Bft) O-NO 67 ° 0 min 0,000 mm 0,0 UV-I 0 W/m² 7,6 °C 0,0 km/h (0 Bft)
26.10.2016 21:00 8,4 °C 8,4 °C 95 % 1027,7 hPa 0,0 mm 0,0 km/h (0 Bft) O-NO 67 ° 0 min 0,000 mm 0,0 UV-I 0 W/m² 7,6 °C 0,0 km/h (0 Bft)
26.10.2016 21:01 8,4 °C 8,4 °C 95 % 1027,7 hPa 0,0 mm 0,0 km/h (0 Bft) O-NO 67 ° 0 min 0,000 mm 0,0 UV-I 0 W/m² 7,6 °C 0,0 km/h (0 Bft)
26.10.2016 21:02 8,4 °C 8,4 °C 95 % 1027,7 hPa 0,0 mm 0,0 km/h (0 Bft) O-NO 67 ° 0 min 0,000 mm 0,0 UV-I 0 W/m² 7,6 °C 0,0 km/h (0 Bft)
26.10.2016 21:03 8,4 °C 8,4 °C 95 % 1027,7 hPa 0,0 mm 0,0 km/h (0 Bft) O-NO 67 ° 0 min 0,000 mm 0,0 UV-I 0 W/m² 7,6 °C 0,0 km/h (0 Bft)
26.10.2016 21:04 8,4 °C 8,4 °C 96 % 1027,7 hPa 0,0 mm 0,0 km/h (0 Bft) O-NO 67 ° 0 min 0,000 mm 0,0 UV-I 0 W/m² 7,8 °C 0,0 km/h (0 Bft)
26.10.2016 21:05 8,4 °C 8,4 °C 96 % 1027,8 hPa 0,0 mm 0,0 km/h (0 Bft) O-NO 67 ° 0 min 0,000 mm 0,0 UV-I 0 W/m² 7,8 °C 0,0 km/h (0 Bft)
26.10.2016 21:06 8,4 °C 8,4 °C 96 % 1027,8 hPa 0,0 mm 0,0 km/h (0 Bft) O-NO 67 ° 0 min 0,000 mm 0,0 UV-I 0 W/m² 7,8 °C 0,0 km/h (0 Bft)
26.10.2016 21:07 8,4 °C 8,4 °C 96 % 1027,8 hPa 0,0 mm 0,0 km/h (0 Bft) O-NO 67 ° 0 min 0,000 mm 0,0 UV-I 0 W/m² 7,8 °C 0,0 km/h (0 Bft)
26.10.2016 21:08 8,4 °C 8,4 °C 96 % 1027,7 hPa 0,0 mm 0,0 km/h (0 Bft) O-NO 67 ° 0 min 0,000 mm 0,0 UV-I 0 W/m² 7,8 °C 0,0 km/h (0 Bft)
26.10.2016 21:09 8,4 °C 8,4 °C 95 % 1027,8 hPa 0,0 mm 0,0 km/h (0 Bft) O-NO 67 ° 0 min 0,000 mm 0,0 UV-I 0 W/m² 7,6 °C 0,0 km/h (0 Bft)
26.10.2016 21:10 8,4 °C 8,4 °C 95 % 1027,8 hPa 0,0 mm 0,0 km/h (0 Bft) O-NO 67 ° 0 min 0,000 mm 0,0 UV-I 0 W/m² 7,6 °C 0,0 km/h (0 Bft)
26.10.2016 21:11 8,4 °C 8,4 °C 96 % 1027,8 hPa 0,0 mm 0,0 km/h (0 Bft) O-NO 67 ° 0 min 0,000 mm 0,0 UV-I 0 W/m² 7,8 °C 0,0 km/h (0 Bft)
26.10.2016 21:12 8,4 °C 8,4 °C 95 % 1027,8 hPa 0,0 mm 0,0 km/h (0 Bft) O-NO 67 ° 0 min 0,000 mm 0,0 UV-I 0 W/m² 7,6 °C 0,0 km/h (0 Bft)
26.10.2016 21:13 8,4 °C 8,4 °C 95 % 1027,8 hPa 0,2 mm 0,0 km/h (0 Bft) O-NO 67 ° 0 min 0,000 mm 0,0 UV-I 0 W/m² 7,6 °C 0,0 km/h (0 Bft)
26.10.2016 21:14 8,4 °C 8,4 °C 95 % 1027,8 hPa 0,0 mm 0,0 km/h (0 Bft) O-NO 67 ° 0 min 0,000 mm 0,0 UV-I 0 W/m² 7,6 °C 0,0 km/h (0 Bft)
26.10.2016 21:15 8,4 °C 8,4 °C 95 % 1027,8 hPa 0,0 mm 0,4 km/h (0 Bft) O-NO 67 ° 0 min 0,000 mm 0,0 UV-I 0 W/m² 7,6 °C 1,6 km/h (1 Bft)
26.10.2016 21:16 8,4 °C 8,4 °C 95 % 1027,8 hPa 0,0 mm 0,0 km/h (0 Bft) O-NO 67 ° 0 min 0,000 mm 0,0 UV-I 0 W/m² 7,6 °C 0,0 km/h (0 Bft)
26.10.2016 21:17 8,4 °C 8,4 °C 95 % 1027,9 hPa 0,0 mm 0,0 km/h (0 Bft) O-NO 67 ° 0 min 0,000 mm 0,0 UV-I 0 W/m² 7,6 °C 0,0 km/h (0 Bft)
26.10.2016 21:18 8,4 °C 8,4 °C 96 % 1027,9 hPa 0,0 mm 0,0 km/h (0 Bft) O-NO 67 ° 0 min 0,000 mm 0,0 UV-I 0 W/m² 7,8 °C 0,0 km/h (0 Bft)
26.10.2016 21:19 8,4 °C 8,4 °C 96 % 1027,9 hPa 0,0 mm 0,0 km/h (0 Bft) O-NO 67 ° 0 min 0,000 mm 0,0 UV-I 0 W/m² 7,8 °C 0,0 km/h (0 Bft)
26.10.2016 21:20 8,4 °C 8,4 °C 96 % 1027,8 hPa 0,0 mm 0,0 km/h (0 Bft) O-NO 67 ° 0 min 0,000 mm 0,0 UV-I 0 W/m² 7,8 °C 0,0 km/h (0 Bft)
26.10.2016 21:21 8,4 °C 8,4 °C 96 % 1027,8 hPa 0,0 mm 0,0 km/h (0 Bft) O-NO 67 ° 0 min 0,000 mm 0,0 UV-I 0 W/m² 7,8 °C 0,0 km/h (0 Bft)
26.10.2016 21:22 8,4 °C 8,4 °C 95 % 1027,9 hPa 0,0 mm 0,0 km/h (0 Bft) O-NO 67 ° 0 min 0,000 mm 0,0 UV-I 0 W/m² 7,6 °C 0,0 km/h (0 Bft)
26.10.2016 21:23 8,4 °C 8,4 °C 95 % 1027,9 hPa 0,0 mm 0,0 km/h (0 Bft) O-NO 67 ° 0 min 0,000 mm 0,0 UV-I 0 W/m² 7,6 °C 0,0 km/h (0 Bft)
26.10.2016 21:24 8,4 °C 8,4 °C 95 % 1027,9 hPa 0,0 mm 0,0 km/h (0 Bft) O-NO 67 ° 0 min 0,000 mm 0,0 UV-I 0 W/m² 7,6 °C 0,0 km/h (0 Bft)
26.10.2016 21:25 8,4 °C 8,4 °C 95 % 1027,8 hPa 0,0 mm 0,0 km/h (0 Bft) O-NO 67 ° 0 min 0,000 mm 0,0 UV-I 0 W/m² 7,6 °C 0,0 km/h (0 Bft)
26.10.2016 21:26 8,4 °C 8,4 °C 95 % 1027,8 hPa 0,0 mm 0,1 km/h (0 Bft) O-NO 67 ° 0 min 0,000 mm 0,0 UV-I 0 W/m² 7,6 °C 1,6 km/h (1 Bft)
26.10.2016 21:27 8,4 °C 8,4 °C 95 % 1027,8 hPa 0,0 mm 1,1 km/h (1 Bft) O-NO 67 ° 0 min 0,000 mm 0,0 UV-I 0 W/m² 7,6 °C 1,6 km/h (1 Bft)
26.10.2016 21:28 8,4 °C 8,4 °C 95 % 1027,9 hPa 0,0 mm 0,8 km/h (0 Bft) O-NO 67 ° 0 min 0,000 mm 0,0 UV-I 0 W/m² 7,6 °C 1,6 km/h (1 Bft)
26.10.2016 21:29 8,4 °C 8,4 °C 95 % 1027,9 hPa 0,0 mm 0,6 km/h (0 Bft) O-NO 67 ° 0 min 0,000 mm 0,0 UV-I 0 W/m² 7,6 °C 1,6 km/h (1 Bft)
26.10.2016 21:30 8,4 °C 8,4 °C 95 % 1027,9 hPa 0,0 mm 0,6 km/h (0 Bft) O-NO 67 ° 0 min 0,000 mm 0,0 UV-I 0 W/m² 7,6 °C 1,6 km/h (1 Bft)
26.10.2016 21:31 8,4 °C 8,4 °C 95 % 1028,0 hPa 0,0 mm 0,0 km/h (0 Bft) O-NO 67 ° 0 min 0,000 mm 0,0 UV-I 0 W/m² 7,6 °C 0,0 km/h (0 Bft)
26.10.2016 21:32 8,4 °C 8,4 °C 96 % 1028,0 hPa 0,0 mm 0,0 km/h (0 Bft) O-NO 67 ° 0 min 0,000 mm 0,0 UV-I 0 W/m² 7,8 °C 0,0 km/h (0 Bft)
26.10.2016 21:33 8,4 °C 8,4 °C 96 % 1028,0 hPa 0,0 mm 0,0 km/h (0 Bft) O-NO 67 ° 0 min 0,000 mm 0,0 UV-I 0 W/m² 7,8 °C 0,0 km/h (0 Bft)
26.10.2016 21:34 8,4 °C 8,4 °C 96 % 1028,0 hPa 0,0 mm 0,3 km/h (0 Bft) O-NO 67 ° 0 min 0,000 mm 0,0 UV-I 0 W/m² 7,8 °C 1,6 km/h (1 Bft)
26.10.2016 21:35 8,4 °C 8,4 °C 96 % 1028,0 hPa 0,0 mm 0,0 km/h (0 Bft) O-NO 67 ° 0 min 0,000 mm 0,0 UV-I 0 W/m² 7,8 °C 0,0 km/h (0 Bft)
26.10.2016 21:36 8,3 °C 8,4 °C 96 % 1027,9 hPa 0,0 mm 0,0 km/h (0 Bft) O-NO 67 ° 0 min 0,000 mm 0,0 UV-I 0 W/m² 7,7 °C 0,0 km/h (0 Bft)
26.10.2016 21:37 8,4 °C 8,4 °C 96 % 1027,9 hPa 0,0 mm 0,0 km/h (0 Bft) O-NO 67 ° 0 min 0,000 mm 0,0 UV-I 0 W/m² 7,8 °C 0,0 km/h (0 Bft)
26.10.2016 21:38 8,3 °C 8,4 °C 96 % 1027,9 hPa 0,0 mm 0,2 km/h (0 Bft) O-NO 67 ° 0 min 0,000 mm 0,0 UV-I 0 W/m² 7,7 °C 1,6 km/h (1 Bft)
26.10.2016 21:39 8,4 °C 8,4 °C 96 % 1027,9 hPa 0,0 mm 1,6 km/h (1 Bft) O-NO 67 ° 0 min 0,000 mm 0,0 UV-I 0 W/m² 7,8 °C 1,6 km/h (1 Bft)
26.10.2016 21:40 8,4 °C 8,4 °C 96 % 1027,9 hPa 0,0 mm 1,3 km/h (1 Bft) O-NO 67 ° 0 min 0,000 mm 0,0 UV-I 0 W/m² 7,8 °C 1,6 km/h (1 Bft)
26.10.2016 21:41 8,3 °C 8,4 °C 96 % 1027,9 hPa 0,0 mm 0,1 km/h (0 Bft) O-NO 67 ° 0 min 0,000 mm 0,0 UV-I 0 W/m² 7,7 °C 1,6 km/h (1 Bft)
26.10.2016 21:42 8,3 °C 8,4 °C 96 % 1027,9 hPa 0,0 mm 0,1 km/h (0 Bft) O-NO 67 ° 0 min 0,000 mm 0,0 UV-I 0 W/m² 7,7 °C 1,6 km/h (1 Bft)
26.10.2016 21:43 8,3 °C 8,4 °C 96 % 1027,9 hPa 0,0 mm 1,0 km/h (0 Bft) O-NO 67 ° 0 min 0,000 mm 0,0 UV-I 0 W/m² 7,7 °C 3,2 km/h (1 Bft)
26.10.2016 21:44 8,3 °C 8,4 °C 96 % 1027,9 hPa 0,0 mm 2,5 km/h (1 Bft) O-NO 67 ° 0 min 0,000 mm 0,0 UV-I 0 W/m² 7,7 °C 3,2 km/h (1 Bft)
26.10.2016 21:45 8,3 °C 8,4 °C 96 % 1027,9 hPa 0,0 mm 2,5 km/h (1 Bft) O-NO 67 ° 0 min 0,000 mm 0,0 UV-I 0 W/m² 7,7 °C 3,2 km/h (1 Bft)
26.10.2016 21:46 8,3 °C 8,4 °C 96 % 1027,9 hPa 0,0 mm 2,2 km/h (1 Bft) O-NO 67 ° 0 min 0,000 mm 0,0 UV-I 0 W/m² 7,7 °C 3,2 km/h (1 Bft)
26.10.2016 21:47 8,3 °C 8,4 °C 96 % 1027,9 hPa 0,0 mm 1,9 km/h (1 Bft) O-NO 67 ° 0 min 0,000 mm 0,0 UV-I 0 W/m² 7,7 °C 3,2 km/h (1 Bft)
26.10.2016 21:48 8,4 °C 8,4 °C 96 % 1027,8 hPa 0,0 mm 2,3 km/h (1 Bft) O-NO 67 ° 0 min 0,000 mm 0,0 UV-I 0 W/m² 7,8 °C 3,2 km/h (1 Bft)
26.10.2016 21:49 8,4 °C 8,4 °C 96 % 1027,9 hPa 0,0 mm 2,4 km/h (1 Bft) O-NO 67 ° 0 min 0,000 mm 0,0 UV-I 0 W/m² 7,8 °C 4,8 km/h (1 Bft)
26.10.2016 21:50 8,3 °C 8,4 °C 96 % 1027,8 hPa 0,0 mm 2,4 km/h (1 Bft) O-NO 67 ° 0 min 0,000 mm 0,0 UV-I 0 W/m² 7,7 °C 3,2 km/h (1 Bft)
26.10.2016 21:51 8,3 °C 8,4 °C 96 % 1027,8 hPa 0,0 mm 1,6 km/h (1 Bft) O-NO 67 ° 0 min 0,000 mm 0,0 UV-I 0 W/m² 7,7 °C 3,2 km/h (1 Bft)
26.10.2016 21:52 8,3 °C 8,4 °C 96 % 1027,9 hPa 0,0 mm 1,0 km/h (0 Bft) O-NO 67 ° 0 min 0,000 mm 0,0 UV-I 0 W/m² 7,7 °C 1,6 km/h (1 Bft)
26.10.2016 21:53 8,4 °C 8,4 °C 96 % 1027,9 hPa 0,0 mm 0,1 km/h (0 Bft) O-NO 67 ° 0 min 0,000 mm 0,0 UV-I 0 W/m² 7,8 °C 1,6 km/h (1 Bft)
26.10.2016 21:54 8,4 °C 8,4 °C 96 % 1028,0 hPa 0,0 mm 0,1 km/h (0 Bft) O-NO 67 ° 0 min 0,000 mm 0,0 UV-I 0 W/m² 7,8 °C 1,6 km/h (1 Bft)
26.10.2016 21:55 8,4 °C 8,4 °C 96 % 1028,0 hPa 0,0 mm 1,9 km/h (1 Bft) O-NO 67 ° 0 min 0,000 mm 0,0 UV-I 0 W/m² 7,8 °C 3,2 km/h (1 Bft)
26.10.2016 21:56 8,4 °C 8,4 °C 96 % 1028,0 hPa 0,0 mm 2,3 km/h (1 Bft) O-NO 66 ° 0 min 0,000 mm 0,0 UV-I 0 W/m² 7,8 °C 3,2 km/h (1 Bft)
26.10.2016 21:57 8,4 °C 8,4 °C 96 % 1028,0 hPa 0,0 mm 1,7 km/h (1 Bft) O-NO 66 ° 0 min 0,000 mm 0,0 UV-I 0 W/m² 7,8 °C 3,2 km/h (1 Bft)
26.10.2016 21:58 8,3 °C 8,4 °C 96 % 1028,1 hPa 0,2 mm 0,8 km/h (0 Bft) O-NO 66 ° 0 min 0,000 mm 0,0 UV-I 0 W/m² 7,7 °C 1,6 km/h (1 Bft)
26.10.2016 21:59 8,4 °C 8,4 °C 96 % 1028,1 hPa 0,0 mm 0,4 km/h (0 Bft) O-NO 66 ° 0 min 0,000 mm 0,0 UV-I 0 W/m² 7,8 °C 1,6 km/h (1 Bft)
26.10.2016 22:00 8,4 °C 8,4 °C 96 % 1028,0 hPa 0,0 mm 0,1 km/h (0 Bft) O-NO 66 ° 0 min 0,000 mm 0,0 UV-I 0 W/m² 7,8 °C 1,6 km/h (1 Bft)
26.10.2016 22:01 8,4 °C 8,4 °C 96 % 1028,1 hPa 0,0 mm 0,3 km/h (0 Bft) O-NO 66 ° 0 min 0,000 mm 0,0 UV-I 0 W/m² 7,8 °C 1,6 km/h (1 Bft)
26.10.2016 22:02 8,4 °C 8,4 °C 96 % 1028,1 hPa 0,0 mm 0,0 km/h (0 Bft) O-NO 66 ° 0 min 0,000 mm 0,0 UV-I 0 W/m² 7,8 °C 0,0 km/h (0 Bft)
26.10.2016 22:03 8,4 °C 8,4 °C 96 % 1028,1 hPa 0,0 mm 0,0 km/h (0 Bft) O-NO 66 ° 0 min 0,000 mm 0,0 UV-I 0 W/m² 7,8 °C 0,0 km/h (0 Bft)
26.10.2016 22:04 8,4 °C 8,4 °C 96 % 1028,1 hPa 0,0 mm 0,0 km/h (0 Bft) O-NO 66 ° 0 min 0,000 mm 0,0 UV-I 0 W/m² 7,8 °C 0,0 km/h (0 Bft)
26.10.2016 22:05 8,4 °C 8,4 °C 96 % 1028,1 hPa 0,0 mm 1,2 km/h (1 Bft) O-NO 66 ° 0 min 0,000 mm 0,0 UV-I 0 W/m² 7,8 °C 3,2 km/h (1 Bft)
26.10.2016 22:06 8,4 °C 8,4 °C 96 % 1028,1 hPa 0,0 mm 1,8 km/h (1 Bft) O-NO 66 ° 0 min 0,000 mm 0,0 UV-I 0 W/m² 7,8 °C 3,2 km/h (1 Bft)
26.10.2016 22:07 8,4 °C 8,4 °C 96 % 1028,1 hPa 0,0 mm 0,3 km/h (0 Bft) O-NO 66 ° 0 min 0,000 mm 0,0 UV-I 0 W/m² 7,8 °C 1,6 km/h (1 Bft)
26.10.2016 22:08 8,3 °C 8,4 °C 96 % 1028,1 hPa 0,0 mm 1,0 km/h (0 Bft) O-NO 66 ° 0 min 0,000 mm 0,0 UV-I 0 W/m² 7,7 °C 1,6 km/h (1 Bft)
26.10.2016 22:09 8,4 °C 8,4 °C 96 % 1028,1 hPa 0,0 mm 0,7 km/h (0 Bft) O-NO 66 ° 0 min 0,000 mm 0,0 UV-I 0 W/m² 7,8 °C 1,6 km/h (1 Bft)
26.10.2016 22:10 8,4 °C 8,4 °C 96 % 1028,1 hPa 0,0 mm 0,1 km/h (0 Bft) O-NO 66 ° 0 min 0,000 mm 0,0 UV-I 0 W/m² 7,8 °C 1,6 km/h (1 Bft)
26.10.2016 22:11 8,3 °C 8,4 °C 96 % 1028,1 hPa 0,0 mm 0,0 km/h (0 Bft) O-NO 66 ° 0 min 0,000 mm 0,0 UV-I 0 W/m² 7,7 °C 0,0 km/h (0 Bft)
26.10.2016 22:12 8,3 °C 8,4 °C 96 % 1028,1 hPa 0,0 mm 0,0 km/h (0 Bft) O-NO 66 ° 0 min 0,000 mm 0,0 UV-I 0 W/m² 7,7 °C 0,0 km/h (0 Bft)
26.10.2016 22:13 8,3 °C 8,4 °C 96 % 1028,2 hPa 0,0 mm 0,0 km/h (0 Bft) O-NO 66 ° 0 min 0,000 mm 0,0 UV-I 0 W/m² 7,7 °C 0,0 km/h (0 Bft)
26.10.2016 22:14 8,3 °C 8,3 °C 96 % 1028,2 hPa 0,0 mm 0,0 km/h (0 Bft) O-NO 66 ° 0 min 0,000 mm 0,0 UV-I 0 W/m² 7,7 °C 0,0 km/h (0 Bft)
26.10.2016 22:15 8,3 °C 8,4 °C 96 % 1028,2 hPa 0,0 mm 0,0 km/h (0 Bft) O-NO 66 ° 0 min 0,000 mm 0,0 UV-I 0 W/m² 7,7 °C 0,0 km/h (0 Bft)
26.10.2016 22:16 8,3 °C 8,4 °C 96 % 1028,2 hPa 0,0 mm 0,0 km/h (0 Bft) O-NO 66 ° 0 min 0,000 mm 0,0 UV-I 0 W/m² 7,7 °C 0,0 km/h (0 Bft)
26.10.2016 22:17 8,4 °C 8,4 °C 96 % 1028,2 hPa 0,0 mm 0,0 km/h (0 Bft) O-NO 66 ° 0 min 0,000 mm 0,0 UV-I 0 W/m² 7,8 °C 0,0 km/h (0 Bft)
26.10.2016 22:18 8,3 °C 8,4 °C 96 % 1028,2 hPa 0,0 mm 0,0 km/h (0 Bft) O-NO 66 ° 0 min 0,000 mm 0,0 UV-I 0 W/m² 7,7 °C 0,0 km/h (0 Bft)
26.10.2016 22:19 8,3 °C 8,3 °C 96 % 1028,3 hPa 0,0 mm 0,0 km/h (0 Bft) O-NO 66 ° 0 min 0,000 mm 0,0 UV-I 0 W/m² 7,7 °C 0,0 km/h (0 Bft)
26.10.2016 22:20 8,3 °C 8,3 °C 96 % 1028,2 hPa 0,0 mm 0,0 km/h (0 Bft) O-NO 66 ° 0 min 0,000 mm 0,0 UV-I 0 W/m² 7,7 °C 0,0 km/h (0 Bft)
26.10.2016 22:21 8,3 °C 8,3 °C 96 % 1028,3 hPa 0,0 mm 0,0 km/h (0 Bft) O-NO 66 ° 0 min 0,000 mm 0,0 UV-I 0 W/m² 7,7 °C 0,0 km/h (0 Bft)
26.10.2016 22:22 8,3 °C 8,3 °C 96 % 1028,3 hPa 0,0 mm 0,0 km/h (0 Bft) O-NO 66 ° 0 min 0,000 mm 0,0 UV-I 0 W/m² 7,7 °C 0,0 km/h (0 Bft)
26.10.2016 22:23 8,3 °C 8,3 °C 96 % 1028,3 hPa 0,0 mm 0,0 km/h (0 Bft) O-NO 66 ° 0 min 0,000 mm 0,0 UV-I 0 W/m² 7,7 °C 0,0 km/h (0 Bft)
26.10.2016 22:24 8,3 °C 8,3 °C 96 % 1028,3 hPa 0,0 mm 0,0 km/h (0 Bft) O-NO 66 ° 0 min 0,000 mm 0,0 UV-I 0 W/m² 7,7 °C 0,0 km/h (0 Bft)
26.10.2016 22:25 8,3 °C 8,3 °C 96 % 1028,3 hPa 0,0 mm 0,0 km/h (0 Bft) O-NO 66 ° 0 min 0,000 mm 0,0 UV-I 0 W/m² 7,7 °C 0,0 km/h (0 Bft)
26.10.2016 22:26 8,3 °C 8,3 °C 96 % 1028,3 hPa 0,0 mm 0,0 km/h (0 Bft) O-NO 66 ° 0 min 0,000 mm 0,0 UV-I 0 W/m² 7,7 °C 0,0 km/h (0 Bft)
26.10.2016 22:27 8,3 °C 8,3 °C 96 % 1028,3 hPa 0,0 mm 0,0 km/h (0 Bft) O-NO 66 ° 0 min 0,000 mm 0,0 UV-I 0 W/m² 7,7 °C 0,0 km/h (0 Bft)
26.10.2016 22:28 8,3 °C 8,3 °C 96 % 1028,4 hPa 0,0 mm 0,0 km/h (0 Bft) O-NO 66 ° 0 min 0,000 mm 0,0 UV-I 0 W/m² 7,7 °C 0,0 km/h (0 Bft)
26.10.2016 22:29 8,3 °C 8,3 °C 96 % 1028,4 hPa 0,0 mm 0,0 km/h (0 Bft) O-NO 66 ° 0 min 0,000 mm 0,0 UV-I 0 W/m² 7,7 °C 0,0 km/h (0 Bft)
26.10.2016 22:30 8,3 °C 8,3 °C 96 % 1028,4 hPa 0,0 mm 0,0 km/h (0 Bft) O-NO 66 ° 0 min 0,000 mm 0,0 UV-I 0 W/m² 7,7 °C 0,0 km/h (0 Bft)
26.10.2016 22:31 8,3 °C 8,3 °C 96 % 1028,4 hPa 0,0 mm 0,0 km/h (0 Bft) O-NO 66 ° 0 min 0,000 mm 0,0 UV-I 0 W/m² 7,7 °C 0,0 km/h (0 Bft)
26.10.2016 22:32 8,3 °C 8,3 °C 96 % 1028,4 hPa 0,0 mm 0,0 km/h (0 Bft) O-NO 66 ° 0 min 0,000 mm 0,0 UV-I 0 W/m² 7,7 °C 0,0 km/h (0 Bft)
26.10.2016 22:33 8,3 °C 8,3 °C 96 % 1028,4 hPa 0,0 mm 0,0 km/h (0 Bft) O-NO 66 ° 0 min 0,000 mm 0,0 UV-I 0 W/m² 7,7 °C 0,0 km/h (0 Bft)
26.10.2016 22:34 8,3 °C 8,3 °C 96 % 1028,4 hPa 0,0 mm 0,1 km/h (0 Bft) O-NO 66 ° 0 min 0,000 mm 0,0 UV-I 0 W/m² 7,7 °C 1,6 km/h (1 Bft)
26.10.2016 22:35 8,3 °C 8,3 °C 96 % 1028,4 hPa 0,0 mm 0,0 km/h (0 Bft) O-NO 66 ° 0 min 0,000 mm 0,0 UV-I 0 W/m² 7,7 °C 0,0 km/h (0 Bft)
26.10.2016 22:36 8,3 °C 8,4 °C 96 % 1028,4 hPa 0,0 mm 0,1 km/h (0 Bft) O-NO 66 ° 0 min 0,000 mm 0,0 UV-I 0 W/m² 7,7 °C 1,6 km/h (1 Bft)
26.10.2016 22:37 8,3 °C 8,3 °C 96 % 1028,4 hPa 0,0 mm 0,1 km/h (0 Bft) O-NO 66 ° 0 min 0,000 mm 0,0 UV-I 0 W/m² 7,7 °C 1,6 km/h (1 Bft)
26.10.2016 22:38 8,3 °C 8,3 °C 96 % 1028,4 hPa 0,0 mm 0,0 km/h (0 Bft) O-NO 66 ° 0 min 0,000 mm 0,0 UV-I 0 W/m² 7,7 °C 0,0 km/h (0 Bft)
26.10.2016 22:39 8,3 °C 8,3 °C 96 % 1028,4 hPa 0,0 mm 0,0 km/h (0 Bft) O-NO 66 ° 0 min 0,000 mm 0,0 UV-I 0 W/m² 7,7 °C 0,0 km/h (0 Bft)
26.10.2016 22:40 8,3 °C 8,4 °C 96 % 1028,4 hPa 0,0 mm 0,0 km/h (0 Bft) O-NO 66 ° 0 min 0,000 mm 0,0 UV-I 0 W/m² 7,7 °C 0,0 km/h (0 Bft)
26.10.2016 22:41 8,3 °C 8,4 °C 96 % 1028,4 hPa 0,0 mm 0,1 km/h (0 Bft) O-NO 66 ° 0 min 0,000 mm 0,0 UV-I 0 W/m² 7,7 °C 1,6 km/h (1 Bft)
26.10.2016 22:42 8,3 °C 8,3 °C 96 % 1028,4 hPa 0,0 mm 0,0 km/h (0 Bft) O-NO 66 ° 0 min 0,000 mm 0,0 UV-I 0 W/m² 7,7 °C 0,0 km/h (0 Bft)
26.10.2016 22:43 8,3 °C 8,3 °C 96 % 1028,4 hPa 0,0 mm 0,0 km/h (0 Bft) O-NO 66 ° 0 min 0,000 mm 0,0 UV-I 0 W/m² 7,7 °C 0,0 km/h (0 Bft)
26.10.2016 22:44 8,3 °C 8,3 °C 96 % 1028,4 hPa 0,0 mm 0,0 km/h (0 Bft) O-NO 66 ° 0 min 0,000 mm 0,0 UV-I 0 W/m² 7,7 °C 0,0 km/h (0 Bft)
26.10.2016 22:45 8,3 °C 8,3 °C 96 % 1028,3 hPa 0,0 mm 0,0 km/h (0 Bft) O-NO 66 ° 0 min 0,000 mm 0,0 UV-I 0 W/m² 7,7 °C 0,0 km/h (0 Bft)
26.10.2016 22:46 8,3 °C 8,3 °C 96 % 1028,4 hPa 0,0 mm 0,0 km/h (0 Bft) O-NO 66 ° 0 min 0,000 mm 0,0 UV-I 0 W/m² 7,7 °C 0,0 km/h (0 Bft)
26.10.2016 22:47 8,3 °C 8,3 °C 96 % 1028,4 hPa 0,0 mm 0,0 km/h (0 Bft) O-NO 66 ° 0 min 0,000 mm 0,0 UV-I 0 W/m² 7,7 °C 0,0 km/h (0 Bft)
26.10.2016 22:48 8,3 °C 8,3 °C 96 % 1028,4 hPa 0,0 mm 0,0 km/h (0 Bft) O-NO 66 ° 0 min 0,000 mm 0,0 UV-I 0 W/m² 7,7 °C 0,0 km/h (0 Bft)
26.10.2016 22:49 8,3 °C 8,4 °C 96 % 1028,4 hPa 0,0 mm 0,0 km/h (0 Bft) O-NO 66 ° 0 min 0,000 mm 0,0 UV-I 0 W/m² 7,7 °C 0,0 km/h (0 Bft)
26.10.2016 22:50 8,3 °C 8,3 °C 96 % 1028,4 hPa 0,0 mm 0,0 km/h (0 Bft) O-NO 66 ° 0 min 0,000 mm 0,0 UV-I 0 W/m² 7,7 °C 0,0 km/h (0 Bft)
26.10.2016 22:51 8,3 °C 8,3 °C 96 % 1028,4 hPa 0,0 mm 0,0 km/h (0 Bft) O-NO 66 ° 0 min 0,000 mm 0,0 UV-I 0 W/m² 7,7 °C 0,0 km/h (0 Bft)
26.10.2016 22:52 8,3 °C 8,3 °C 96 % 1028,4 hPa 0,0 mm 0,0 km/h (0 Bft) O-NO 66 ° 0 min 0,000 mm 0,0 UV-I 0 W/m² 7,7 °C 0,0 km/h (0 Bft)
26.10.2016 22:53 8,3 °C 8,3 °C 96 % 1028,4 hPa 0,0 mm 0,0 km/h (0 Bft) O-NO 66 ° 0 min 0,000 mm 0,0 UV-I 0 W/m² 7,7 °C 0,0 km/h (0 Bft)
26.10.2016 22:54 8,3 °C 8,4 °C 96 % 1028,4 hPa 0,0 mm 0,0 km/h (0 Bft) O-NO 66 ° 0 min 0,000 mm 0,0 UV-I 0 W/m² 7,7 °C 0,0 km/h (0 Bft)
26.10.2016 22:55 8,3 °C 8,3 °C 96 % 1028,4 hPa 0,0 mm 0,0 km/h (0 Bft) O-NO 66 ° 0 min 0,000 mm 0,0 UV-I 0 W/m² 7,7 °C 0,0 km/h (0 Bft)
26.10.2016 22:56 8,4 °C 8,4 °C 96 % 1028,4 hPa 0,0 mm 0,0 km/h (0 Bft) O-NO 66 ° 0 min 0,000 mm 0,0 UV-I 0 W/m² 7,8 °C 0,0 km/h (0 Bft)
26.10.2016 22:57 8,3 °C 8,4 °C 96 % 1028,4 hPa 0,0 mm 0,0 km/h (0 Bft) O-NO 66 ° 0 min 0,000 mm 0,0 UV-I 0 W/m² 7,7 °C 0,0 km/h (0 Bft)
26.10.2016 22:58 8,4 °C 8,4 °C 96 % 1028,4 hPa 0,0 mm 0,0 km/h (0 Bft) O-NO 66 ° 0 min 0,000 mm 0,0 UV-I 0 W/m² 7,8 °C 0,0 km/h (0 Bft)
26.10.2016 22:59 8,4 °C 8,4 °C 96 % 1028,4 hPa 0,0 mm 0,0 km/h (0 Bft) O-NO 66 ° 0 min 0,000 mm 0,0 UV-I 0 W/m² 7,8 °C 0,0 km/h (0 Bft)
26.10.2016 23:00 8,3 °C 8,4 °C 96 % 1028,4 hPa 0,0 mm 0,0 km/h (0 Bft) O-NO 66 ° 0 min 0,000 mm 0,0 UV-I 0 W/m² 7,7 °C 0,0 km/h (0 Bft)
26.10.2016 23:01 8,3 °C 8,4 °C 96 % 1028,4 hPa 0,0 mm 0,0 km/h (0 Bft) O-NO 66 ° 0 min 0,000 mm 0,0 UV-I 0 W/m² 7,7 °C 0,0 km/h (0 Bft)
26.10.2016 23:02 8,3 °C 8,4 °C 96 % 1028,4 hPa 0,0 mm 0,0 km/h (0 Bft) O-NO 66 ° 0 min 0,000 mm 0,0 UV-I 0 W/m² 7,7 °C 0,0 km/h (0 Bft)
26.10.2016 23:03 8,3 °C 8,4 °C 96 % 1028,4 hPa 0,0 mm 0,0 km/h (0 Bft) O-NO 66 ° 0 min 0,000 mm 0,0 UV-I 0 W/m² 7,7 °C 0,0 km/h (0 Bft)
26.10.2016 23:04 8,3 °C 8,4 °C 96 % 1028,5 hPa 0,0 mm 0,0 km/h (0 Bft) O-NO 66 ° 0 min 0,000 mm 0,0 UV-I 0 W/m² 7,7 °C 0,0 km/h (0 Bft)
26.10.2016 23:05 8,3 °C 8,4 °C 96 % 1028,4 hPa 0,0 mm 0,0 km/h (0 Bft) O-NO 66 ° 0 min 0,000 mm 0,0 UV-I 0 W/m² 7,7 °C 0,0 km/h (0 Bft)
26.10.2016 23:06 8,3 °C 8,4 °C 96 % 1028,4 hPa 0,0 mm 0,0 km/h (0 Bft) O-NO 66 ° 0 min 0,000 mm 0,0 UV-I 0 W/m² 7,7 °C 0,0 km/h (0 Bft)
26.10.2016 23:07 8,4 °C 8,4 °C 96 % 1028,5 hPa 0,0 mm 0,2 km/h (0 Bft) O-NO 66 ° 0 min 0,000 mm 0,0 UV-I 0 W/m² 7,8 °C 1,6 km/h (1 Bft)
26.10.2016 23:08 8,4 °C 8,4 °C 96 % 1028,5 hPa 0,0 mm 2,0 km/h (1 Bft) O-NO 66 ° 0 min 0,000 mm 0,0 UV-I 0 W/m² 7,8 °C 3,2 km/h (1 Bft)
26.10.2016 23:09 8,4 °C 8,4 °C 96 % 1028,5 hPa 0,0 mm 2,9 km/h (1 Bft) NO 37 ° 0 min 0,000 mm 0,0 UV-I 0 W/m² 7,8 °C 4,8 km/h (1 Bft)
26.10.2016 23:10 8,4 °C 8,4 °C 96 % 1028,5 hPa 0,0 mm 3,1 km/h (1 Bft) NO 37 ° 0 min 0,000 mm 0,0 UV-I 0 W/m² 7,8 °C 3,2 km/h (1 Bft)
26.10.2016 23:11 8,4 °C 8,4 °C 96 % 1028,5 hPa 0,0 mm 1,3 km/h (1 Bft) NO 36 ° 0 min 0,000 mm 0,0 UV-I 0 W/m² 7,8 °C 3,2 km/h (1 Bft)
26.10.2016 23:12 8,4 °C 8,4 °C 96 % 1028,5 hPa 0,0 mm 1,4 km/h (1 Bft) NO 37 ° 0 min 0,000 mm 0,0 UV-I 0 W/m² 7,8 °C 4,8 km/h (1 Bft)
26.10.2016 23:13 8,4 °C 8,4 °C 96 % 1028,5 hPa 0,0 mm 2,4 km/h (1 Bft) NO 37 ° 0 min 0,000 mm 0,0 UV-I 0 W/m² 7,8 °C 4,8 km/h (1 Bft)
26.10.2016 23:14 8,4 °C 8,4 °C 96 % 1028,5 hPa 0,0 mm 1,5 km/h (1 Bft) NO 37 ° 0 min 0,000 mm 0,0 UV-I 0 W/m² 7,8 °C 3,2 km/h (1 Bft)
26.10.2016 23:15 8,3 °C 8,4 °C 96 % 1028,5 hPa 0,0 mm 1,2 km/h (1 Bft) NO 37 ° 0 min 0,000 mm 0,0 UV-I 0 W/m² 7,7 °C 1,6 km/h (1 Bft)
26.10.2016 23:16 8,4 °C 8,4 °C 96 % 1028,5 hPa 0,0 mm 1,1 km/h (1 Bft) NO 37 ° 0 min 0,000 mm 0,0 UV-I 0 W/m² 7,8 °C 1,6 km/h (1 Bft)
26.10.2016 23:17 8,4 °C 8,4 °C 96 % 1028,5 hPa 0,0 mm 1,4 km/h (1 Bft) NO 37 ° 0 min 0,000 mm 0,0 UV-I 0 W/m² 7,8 °C 3,2 km/h (1 Bft)
26.10.2016 23:18 8,4 °C 8,4 °C 96 % 1028,5 hPa 0,0 mm 0,3 km/h (0 Bft) NO 37 ° 0 min 0,000 mm 0,0 UV-I 0 W/m² 7,8 °C 1,6 km/h (1 Bft)
26.10.2016 23:19 8,4 °C 8,4 °C 96 % 1028,5 hPa 0,0 mm 0,3 km/h (0 Bft) NO 37 ° 0 min 0,000 mm 0,0 UV-I 0 W/m² 7,8 °C 1,6 km/h (1 Bft)
26.10.2016 23:20 8,4 °C 8,4 °C 96 % 1028,6 hPa 0,0 mm 0,3 km/h (0 Bft) NO 37 ° 0 min 0,000 mm 0,0 UV-I 0 W/m² 7,8 °C 1,6 km/h (1 Bft)
26.10.2016 23:21 8,4 °C 8,4 °C 96 % 1028,5 hPa 0,0 mm 0,1 km/h (0 Bft) NO 37 ° 0 min 0,000 mm 0,0 UV-I 0 W/m² 7,8 °C 1,6 km/h (1 Bft)
26.10.2016 23:22 8,4 °C 8,4 °C 96 % 1028,6 hPa 0,0 mm 0,0 km/h (0 Bft) NO 37 ° 0 min 0,000 mm 0,0 UV-I 0 W/m² 7,8 °C 0,0 km/h (0 Bft)
26.10.2016 23:23 8,4 °C 8,4 °C 96 % 1028,6 hPa 0,0 mm 0,1 km/h (0 Bft) NO 37 ° 0 min 0,000 mm 0,0 UV-I 0 W/m² 7,8 °C 1,6 km/h (1 Bft)
26.10.2016 23:24 8,4 °C 8,4 °C 96 % 1028,6 hPa 0,0 mm 0,0 km/h (0 Bft) NO 37 ° 0 min 0,000 mm 0,0 UV-I 0 W/m² 7,8 °C 0,0 km/h (0 Bft)
26.10.2016 23:25 8,4 °C 8,4 °C 96 % 1028,6 hPa 0,0 mm 0,1 km/h (0 Bft) NO 36 ° 0 min 0,000 mm 0,0 UV-I 0 W/m² 7,8 °C 1,6 km/h (1 Bft)
26.10.2016 23:26 8,4 °C 8,4 °C 96 % 1028,6 hPa 0,0 mm 1,6 km/h (1 Bft) NO 37 ° 0 min 0,000 mm 0,0 UV-I 0 W/m² 7,8 °C 3,2 km/h (1 Bft)
26.10.2016 23:27 8,4 °C 8,4 °C 96 % 1028,6 hPa 0,0 mm 0,4 km/h (0 Bft) NO 37 ° 0 min 0,000 mm 0,0 UV-I 0 W/m² 7,8 °C 1,6 km/h (1 Bft)
26.10.2016 23:28 8,4 °C 8,4 °C 96 % 1028,6 hPa 0,0 mm 0,9 km/h (0 Bft) NO 37 ° 0 min 0,000 mm 0,0 UV-I 0 W/m² 7,8 °C 3,2 km/h (1 Bft)
26.10.2016 23:29 8,4 °C 8,4 °C 96 % 1028,7 hPa 0,0 mm 1,7 km/h (1 Bft) NO 42 ° 0 min 0,000 mm 0,0 UV-I 0 W/m² 7,8 °C 3,2 km/h (1 Bft)
26.10.2016 23:30 8,4 °C 8,4 °C 96 % 1028,6 hPa 0,0 mm 3,0 km/h (1 Bft) O-NO 75 ° 0 min 0,000 mm 0,0 UV-I 0 W/m² 7,8 °C 4,8 km/h (1 Bft)
26.10.2016 23:31 8,4 °C 8,4 °C 96 % 1028,7 hPa 0,0 mm 4,4 km/h (1 Bft) N-NO 32 ° 0 min 0,000 mm 0,0 UV-I 0 W/m² 7,8 °C 4,8 km/h (1 Bft)
26.10.2016 23:32 8,4 °C 8,4 °C 96 % 1028,7 hPa 0,0 mm 3,7 km/h (1 Bft) O-NO 72 ° 0 min 0,000 mm 0,0 UV-I 0 W/m² 7,8 °C 4,8 km/h (1 Bft)
26.10.2016 23:33 8,3 °C 8,4 °C 96 % 1028,8 hPa 0,0 mm 2,5 km/h (1 Bft) O-NO 72 ° 0 min 0,000 mm 0,0 UV-I 0 W/m² 7,7 °C 4,8 km/h (1 Bft)
26.10.2016 23:34 8,3 °C 8,3 °C 96 % 1028,8 hPa 0,0 mm 1,8 km/h (1 Bft) O-NO 70 ° 0 min 0,000 mm 0,0 UV-I 0 W/m² 7,7 °C 3,2 km/h (1 Bft)
26.10.2016 23:35 8,3 °C 8,3 °C 96 % 1028,8 hPa 0,0 mm 1,9 km/h (1 Bft) O-NO 70 ° 0 min 0,000 mm 0,0 UV-I 0 W/m² 7,7 °C 3,2 km/h (1 Bft)
26.10.2016 23:36 8,3 °C 8,3 °C 96 % 1028,8 hPa 0,0 mm 2,5 km/h (1 Bft) N-NO 16 ° 0 min 0,000 mm 0,0 UV-I 0 W/m² 7,7 °C 4,8 km/h (1 Bft)
26.10.2016 23:37 8,3 °C 8,3 °C 96 % 1028,8 hPa 0,0 mm 2,0 km/h (1 Bft) NO 38 ° 0 min 0,000 mm 0,0 UV-I 0 W/m² 7,7 °C 3,2 km/h (1 Bft)
26.10.2016 23:38 8,3 °C 8,3 °C 96 % 1028,8 hPa 0,0 mm 0,7 km/h (0 Bft) NO 38 ° 0 min 0,000 mm 0,0 UV-I 0 W/m² 7,7 °C 3,2 km/h (1 Bft)
26.10.2016 23:39 8,3 °C 8,3 °C 96 % 1028,8 hPa 0,0 mm 0,3 km/h (0 Bft) NO 38 ° 0 min 0,000 mm 0,0 UV-I 0 W/m² 7,7 °C 1,6 km/h (1 Bft)
26.10.2016 23:40 8,3 °C 8,3 °C 96 % 1028,8 hPa 0,0 mm 0,8 km/h (0 Bft) NO 38 ° 0 min 0,000 mm 0,0 UV-I 0 W/m² 7,7 °C 1,6 km/h (1 Bft)
26.10.2016 23:41 8,2 °C 8,3 °C 96 % 1028,8 hPa 0,0 mm 0,1 km/h (0 Bft) NO 38 ° 0 min 0,000 mm 0,0 UV-I 0 W/m² 7,6 °C 1,6 km/h (1 Bft)
26.10.2016 23:42 8,2 °C 8,3 °C 96 % 1028,8 hPa 0,0 mm 0,5 km/h (0 Bft) NO 38 ° 0 min 0,000 mm 0,0 UV-I 0 W/m² 7,6 °C 1,6 km/h (1 Bft)
26.10.2016 23:43 8,2 °C 8,2 °C 96 % 1028,8 hPa 0,0 mm 0,0 km/h (0 Bft) NO 38 ° 0 min 0,000 mm 0,0 UV-I 0 W/m² 7,6 °C 0,0 km/h (0 Bft)
26.10.2016 23:44 8,2 °C 8,2 °C 96 % 1028,8 hPa 0,0 mm 0,9 km/h (0 Bft) NO 38 ° 0 min 0,000 mm 0,0 UV-I 0 W/m² 7,6 °C 3,2 km/h (1 Bft)
26.10.2016 23:45 8,2 °C 8,2 °C 96 % 1028,8 hPa 0,0 mm 0,8 km/h (0 Bft) NO 38 ° 0 min 0,000 mm 0,0 UV-I 0 W/m² 7,6 °C 1,6 km/h (1 Bft)
26.10.2016 23:46 8,2 °C 8,2 °C 96 % 1028,8 hPa 0,0 mm 0,0 km/h (0 Bft) NO 38 ° 0 min 0,000 mm 0,0 UV-I 0 W/m² 7,6 °C 0,0 km/h (0 Bft)
26.10.2016 23:47 8,2 °C 8,2 °C 96 % 1028,8 hPa 0,0 mm 0,1 km/h (0 Bft) NO 38 ° 0 min 0,000 mm 0,0 UV-I 0 W/m² 7,6 °C 1,6 km/h (1 Bft)
26.10.2016 23:48 8,2 °C 8,2 °C 96 % 1028,7 hPa 0,0 mm 0,1 km/h (0 Bft) NO 38 ° 0 min 0,000 mm 0,0 UV-I 0 W/m² 7,6 °C 1,6 km/h (1 Bft)
26.10.2016 23:49 8,2 °C 8,2 °C 96 % 1028,7 hPa 0,0 mm 0,3 km/h (0 Bft) NO 38 ° 0 min 0,000 mm 0,0 UV-I 0 W/m² 7,6 °C 1,6 km/h (1 Bft)
26.10.2016 23:50 8,2 °C 8,2 °C 96 % 1028,6 hPa 0,0 mm 2,5 km/h (1 Bft) O-NO 61 ° 0 min 0,000 mm 0,0 UV-I 0 W/m² 7,6 °C 3,2 km/h (1 Bft)
26.10.2016 23:51 8,2 °C 8,2 °C 96 % 1028,6 hPa 0,0 mm 3,2 km/h (1 Bft) O-NO 67 ° 0 min 0,000 mm 0,0 UV-I 0 W/m² 7,6 °C 4,8 km/h (1 Bft)
26.10.2016 23:52 8,2 °C 8,2 °C 95 % 1028,6 hPa 0,0 mm 3,1 km/h (1 Bft) O-NO 78 ° 0 min 0,000 mm 0,0 UV-I 0 W/m² 7,4 °C 4,8 km/h (1 Bft)
26.10.2016 23:53 8,2 °C 8,2 °C 95 % 1028,6 hPa 0,0 mm 3,1 km/h (1 Bft) O-NO 78 ° 0 min 0,000 mm 0,0 UV-I 0 W/m² 7,4 °C 4,8 km/h (1 Bft)
26.10.2016 23:54 8,1 °C 8,2 °C 95 % 1028,6 hPa 0,0 mm 2,1 km/h (1 Bft) O-NO 78 ° 0 min 0,000 mm 0,0 UV-I 0 W/m² 7,3 °C 3,2 km/h (1 Bft)
26.10.2016 23:55 8,1 °C 8,1 °C 95 % 1028,5 hPa 0,0 mm 4,4 km/h (1 Bft) O-SO 117 ° 0 min 0,000 mm 0,0 UV-I 0 W/m² 7,3 °C 4,8 km/h (1 Bft)
26.10.2016 23:56 8,1 °C 8,1 °C 95 % 1028,5 hPa 0,0 mm 2,3 km/h (1 Bft) O-SO 117 ° 0 min 0,000 mm 0,0 UV-I 0 W/m² 7,3 °C 4,8 km/h (1 Bft)
26.10.2016 23:57 8,1 °C 8,1 °C 95 % 1028,4 hPa 0,0 mm 1,7 km/h (1 Bft) O-SO 117 ° 0 min 0,000 mm 0,0 UV-I 0 W/m² 7,3 °C 3,2 km/h (1 Bft)
26.10.2016 23:58 8,1 °C 8,1 °C 95 % 1028,5 hPa 0,0 mm 1,4 km/h (1 Bft) O-SO 114 ° 0 min 0,000 mm 0,0 UV-I 0 W/m² 7,3 °C 3,2 km/h (1 Bft)
26.10.2016 23:59 8,1 °C 8,1 °C 95 % 1028,5 hPa 0,0 mm 0,0 km/h (0 Bft) O-SO 114 ° 0 min 0,000 mm 0,0 UV-I 0 W/m² 7,3 °C 0,0 km/h (0 Bft)
_ Min-Zeit 04:07 23:59 15:25 02:28 - 23:59 - - - - - - 23:59 23:59
Minimum _ 7,6 °C 8,1 °C 92 % 1023,1 hPa - 0,0 km/h (0 Bft) - - - - - - 7,3 °C 0,0 km/h (0 Bft)
_ Max-Zeit 14:20 14:21 03:54 23:47 21:58 10:10 - - 23:59 14:01 14:12 14:01 00:28 05:13
Maximum _ 9,9 °C 9,9 °C 97 % 1028,8 hPa 0,2 mm 8,0 km/h
O-NO (2 Bft)
- - 0 min 0,050 mm 1,0 UV-I 155 W/m² 9,0 °C 12,9 km/h
O (3 Bft)
Durchschnitt _ 9,0 °C 9,0 °C 95 % 1025,3 hPa #5,2 mm 1,7 km/h (1 Bft) O-NO - #0 min. #0,203 mm 0,7 UV-I 19 W/m² 8,2 °C 2,8 km/h (1 Bft)